<?xml version="1.0" encoding="UTF-8" standalone="no" ?>
<gpx xmlns="http://www.topografix.com/GPX/1/1" xmlns:xsi="http://www.w3.org/2001/XMLSchema-instance" xsi:schemaLocation="http://www.topografix.com/GPX/1/1 http://www.topografix.com/GPX/1/1/gpx.xsd" version="1.1" creator="VisuGPX - https://www.visugpx.com">
  <metadata>
    <name>E2 St Hilaire Aiguillon</name>
    <desc><![CDATA[Pornic Pau Pornic
hub03grppp]]></desc>
  </metadata>
  <trk>
    <name><![CDATA[Hil aigui 100]]></name>
    <trkseg>
      <trkpt lat="46.70517" lon="-1.97917">
        <ele>9.6</ele>
        <time>2015-02-16T14:27:00Z</time>
      </trkpt>
      <trkpt lat="46.70493" lon="-1.97907">
        <ele>5.43</ele>
        <time>2015-02-16T14:27:06Z</time>
      </trkpt>
      <trkpt lat="46.70469" lon="-1.97893">
        <ele>5.66</ele>
        <time>2015-02-16T14:27:13Z</time>
      </trkpt>
      <trkpt lat="46.70439" lon="-1.97867">
        <ele>6.51</ele>
        <time>2015-02-16T14:27:23Z</time>
      </trkpt>
      <trkpt lat="46.70385" lon="-1.97814">
        <ele>7.58</ele>
        <time>2015-02-16T14:27:40Z</time>
      </trkpt>
      <trkpt lat="46.70275" lon="-1.97697">
        <ele>9.96</ele>
        <time>2015-02-16T14:28:16Z</time>
      </trkpt>
      <trkpt lat="46.70222" lon="-1.97638">
        <ele>10.92</ele>
        <time>2015-02-16T14:28:34Z</time>
      </trkpt>
      <trkpt lat="46.70155" lon="-1.97549">
        <ele>12.97</ele>
        <time>2015-02-16T14:28:58Z</time>
      </trkpt>
      <trkpt lat="46.70143" lon="-1.97526">
        <ele>12.18</ele>
        <time>2015-02-16T14:29:03Z</time>
      </trkpt>
      <trkpt lat="46.70139" lon="-1.9753">
        <ele>11.58</ele>
        <time>2015-02-16T14:29:05Z</time>
      </trkpt>
      <trkpt lat="46.70135" lon="-1.97531">
        <ele>11.12</ele>
        <time>2015-02-16T14:29:06Z</time>
      </trkpt>
      <trkpt lat="46.70131" lon="-1.97529">
        <ele>10.74</ele>
        <time>2015-02-16T14:29:07Z</time>
      </trkpt>
      <trkpt lat="46.70127" lon="-1.97525">
        <ele>10.58</ele>
        <time>2015-02-16T14:29:08Z</time>
      </trkpt>
      <trkpt lat="46.70127" lon="-1.97518">
        <ele>10.82</ele>
        <time>2015-02-16T14:29:10Z</time>
      </trkpt>
      <trkpt lat="46.70129" lon="-1.97507">
        <ele>11.53</ele>
        <time>2015-02-16T14:29:12Z</time>
      </trkpt>
      <trkpt lat="46.70122" lon="-1.97503">
        <ele>11.12</ele>
        <time>2015-02-16T14:29:14Z</time>
      </trkpt>
      <trkpt lat="46.70005" lon="-1.97347">
        <ele>12.28</ele>
        <time>2015-02-16T14:29:56Z</time>
      </trkpt>
      <trkpt lat="46.69988" lon="-1.97329">
        <ele>11.72</ele>
        <time>2015-02-16T14:30:01Z</time>
      </trkpt>
      <trkpt lat="46.69943" lon="-1.97289">
        <ele>8.52</ele>
        <time>2015-02-16T14:30:16Z</time>
      </trkpt>
      <trkpt lat="46.69917" lon="-1.9726">
        <ele>8.45</ele>
        <time>2015-02-16T14:30:24Z</time>
      </trkpt>
      <trkpt lat="46.69915" lon="-1.97266">
        <ele>7.95</ele>
        <time>2015-02-16T14:30:26Z</time>
      </trkpt>
      <trkpt lat="46.69911" lon="-1.97271">
        <ele>7.55</ele>
        <time>2015-02-16T14:30:27Z</time>
      </trkpt>
      <trkpt lat="46.69906" lon="-1.97271">
        <ele>7.37</ele>
        <time>2015-02-16T14:30:28Z</time>
      </trkpt>
      <trkpt lat="46.69901" lon="-1.97267">
        <ele>7.45</ele>
        <time>2015-02-16T14:30:30Z</time>
      </trkpt>
      <trkpt lat="46.69899" lon="-1.9726">
        <ele>7.77</ele>
        <time>2015-02-16T14:30:31Z</time>
      </trkpt>
      <trkpt lat="46.69899" lon="-1.97251">
        <ele>8.29</ele>
        <time>2015-02-16T14:30:33Z</time>
      </trkpt>
      <trkpt lat="46.69901" lon="-1.97248">
        <ele>8.46</ele>
        <time>2015-02-16T14:30:33Z</time>
      </trkpt>
      <trkpt lat="46.6989" lon="-1.97245">
        <ele>8.2</ele>
        <time>2015-02-16T14:30:36Z</time>
      </trkpt>
      <trkpt lat="46.69784" lon="-1.97164">
        <ele>10.28</ele>
        <time>2015-02-16T14:31:08Z</time>
      </trkpt>
      <trkpt lat="46.69732" lon="-1.97114">
        <ele>9.61</ele>
        <time>2015-02-16T14:31:25Z</time>
      </trkpt>
      <trkpt lat="46.69707" lon="-1.97088">
        <ele>9.22</ele>
        <time>2015-02-16T14:31:33Z</time>
      </trkpt>
      <trkpt lat="46.69702" lon="-1.97091">
        <ele>8.7</ele>
        <time>2015-02-16T14:31:35Z</time>
      </trkpt>
      <trkpt lat="46.69695" lon="-1.97087">
        <ele>8.52</ele>
        <time>2015-02-16T14:31:37Z</time>
      </trkpt>
      <trkpt lat="46.6969" lon="-1.97078">
        <ele>8.66</ele>
        <time>2015-02-16T14:31:39Z</time>
      </trkpt>
      <trkpt lat="46.69691" lon="-1.97071">
        <ele>9.05</ele>
        <time>2015-02-16T14:31:40Z</time>
      </trkpt>
      <trkpt lat="46.6968" lon="-1.97056">
        <ele>9.23</ele>
        <time>2015-02-16T14:31:44Z</time>
      </trkpt>
      <trkpt lat="46.69579" lon="-1.96953">
        <ele>8.55</ele>
        <time>2015-02-16T14:32:17Z</time>
      </trkpt>
      <trkpt lat="46.69388" lon="-1.96766">
        <ele>10.47</ele>
        <time>2015-02-16T14:33:18Z</time>
      </trkpt>
      <trkpt lat="46.69368" lon="-1.96742">
        <ele>9.67</ele>
        <time>2015-02-16T14:33:25Z</time>
      </trkpt>
      <trkpt lat="46.69346" lon="-1.96698">
        <ele>9.94</ele>
        <time>2015-02-16T14:33:35Z</time>
      </trkpt>
      <trkpt lat="46.69323" lon="-1.96614">
        <ele>11.27</ele>
        <time>2015-02-16T14:33:52Z</time>
      </trkpt>
      <trkpt lat="46.6932" lon="-1.96595">
        <ele>11.4</ele>
        <time>2015-02-16T14:33:55Z</time>
      </trkpt>
      <trkpt lat="46.6932" lon="-1.96505">
        <ele>11.86</ele>
        <time>2015-02-16T14:34:12Z</time>
      </trkpt>
      <trkpt lat="46.69329" lon="-1.96346">
        <ele>14.82</ele>
        <time>2015-02-16T14:34:41Z</time>
      </trkpt>
      <trkpt lat="46.69331" lon="-1.96152">
        <ele>9.61</ele>
        <time>2015-02-16T14:35:17Z</time>
      </trkpt>
      <trkpt lat="46.69353" lon="-1.96108">
        <ele>6.09</ele>
        <time>2015-02-16T14:35:27Z</time>
      </trkpt>
      <trkpt lat="46.6939" lon="-1.96076">
        <ele>4.42</ele>
        <time>2015-02-16T14:35:38Z</time>
      </trkpt>
      <trkpt lat="46.69418" lon="-1.96049">
        <ele>3.79</ele>
        <time>2015-02-16T14:35:47Z</time>
      </trkpt>
      <trkpt lat="46.69425" lon="-1.96033">
        <ele>3.45</ele>
        <time>2015-02-16T14:35:51Z</time>
      </trkpt>
      <trkpt lat="46.69438" lon="-1.9601">
        <ele>3.11</ele>
        <time>2015-02-16T14:35:56Z</time>
      </trkpt>
      <trkpt lat="46.69447" lon="-1.95973">
        <ele>3.21</ele>
        <time>2015-02-16T14:36:03Z</time>
      </trkpt>
      <trkpt lat="46.6947" lon="-1.95758">
        <ele>7.02</ele>
        <time>2015-02-16T14:36:43Z</time>
      </trkpt>
      <trkpt lat="46.6948" lon="-1.95708">
        <ele>7.97</ele>
        <time>2015-02-16T14:36:53Z</time>
      </trkpt>
      <trkpt lat="46.69506" lon="-1.95597">
        <ele>8.45</ele>
        <time>2015-02-16T14:37:14Z</time>
      </trkpt>
      <trkpt lat="46.69521" lon="-1.95555">
        <ele>7.63</ele>
        <time>2015-02-16T14:37:23Z</time>
      </trkpt>
      <trkpt lat="46.69549" lon="-1.95488">
        <ele>7.39</ele>
        <time>2015-02-16T14:37:37Z</time>
      </trkpt>
      <trkpt lat="46.69556" lon="-1.95443">
        <ele>7.95</ele>
        <time>2015-02-16T14:37:46Z</time>
      </trkpt>
      <trkpt lat="46.6953" lon="-1.95309">
        <ele>6.78</ele>
        <time>2015-02-16T14:38:11Z</time>
      </trkpt>
      <trkpt lat="46.69527" lon="-1.95287">
        <ele>6.21</ele>
        <time>2015-02-16T14:38:15Z</time>
      </trkpt>
      <trkpt lat="46.69528" lon="-1.95267">
        <ele>5.96</ele>
        <time>2015-02-16T14:38:19Z</time>
      </trkpt>
      <trkpt lat="46.69535" lon="-1.9525">
        <ele>6.11</ele>
        <time>2015-02-16T14:38:23Z</time>
      </trkpt>
      <trkpt lat="46.69547" lon="-1.95238">
        <ele>6.31</ele>
        <time>2015-02-16T14:38:26Z</time>
      </trkpt>
      <trkpt lat="46.69564" lon="-1.95225">
        <ele>6.85</ele>
        <time>2015-02-16T14:38:31Z</time>
      </trkpt>
      <trkpt lat="46.69593" lon="-1.95198">
        <ele>7.47</ele>
        <time>2015-02-16T14:38:41Z</time>
      </trkpt>
      <trkpt lat="46.69622" lon="-1.95139">
        <ele>7.32</ele>
        <time>2015-02-16T14:38:54Z</time>
      </trkpt>
      <trkpt lat="46.69686" lon="-1.94984">
        <ele>6.68</ele>
        <time>2015-02-16T14:39:27Z</time>
      </trkpt>
      <trkpt lat="46.69757" lon="-1.94894">
        <ele>5.23</ele>
        <time>2015-02-16T14:39:52Z</time>
      </trkpt>
      <trkpt lat="46.69814" lon="-1.94727">
        <ele>4.07</ele>
        <time>2015-02-16T14:40:27Z</time>
      </trkpt>
      <trkpt lat="46.69819" lon="-1.94723">
        <ele>4.31</ele>
        <time>2015-02-16T14:40:28Z</time>
      </trkpt>
      <trkpt lat="46.69788" lon="-1.94574">
        <ele>3.42</ele>
        <time>2015-02-16T14:40:56Z</time>
      </trkpt>
      <trkpt lat="46.69775" lon="-1.94526">
        <ele>3.46</ele>
        <time>2015-02-16T14:41:06Z</time>
      </trkpt>
      <trkpt lat="46.69697" lon="-1.94295">
        <ele>4.06</ele>
        <time>2015-02-16T14:41:53Z</time>
      </trkpt>
      <trkpt lat="46.6967" lon="-1.94187">
        <ele>4.75</ele>
        <time>2015-02-16T14:42:14Z</time>
      </trkpt>
      <trkpt lat="46.69655" lon="-1.94115">
        <ele>3.06</ele>
        <time>2015-02-16T14:42:28Z</time>
      </trkpt>
      <trkpt lat="46.6964" lon="-1.94107">
        <ele>2.81</ele>
        <time>2015-02-16T14:42:32Z</time>
      </trkpt>
      <trkpt lat="46.69628" lon="-1.94114">
        <ele>2.89</ele>
        <time>2015-02-16T14:42:36Z</time>
      </trkpt>
      <trkpt lat="46.69622" lon="-1.94116">
        <ele>2.87</ele>
        <time>2015-02-16T14:42:37Z</time>
      </trkpt>
      <trkpt lat="46.69614" lon="-1.94115">
        <ele>2.81</ele>
        <time>2015-02-16T14:42:39Z</time>
      </trkpt>
      <trkpt lat="46.69606" lon="-1.94107">
        <ele>2.75</ele>
        <time>2015-02-16T14:42:42Z</time>
      </trkpt>
      <trkpt lat="46.69598" lon="-1.94089">
        <ele>2.8</ele>
        <time>2015-02-16T14:42:46Z</time>
      </trkpt>
      <trkpt lat="46.69585" lon="-1.94046">
        <ele>3.43</ele>
        <time>2015-02-16T14:42:55Z</time>
      </trkpt>
      <trkpt lat="46.69594" lon="-1.94043">
        <ele>3.36</ele>
        <time>2015-02-16T14:42:57Z</time>
      </trkpt>
      <trkpt lat="46.69617" lon="-1.94029">
        <ele>3.25</ele>
        <time>2015-02-16T14:43:04Z</time>
      </trkpt>
      <trkpt lat="46.69622" lon="-1.94028">
        <ele>3.2</ele>
        <time>2015-02-16T14:43:05Z</time>
      </trkpt>
      <trkpt lat="46.69628" lon="-1.94032">
        <ele>3.08</ele>
        <time>2015-02-16T14:43:07Z</time>
      </trkpt>
      <trkpt lat="46.69631" lon="-1.94013">
        <ele>3.28</ele>
        <time>2015-02-16T14:43:10Z</time>
      </trkpt>
      <trkpt lat="46.69611" lon="-1.93926">
        <ele>4.56</ele>
        <time>2015-02-16T14:43:27Z</time>
      </trkpt>
      <trkpt lat="46.69587" lon="-1.9364">
        <ele>4.59</ele>
        <time>2015-02-16T14:44:20Z</time>
      </trkpt>
      <trkpt lat="46.69591" lon="-1.936">
        <ele>4.08</ele>
        <time>2015-02-16T14:44:27Z</time>
      </trkpt>
      <trkpt lat="46.69585" lon="-1.93595">
        <ele>4.11</ele>
        <time>2015-02-16T14:44:29Z</time>
      </trkpt>
      <trkpt lat="46.69583" lon="-1.93582">
        <ele>4</ele>
        <time>2015-02-16T14:44:31Z</time>
      </trkpt>
      <trkpt lat="46.69588" lon="-1.93572">
        <ele>3.94</ele>
        <time>2015-02-16T14:44:34Z</time>
      </trkpt>
      <trkpt lat="46.69595" lon="-1.93571">
        <ele>3.86</ele>
        <time>2015-02-16T14:44:36Z</time>
      </trkpt>
      <trkpt lat="46.69599" lon="-1.93555">
        <ele>3.81</ele>
        <time>2015-02-16T14:44:39Z</time>
      </trkpt>
      <trkpt lat="46.6962" lon="-1.93433">
        <ele>4.26</ele>
        <time>2015-02-16T14:45:02Z</time>
      </trkpt>
      <trkpt lat="46.69616" lon="-1.93426">
        <ele>4.31</ele>
        <time>2015-02-16T14:45:03Z</time>
      </trkpt>
      <trkpt lat="46.69616" lon="-1.93421">
        <ele>4.35</ele>
        <time>2015-02-16T14:45:04Z</time>
      </trkpt>
      <trkpt lat="46.69587" lon="-1.93405">
        <ele>4.32</ele>
        <time>2015-02-16T14:45:13Z</time>
      </trkpt>
      <trkpt lat="46.69528" lon="-1.93382">
        <ele>4.17</ele>
        <time>2015-02-16T14:45:29Z</time>
      </trkpt>
      <trkpt lat="46.69405" lon="-1.93328">
        <ele>4</ele>
        <time>2015-02-16T14:46:03Z</time>
      </trkpt>
      <trkpt lat="46.69395" lon="-1.9333">
        <ele>4</ele>
        <time>2015-02-16T14:46:06Z</time>
      </trkpt>
      <trkpt lat="46.69391" lon="-1.93338">
        <ele>3.92</ele>
        <time>2015-02-16T14:46:08Z</time>
      </trkpt>
      <trkpt lat="46.69383" lon="-1.9334">
        <ele>3.9</ele>
        <time>2015-02-16T14:46:10Z</time>
      </trkpt>
      <trkpt lat="46.69379" lon="-1.93335">
        <ele>3.98</ele>
        <time>2015-02-16T14:46:11Z</time>
      </trkpt>
      <trkpt lat="46.69377" lon="-1.9333">
        <ele>4</ele>
        <time>2015-02-16T14:46:12Z</time>
      </trkpt>
      <trkpt lat="46.69362" lon="-1.93323">
        <ele>4</ele>
        <time>2015-02-16T14:46:17Z</time>
      </trkpt>
      <trkpt lat="46.69195" lon="-1.933">
        <ele>2.87</ele>
        <time>2015-02-16T14:47:01Z</time>
      </trkpt>
      <trkpt lat="46.69184" lon="-1.93303">
        <ele>2.79</ele>
        <time>2015-02-16T14:47:04Z</time>
      </trkpt>
      <trkpt lat="46.69178" lon="-1.9331">
        <ele>2.8</ele>
        <time>2015-02-16T14:47:06Z</time>
      </trkpt>
      <trkpt lat="46.6917" lon="-1.93312">
        <ele>2.76</ele>
        <time>2015-02-16T14:47:09Z</time>
      </trkpt>
      <trkpt lat="46.69165" lon="-1.93308">
        <ele>2.69</ele>
        <time>2015-02-16T14:47:10Z</time>
      </trkpt>
      <trkpt lat="46.69161" lon="-1.93296">
        <ele>2.53</ele>
        <time>2015-02-16T14:47:12Z</time>
      </trkpt>
      <trkpt lat="46.69162" lon="-1.93288">
        <ele>2.43</ele>
        <time>2015-02-16T14:47:14Z</time>
      </trkpt>
      <trkpt lat="46.69157" lon="-1.93283">
        <ele>2.33</ele>
        <time>2015-02-16T14:47:16Z</time>
      </trkpt>
      <trkpt lat="46.69152" lon="-1.93277">
        <ele>2.2</ele>
        <time>2015-02-16T14:47:17Z</time>
      </trkpt>
      <trkpt lat="46.69106" lon="-1.9319">
        <ele>2.19</ele>
        <time>2015-02-16T14:47:37Z</time>
      </trkpt>
      <trkpt lat="46.69088" lon="-1.93174">
        <ele>2.03</ele>
        <time>2015-02-16T14:47:43Z</time>
      </trkpt>
      <trkpt lat="46.69059" lon="-1.93154">
        <ele>2.07</ele>
        <time>2015-02-16T14:47:52Z</time>
      </trkpt>
      <trkpt lat="46.68985" lon="-1.93154">
        <ele>1.55</ele>
        <time>2015-02-16T14:48:11Z</time>
      </trkpt>
      <trkpt lat="46.68957" lon="-1.93158">
        <ele>1.67</ele>
        <time>2015-02-16T14:48:19Z</time>
      </trkpt>
      <trkpt lat="46.68928" lon="-1.93166">
        <ele>1.87</ele>
        <time>2015-02-16T14:48:27Z</time>
      </trkpt>
      <trkpt lat="46.68909" lon="-1.93167">
        <ele>2.19</ele>
        <time>2015-02-16T14:48:32Z</time>
      </trkpt>
      <trkpt lat="46.68906" lon="-1.93181">
        <ele>2.11</ele>
        <time>2015-02-16T14:48:35Z</time>
      </trkpt>
      <trkpt lat="46.68898" lon="-1.93187">
        <ele>2.26</ele>
        <time>2015-02-16T14:48:37Z</time>
      </trkpt>
      <trkpt lat="46.68888" lon="-1.93184">
        <ele>2.54</ele>
        <time>2015-02-16T14:48:40Z</time>
      </trkpt>
      <trkpt lat="46.68816" lon="-1.93234">
        <ele>3.96</ele>
        <time>2015-02-16T14:49:01Z</time>
      </trkpt>
      <trkpt lat="46.68784" lon="-1.93237">
        <ele>3.91</ele>
        <time>2015-02-16T14:49:10Z</time>
      </trkpt>
      <trkpt lat="46.68738" lon="-1.93222">
        <ele>3.66</ele>
        <time>2015-02-16T14:49:22Z</time>
      </trkpt>
      <trkpt lat="46.6869" lon="-1.93216">
        <ele>3.59</ele>
        <time>2015-02-16T14:49:35Z</time>
      </trkpt>
      <trkpt lat="46.68637" lon="-1.93185">
        <ele>3.65</ele>
        <time>2015-02-16T14:49:50Z</time>
      </trkpt>
      <trkpt lat="46.6858" lon="-1.93142">
        <ele>4.02</ele>
        <time>2015-02-16T14:50:07Z</time>
      </trkpt>
      <trkpt lat="46.68496" lon="-1.93063">
        <ele>3</ele>
        <time>2015-02-16T14:50:34Z</time>
      </trkpt>
      <trkpt lat="46.68454" lon="-1.93024">
        <ele>3</ele>
        <time>2015-02-16T14:50:47Z</time>
      </trkpt>
      <trkpt lat="46.68435" lon="-1.92989">
        <ele>3.13</ele>
        <time>2015-02-16T14:50:56Z</time>
      </trkpt>
      <trkpt lat="46.68346" lon="-1.92868">
        <ele>3.65</ele>
        <time>2015-02-16T14:51:28Z</time>
      </trkpt>
      <trkpt lat="46.683" lon="-1.92794">
        <ele>3.39</ele>
        <time>2015-02-16T14:51:46Z</time>
      </trkpt>
      <trkpt lat="46.68273" lon="-1.92743">
        <ele>3.34</ele>
        <time>2015-02-16T14:51:58Z</time>
      </trkpt>
      <trkpt lat="46.68227" lon="-1.92694">
        <ele>3.31</ele>
        <time>2015-02-16T14:52:13Z</time>
      </trkpt>
      <trkpt lat="46.68198" lon="-1.92655">
        <ele>3.15</ele>
        <time>2015-02-16T14:52:24Z</time>
      </trkpt>
      <trkpt lat="46.68177" lon="-1.92611">
        <ele>4.68</ele>
        <time>2015-02-16T14:52:34Z</time>
      </trkpt>
      <trkpt lat="46.6816" lon="-1.92581">
        <ele>5.85</ele>
        <time>2015-02-16T14:52:41Z</time>
      </trkpt>
      <trkpt lat="46.68113" lon="-1.92515">
        <ele>6.31</ele>
        <time>2015-02-16T14:52:58Z</time>
      </trkpt>
      <trkpt lat="46.6806" lon="-1.92379">
        <ele>5.96</ele>
        <time>2015-02-16T14:53:27Z</time>
      </trkpt>
      <trkpt lat="46.67966" lon="-1.9227">
        <ele>3.64</ele>
        <time>2015-02-16T14:53:59Z</time>
      </trkpt>
      <trkpt lat="46.67934" lon="-1.92237">
        <ele>3.18</ele>
        <time>2015-02-16T14:54:09Z</time>
      </trkpt>
      <trkpt lat="46.67882" lon="-1.92212">
        <ele>3.23</ele>
        <time>2015-02-16T14:54:24Z</time>
      </trkpt>
      <trkpt lat="46.6785" lon="-1.92181">
        <ele>3.14</ele>
        <time>2015-02-16T14:54:34Z</time>
      </trkpt>
      <trkpt lat="46.67833" lon="-1.92126">
        <ele>2.55</ele>
        <time>2015-02-16T14:54:45Z</time>
      </trkpt>
      <trkpt lat="46.67811" lon="-1.92049">
        <ele>2.95</ele>
        <time>2015-02-16T14:55:01Z</time>
      </trkpt>
      <trkpt lat="46.67794" lon="-1.92014">
        <ele>3.51</ele>
        <time>2015-02-16T14:55:09Z</time>
      </trkpt>
      <trkpt lat="46.67733" lon="-1.9192">
        <ele>4.43</ele>
        <time>2015-02-16T14:55:32Z</time>
      </trkpt>
      <trkpt lat="46.67661" lon="-1.91795">
        <ele>3.1</ele>
        <time>2015-02-16T14:56:02Z</time>
      </trkpt>
      <trkpt lat="46.67605" lon="-1.91682">
        <ele>4.17</ele>
        <time>2015-02-16T14:56:28Z</time>
      </trkpt>
      <trkpt lat="46.67495" lon="-1.91443">
        <ele>3.48</ele>
        <time>2015-02-16T14:57:20Z</time>
      </trkpt>
      <trkpt lat="46.67464" lon="-1.91394">
        <ele>3.9</ele>
        <time>2015-02-16T14:57:32Z</time>
      </trkpt>
      <trkpt lat="46.67373" lon="-1.91228">
        <ele>5.11</ele>
        <time>2015-02-16T14:58:11Z</time>
      </trkpt>
      <trkpt lat="46.67316" lon="-1.91087">
        <ele>4.34</ele>
        <time>2015-02-16T14:58:41Z</time>
      </trkpt>
      <trkpt lat="46.67269" lon="-1.9099">
        <ele>4.26</ele>
        <time>2015-02-16T14:59:03Z</time>
      </trkpt>
      <trkpt lat="46.67212" lon="-1.90909">
        <ele>3.2</ele>
        <time>2015-02-16T14:59:24Z</time>
      </trkpt>
      <trkpt lat="46.67151" lon="-1.90796">
        <ele>2.94</ele>
        <time>2015-02-16T14:59:51Z</time>
      </trkpt>
      <trkpt lat="46.67144" lon="-1.90808">
        <ele>2.82</ele>
        <time>2015-02-16T14:59:54Z</time>
      </trkpt>
      <trkpt lat="46.67135" lon="-1.9082">
        <ele>2.84</ele>
        <time>2015-02-16T14:59:57Z</time>
      </trkpt>
      <trkpt lat="46.67102" lon="-1.9086">
        <ele>4.73</ele>
        <time>2015-02-16T15:00:08Z</time>
      </trkpt>
      <trkpt lat="46.67096" lon="-1.90863">
        <ele>5.06</ele>
        <time>2015-02-16T15:00:10Z</time>
      </trkpt>
      <trkpt lat="46.67069" lon="-1.90849">
        <ele>5.18</ele>
        <time>2015-02-16T15:00:18Z</time>
      </trkpt>
      <trkpt lat="46.6703" lon="-1.90833">
        <ele>5.91</ele>
        <time>2015-02-16T15:00:29Z</time>
      </trkpt>
      <trkpt lat="46.66988" lon="-1.90822">
        <ele>6.25</ele>
        <time>2015-02-16T15:00:40Z</time>
      </trkpt>
      <trkpt lat="46.6696" lon="-1.90821">
        <ele>6</ele>
        <time>2015-02-16T15:00:47Z</time>
      </trkpt>
      <trkpt lat="46.66938" lon="-1.90824">
        <ele>5.95</ele>
        <time>2015-02-16T15:00:53Z</time>
      </trkpt>
      <trkpt lat="46.66897" lon="-1.90843">
        <ele>5.37</ele>
        <time>2015-02-16T15:01:05Z</time>
      </trkpt>
      <trkpt lat="46.66853" lon="-1.90884">
        <ele>5.1</ele>
        <time>2015-02-16T15:01:19Z</time>
      </trkpt>
      <trkpt lat="46.66786" lon="-1.90933">
        <ele>5.92</ele>
        <time>2015-02-16T15:01:39Z</time>
      </trkpt>
      <trkpt lat="46.66774" lon="-1.90951">
        <ele>6.23</ele>
        <time>2015-02-16T15:01:43Z</time>
      </trkpt>
      <trkpt lat="46.66754" lon="-1.90991">
        <ele>6.87</ele>
        <time>2015-02-16T15:01:52Z</time>
      </trkpt>
      <trkpt lat="46.66751" lon="-1.91026">
        <ele>7.03</ele>
        <time>2015-02-16T15:01:59Z</time>
      </trkpt>
      <trkpt lat="46.66734" lon="-1.91058">
        <ele>6.87</ele>
        <time>2015-02-16T15:02:06Z</time>
      </trkpt>
      <trkpt lat="46.66705" lon="-1.91092">
        <ele>6.56</ele>
        <time>2015-02-16T15:02:16Z</time>
      </trkpt>
      <trkpt lat="46.66691" lon="-1.91103">
        <ele>6.52</ele>
        <time>2015-02-16T15:02:20Z</time>
      </trkpt>
      <trkpt lat="46.66682" lon="-1.91101">
        <ele>6.4</ele>
        <time>2015-02-16T15:02:23Z</time>
      </trkpt>
      <trkpt lat="46.66674" lon="-1.91087">
        <ele>6.13</ele>
        <time>2015-02-16T15:02:26Z</time>
      </trkpt>
      <trkpt lat="46.66669" lon="-1.91059">
        <ele>6.31</ele>
        <time>2015-02-16T15:02:31Z</time>
      </trkpt>
      <trkpt lat="46.66667" lon="-1.91018">
        <ele>6.79</ele>
        <time>2015-02-16T15:02:39Z</time>
      </trkpt>
      <trkpt lat="46.66669" lon="-1.9098">
        <ele>7.46</ele>
        <time>2015-02-16T15:02:46Z</time>
      </trkpt>
      <trkpt lat="46.66676" lon="-1.90947">
        <ele>7.98</ele>
        <time>2015-02-16T15:02:52Z</time>
      </trkpt>
      <trkpt lat="46.66695" lon="-1.90882">
        <ele>7.35</ele>
        <time>2015-02-16T15:03:05Z</time>
      </trkpt>
      <trkpt lat="46.66697" lon="-1.90866">
        <ele>7.05</ele>
        <time>2015-02-16T15:03:08Z</time>
      </trkpt>
      <trkpt lat="46.66699" lon="-1.90828">
        <ele>6.48</ele>
        <time>2015-02-16T15:03:15Z</time>
      </trkpt>
      <trkpt lat="46.66698" lon="-1.90751">
        <ele>6.03</ele>
        <time>2015-02-16T15:03:29Z</time>
      </trkpt>
      <trkpt lat="46.6669" lon="-1.90688">
        <ele>5.68</ele>
        <time>2015-02-16T15:03:41Z</time>
      </trkpt>
      <trkpt lat="46.66663" lon="-1.90619">
        <ele>5.99</ele>
        <time>2015-02-16T15:03:56Z</time>
      </trkpt>
      <trkpt lat="46.66655" lon="-1.90614">
        <ele>6.23</ele>
        <time>2015-02-16T15:03:58Z</time>
      </trkpt>
      <trkpt lat="46.66583" lon="-1.90597">
        <ele>8.51</ele>
        <time>2015-02-16T15:04:17Z</time>
      </trkpt>
      <trkpt lat="46.66547" lon="-1.90599">
        <ele>8.14</ele>
        <time>2015-02-16T15:04:27Z</time>
      </trkpt>
      <trkpt lat="46.66535" lon="-1.90601">
        <ele>8.06</ele>
        <time>2015-02-16T15:04:30Z</time>
      </trkpt>
      <trkpt lat="46.66508" lon="-1.90599">
        <ele>7.65</ele>
        <time>2015-02-16T15:04:38Z</time>
      </trkpt>
      <trkpt lat="46.6648" lon="-1.90589">
        <ele>6.69</ele>
        <time>2015-02-16T15:04:45Z</time>
      </trkpt>
      <trkpt lat="46.66466" lon="-1.90582">
        <ele>6.13</ele>
        <time>2015-02-16T15:04:49Z</time>
      </trkpt>
      <trkpt lat="46.66448" lon="-1.90581">
        <ele>5.67</ele>
        <time>2015-02-16T15:04:54Z</time>
      </trkpt>
      <trkpt lat="46.66436" lon="-1.90584">
        <ele>5.48</ele>
        <time>2015-02-16T15:04:57Z</time>
      </trkpt>
      <trkpt lat="46.66418" lon="-1.90597">
        <ele>5.19</ele>
        <time>2015-02-16T15:05:03Z</time>
      </trkpt>
      <trkpt lat="46.66393" lon="-1.90601">
        <ele>4.3</ele>
        <time>2015-02-16T15:05:09Z</time>
      </trkpt>
      <trkpt lat="46.66387" lon="-1.90608">
        <ele>4.13</ele>
        <time>2015-02-16T15:05:11Z</time>
      </trkpt>
      <trkpt lat="46.6638" lon="-1.9062">
        <ele>3.94</ele>
        <time>2015-02-16T15:05:14Z</time>
      </trkpt>
      <trkpt lat="46.66362" lon="-1.90632">
        <ele>3.23</ele>
        <time>2015-02-16T15:05:19Z</time>
      </trkpt>
      <trkpt lat="46.66329" lon="-1.90627">
        <ele>2.03</ele>
        <time>2015-02-16T15:05:28Z</time>
      </trkpt>
      <trkpt lat="46.66306" lon="-1.90618">
        <ele>2.19</ele>
        <time>2015-02-16T15:05:35Z</time>
      </trkpt>
      <trkpt lat="46.66267" lon="-1.90618">
        <ele>2.46</ele>
        <time>2015-02-16T15:05:45Z</time>
      </trkpt>
      <trkpt lat="46.66245" lon="-1.90612">
        <ele>2.82</ele>
        <time>2015-02-16T15:05:51Z</time>
      </trkpt>
      <trkpt lat="46.66231" lon="-1.90604">
        <ele>3.27</ele>
        <time>2015-02-16T15:05:55Z</time>
      </trkpt>
      <trkpt lat="46.6619" lon="-1.90594">
        <ele>4.4</ele>
        <time>2015-02-16T15:06:06Z</time>
      </trkpt>
      <trkpt lat="46.66161" lon="-1.90595">
        <ele>4.85</ele>
        <time>2015-02-16T15:06:14Z</time>
      </trkpt>
      <trkpt lat="46.66139" lon="-1.90586">
        <ele>4.33</ele>
        <time>2015-02-16T15:06:20Z</time>
      </trkpt>
      <trkpt lat="46.66129" lon="-1.90576">
        <ele>4.06</ele>
        <time>2015-02-16T15:06:23Z</time>
      </trkpt>
      <trkpt lat="46.66116" lon="-1.90549">
        <ele>3.63</ele>
        <time>2015-02-16T15:06:29Z</time>
      </trkpt>
      <trkpt lat="46.66096" lon="-1.90467">
        <ele>3.43</ele>
        <time>2015-02-16T15:06:45Z</time>
      </trkpt>
      <trkpt lat="46.66088" lon="-1.90426">
        <ele>3.85</ele>
        <time>2015-02-16T15:06:53Z</time>
      </trkpt>
      <trkpt lat="46.6609" lon="-1.90391">
        <ele>4.78</ele>
        <time>2015-02-16T15:07:00Z</time>
      </trkpt>
      <trkpt lat="46.6609" lon="-1.9037">
        <ele>5.47</ele>
        <time>2015-02-16T15:07:03Z</time>
      </trkpt>
      <trkpt lat="46.66083" lon="-1.90342">
        <ele>6.67</ele>
        <time>2015-02-16T15:07:09Z</time>
      </trkpt>
      <trkpt lat="46.66081" lon="-1.90305">
        <ele>7.67</ele>
        <time>2015-02-16T15:07:16Z</time>
      </trkpt>
      <trkpt lat="46.66084" lon="-1.90281">
        <ele>8.24</ele>
        <time>2015-02-16T15:07:20Z</time>
      </trkpt>
      <trkpt lat="46.66106" lon="-1.90208">
        <ele>8.43</ele>
        <time>2015-02-16T15:07:35Z</time>
      </trkpt>
      <trkpt lat="46.66119" lon="-1.90176">
        <ele>8.16</ele>
        <time>2015-02-16T15:07:42Z</time>
      </trkpt>
      <trkpt lat="46.66121" lon="-1.9015">
        <ele>8.09</ele>
        <time>2015-02-16T15:07:46Z</time>
      </trkpt>
      <trkpt lat="46.66118" lon="-1.90117">
        <ele>8.07</ele>
        <time>2015-02-16T15:07:52Z</time>
      </trkpt>
      <trkpt lat="46.66119" lon="-1.90112">
        <ele>7.98</ele>
        <time>2015-02-16T15:07:53Z</time>
      </trkpt>
      <trkpt lat="46.66109" lon="-1.90091">
        <ele>8.5</ele>
        <time>2015-02-16T15:07:58Z</time>
      </trkpt>
      <trkpt lat="46.66091" lon="-1.90062">
        <ele>8.82</ele>
        <time>2015-02-16T15:08:05Z</time>
      </trkpt>
      <trkpt lat="46.66082" lon="-1.90053">
        <ele>8.98</ele>
        <time>2015-02-16T15:08:08Z</time>
      </trkpt>
      <trkpt lat="46.66079" lon="-1.90026">
        <ele>8.17</ele>
        <time>2015-02-16T15:08:13Z</time>
      </trkpt>
      <trkpt lat="46.66081" lon="-1.90007">
        <ele>7.41</ele>
        <time>2015-02-16T15:08:17Z</time>
      </trkpt>
      <trkpt lat="46.66079" lon="-1.90005">
        <ele>7.42</ele>
        <time>2015-02-16T15:08:17Z</time>
      </trkpt>
      <trkpt lat="46.66064" lon="-1.89996">
        <ele>7.98</ele>
        <time>2015-02-16T15:08:22Z</time>
      </trkpt>
      <trkpt lat="46.66048" lon="-1.89982">
        <ele>8.34</ele>
        <time>2015-02-16T15:08:27Z</time>
      </trkpt>
      <trkpt lat="46.66031" lon="-1.89978">
        <ele>8.95</ele>
        <time>2015-02-16T15:08:31Z</time>
      </trkpt>
      <trkpt lat="46.66019" lon="-1.8997">
        <ele>9.04</ele>
        <time>2015-02-16T15:08:35Z</time>
      </trkpt>
      <trkpt lat="46.65998" lon="-1.89952">
        <ele>8.5</ele>
        <time>2015-02-16T15:08:41Z</time>
      </trkpt>
      <trkpt lat="46.65971" lon="-1.89939">
        <ele>7.69</ele>
        <time>2015-02-16T15:08:49Z</time>
      </trkpt>
      <trkpt lat="46.65958" lon="-1.89927">
        <ele>7.05</ele>
        <time>2015-02-16T15:08:53Z</time>
      </trkpt>
      <trkpt lat="46.65944" lon="-1.89917">
        <ele>6.68</ele>
        <time>2015-02-16T15:08:57Z</time>
      </trkpt>
      <trkpt lat="46.6591" lon="-1.89903">
        <ele>7.08</ele>
        <time>2015-02-16T15:09:07Z</time>
      </trkpt>
      <trkpt lat="46.6585" lon="-1.89857">
        <ele>8.11</ele>
        <time>2015-02-16T15:09:25Z</time>
      </trkpt>
      <trkpt lat="46.65796" lon="-1.89826">
        <ele>8.22</ele>
        <time>2015-02-16T15:09:40Z</time>
      </trkpt>
      <trkpt lat="46.6575" lon="-1.89795">
        <ele>8.08</ele>
        <time>2015-02-16T15:09:54Z</time>
      </trkpt>
      <trkpt lat="46.65676" lon="-1.8975">
        <ele>8.77</ele>
        <time>2015-02-16T15:10:15Z</time>
      </trkpt>
      <trkpt lat="46.65654" lon="-1.89732">
        <ele>8.75</ele>
        <time>2015-02-16T15:10:22Z</time>
      </trkpt>
      <trkpt lat="46.65547" lon="-1.8967">
        <ele>6.54</ele>
        <time>2015-02-16T15:10:53Z</time>
      </trkpt>
      <trkpt lat="46.65517" lon="-1.89649">
        <ele>6.55</ele>
        <time>2015-02-16T15:11:02Z</time>
      </trkpt>
      <trkpt lat="46.65487" lon="-1.89624">
        <ele>7.1</ele>
        <time>2015-02-16T15:11:11Z</time>
      </trkpt>
      <trkpt lat="46.65449" lon="-1.89599">
        <ele>7.36</ele>
        <time>2015-02-16T15:11:22Z</time>
      </trkpt>
      <trkpt lat="46.65458" lon="-1.89584">
        <ele>7.49</ele>
        <time>2015-02-16T15:11:26Z</time>
      </trkpt>
      <trkpt lat="46.65556" lon="-1.89653">
        <ele>6.78</ele>
        <time>2015-02-16T15:11:55Z</time>
      </trkpt>
      <trkpt lat="46.65659" lon="-1.8972">
        <ele>9.1</ele>
        <time>2015-02-16T15:12:25Z</time>
      </trkpt>
      <trkpt lat="46.65556" lon="-1.89653">
        <ele>6.78</ele>
        <time>2015-02-16T15:12:55Z</time>
      </trkpt>
      <trkpt lat="46.65458" lon="-1.89584">
        <ele>7.49</ele>
        <time>2015-02-16T15:13:24Z</time>
      </trkpt>
      <trkpt lat="46.65449" lon="-1.89599">
        <ele>7.36</ele>
        <time>2015-02-16T15:13:28Z</time>
      </trkpt>
      <trkpt lat="46.65433" lon="-1.8961">
        <ele>7.33</ele>
        <time>2015-02-16T15:13:33Z</time>
      </trkpt>
      <trkpt lat="46.65412" lon="-1.89635">
        <ele>7.68</ele>
        <time>2015-02-16T15:13:40Z</time>
      </trkpt>
      <trkpt lat="46.65374" lon="-1.89703">
        <ele>8.81</ele>
        <time>2015-02-16T15:13:56Z</time>
      </trkpt>
      <trkpt lat="46.65321" lon="-1.89754">
        <ele>8.91</ele>
        <time>2015-02-16T15:14:13Z</time>
      </trkpt>
      <trkpt lat="46.653" lon="-1.89764">
        <ele>8.65</ele>
        <time>2015-02-16T15:14:19Z</time>
      </trkpt>
      <trkpt lat="46.65291" lon="-1.89754">
        <ele>8.91</ele>
        <time>2015-02-16T15:14:22Z</time>
      </trkpt>
      <trkpt lat="46.65277" lon="-1.89731">
        <ele>9.08</ele>
        <time>2015-02-16T15:14:28Z</time>
      </trkpt>
      <trkpt lat="46.65263" lon="-1.89714">
        <ele>9.07</ele>
        <time>2015-02-16T15:14:33Z</time>
      </trkpt>
      <trkpt lat="46.6525" lon="-1.89705">
        <ele>9</ele>
        <time>2015-02-16T15:14:36Z</time>
      </trkpt>
      <trkpt lat="46.65236" lon="-1.89701">
        <ele>8.97</ele>
        <time>2015-02-16T15:14:40Z</time>
      </trkpt>
      <trkpt lat="46.6521" lon="-1.897">
        <ele>8.9</ele>
        <time>2015-02-16T15:14:47Z</time>
      </trkpt>
      <trkpt lat="46.65156" lon="-1.89755">
        <ele>10.26</ele>
        <time>2015-02-16T15:15:05Z</time>
      </trkpt>
      <trkpt lat="46.65142" lon="-1.89759">
        <ele>10.58</ele>
        <time>2015-02-16T15:15:08Z</time>
      </trkpt>
      <trkpt lat="46.65131" lon="-1.89755">
        <ele>10.87</ele>
        <time>2015-02-16T15:15:12Z</time>
      </trkpt>
      <trkpt lat="46.65103" lon="-1.89734">
        <ele>11.29</ele>
        <time>2015-02-16T15:15:20Z</time>
      </trkpt>
      <trkpt lat="46.65081" lon="-1.89701">
        <ele>11.47</ele>
        <time>2015-02-16T15:15:28Z</time>
      </trkpt>
      <trkpt lat="46.65064" lon="-1.89697">
        <ele>11.98</ele>
        <time>2015-02-16T15:15:33Z</time>
      </trkpt>
      <trkpt lat="46.65054" lon="-1.89665">
        <ele>12.04</ele>
        <time>2015-02-16T15:15:39Z</time>
      </trkpt>
      <trkpt lat="46.65037" lon="-1.89634">
        <ele>12.27</ele>
        <time>2015-02-16T15:15:47Z</time>
      </trkpt>
      <trkpt lat="46.65015" lon="-1.89612">
        <ele>12.82</ele>
        <time>2015-02-16T15:15:54Z</time>
      </trkpt>
      <trkpt lat="46.64999" lon="-1.89579">
        <ele>13</ele>
        <time>2015-02-16T15:16:01Z</time>
      </trkpt>
      <trkpt lat="46.64976" lon="-1.89496">
        <ele>13.03</ele>
        <time>2015-02-16T15:16:18Z</time>
      </trkpt>
      <trkpt lat="46.64943" lon="-1.89419">
        <ele>14.33</ele>
        <time>2015-02-16T15:16:34Z</time>
      </trkpt>
      <trkpt lat="46.64936" lon="-1.89392">
        <ele>15.04</ele>
        <time>2015-02-16T15:16:40Z</time>
      </trkpt>
      <trkpt lat="46.64909" lon="-1.89316">
        <ele>16.81</ele>
        <time>2015-02-16T15:16:55Z</time>
      </trkpt>
      <trkpt lat="46.64902" lon="-1.89304">
        <ele>16.71</ele>
        <time>2015-02-16T15:16:58Z</time>
      </trkpt>
      <trkpt lat="46.64878" lon="-1.8932">
        <ele>16.91</ele>
        <time>2015-02-16T15:17:05Z</time>
      </trkpt>
      <trkpt lat="46.64843" lon="-1.89337">
        <ele>16.92</ele>
        <time>2015-02-16T15:17:15Z</time>
      </trkpt>
      <trkpt lat="46.64822" lon="-1.89362">
        <ele>16.62</ele>
        <time>2015-02-16T15:17:22Z</time>
      </trkpt>
      <trkpt lat="46.64809" lon="-1.89373">
        <ele>16.77</ele>
        <time>2015-02-16T15:17:26Z</time>
      </trkpt>
      <trkpt lat="46.64801" lon="-1.89405">
        <ele>16.38</ele>
        <time>2015-02-16T15:17:33Z</time>
      </trkpt>
      <trkpt lat="46.64782" lon="-1.89418">
        <ele>16.85</ele>
        <time>2015-02-16T15:17:38Z</time>
      </trkpt>
      <trkpt lat="46.64774" lon="-1.89449">
        <ele>16.87</ele>
        <time>2015-02-16T15:17:45Z</time>
      </trkpt>
      <trkpt lat="46.64751" lon="-1.89441">
        <ele>17.66</ele>
        <time>2015-02-16T15:17:51Z</time>
      </trkpt>
      <trkpt lat="46.6474" lon="-1.89432">
        <ele>17.79</ele>
        <time>2015-02-16T15:17:54Z</time>
      </trkpt>
      <trkpt lat="46.64703" lon="-1.89423">
        <ele>17.89</ele>
        <time>2015-02-16T15:18:04Z</time>
      </trkpt>
      <trkpt lat="46.64687" lon="-1.8942">
        <ele>17.92</ele>
        <time>2015-02-16T15:18:08Z</time>
      </trkpt>
      <trkpt lat="46.64648" lon="-1.89398">
        <ele>18</ele>
        <time>2015-02-16T15:18:20Z</time>
      </trkpt>
      <trkpt lat="46.64626" lon="-1.89359">
        <ele>18.21</ele>
        <time>2015-02-16T15:18:29Z</time>
      </trkpt>
      <trkpt lat="46.64615" lon="-1.89348">
        <ele>18.2</ele>
        <time>2015-02-16T15:18:32Z</time>
      </trkpt>
      <trkpt lat="46.64572" lon="-1.89329">
        <ele>17.99</ele>
        <time>2015-02-16T15:18:44Z</time>
      </trkpt>
      <trkpt lat="46.64539" lon="-1.89336">
        <ele>17.99</ele>
        <time>2015-02-16T15:18:53Z</time>
      </trkpt>
      <trkpt lat="46.64526" lon="-1.89341">
        <ele>17.97</ele>
        <time>2015-02-16T15:18:57Z</time>
      </trkpt>
      <trkpt lat="46.64518" lon="-1.89347">
        <ele>17.96</ele>
        <time>2015-02-16T15:18:59Z</time>
      </trkpt>
      <trkpt lat="46.64508" lon="-1.89365">
        <ele>17.97</ele>
        <time>2015-02-16T15:19:03Z</time>
      </trkpt>
      <trkpt lat="46.6449" lon="-1.89377">
        <ele>17.82</ele>
        <time>2015-02-16T15:19:09Z</time>
      </trkpt>
      <trkpt lat="46.64478" lon="-1.89374">
        <ele>17.6</ele>
        <time>2015-02-16T15:19:12Z</time>
      </trkpt>
      <trkpt lat="46.64458" lon="-1.89378">
        <ele>17.23</ele>
        <time>2015-02-16T15:19:17Z</time>
      </trkpt>
      <trkpt lat="46.64441" lon="-1.8938">
        <ele>16.91</ele>
        <time>2015-02-16T15:19:22Z</time>
      </trkpt>
      <trkpt lat="46.64427" lon="-1.89362">
        <ele>16.82</ele>
        <time>2015-02-16T15:19:27Z</time>
      </trkpt>
      <trkpt lat="46.644" lon="-1.89337">
        <ele>16.76</ele>
        <time>2015-02-16T15:19:35Z</time>
      </trkpt>
      <trkpt lat="46.64382" lon="-1.8934">
        <ele>16.5</ele>
        <time>2015-02-16T15:19:40Z</time>
      </trkpt>
      <trkpt lat="46.64368" lon="-1.89351">
        <ele>16.2</ele>
        <time>2015-02-16T15:19:45Z</time>
      </trkpt>
      <trkpt lat="46.64358" lon="-1.89366">
        <ele>15.91</ele>
        <time>2015-02-16T15:19:48Z</time>
      </trkpt>
      <trkpt lat="46.64352" lon="-1.89409">
        <ele>15.33</ele>
        <time>2015-02-16T15:19:56Z</time>
      </trkpt>
      <trkpt lat="46.64352" lon="-1.89436">
        <ele>15.4</ele>
        <time>2015-02-16T15:20:01Z</time>
      </trkpt>
      <trkpt lat="46.64348" lon="-1.89469">
        <ele>15.69</ele>
        <time>2015-02-16T15:20:07Z</time>
      </trkpt>
      <trkpt lat="46.64336" lon="-1.89528">
        <ele>15.35</ele>
        <time>2015-02-16T15:20:19Z</time>
      </trkpt>
      <trkpt lat="46.6431" lon="-1.89494">
        <ele>14.85</ele>
        <time>2015-02-16T15:20:28Z</time>
      </trkpt>
      <trkpt lat="46.64283" lon="-1.89474">
        <ele>13.46</ele>
        <time>2015-02-16T15:20:36Z</time>
      </trkpt>
      <trkpt lat="46.64249" lon="-1.89461">
        <ele>12</ele>
        <time>2015-02-16T15:20:45Z</time>
      </trkpt>
      <trkpt lat="46.64193" lon="-1.89448">
        <ele>12.16</ele>
        <time>2015-02-16T15:21:01Z</time>
      </trkpt>
      <trkpt lat="46.64095" lon="-1.89417">
        <ele>10.4</ele>
        <time>2015-02-16T15:21:28Z</time>
      </trkpt>
      <trkpt lat="46.64064" lon="-1.89416">
        <ele>9.33</ele>
        <time>2015-02-16T15:21:36Z</time>
      </trkpt>
      <trkpt lat="46.64014" lon="-1.89426">
        <ele>7.47</ele>
        <time>2015-02-16T15:21:49Z</time>
      </trkpt>
      <trkpt lat="46.63982" lon="-1.89469">
        <ele>6.15</ele>
        <time>2015-02-16T15:22:01Z</time>
      </trkpt>
      <trkpt lat="46.63965" lon="-1.89478">
        <ele>5.22</ele>
        <time>2015-02-16T15:22:06Z</time>
      </trkpt>
      <trkpt lat="46.63955" lon="-1.89478">
        <ele>4.71</ele>
        <time>2015-02-16T15:22:08Z</time>
      </trkpt>
      <trkpt lat="46.63932" lon="-1.89435">
        <ele>4.82</ele>
        <time>2015-02-16T15:22:18Z</time>
      </trkpt>
      <trkpt lat="46.63921" lon="-1.89432">
        <ele>4.61</ele>
        <time>2015-02-16T15:22:21Z</time>
      </trkpt>
      <trkpt lat="46.63914" lon="-1.89425">
        <ele>4.61</ele>
        <time>2015-02-16T15:22:23Z</time>
      </trkpt>
      <trkpt lat="46.639" lon="-1.89419">
        <ele>4.33</ele>
        <time>2015-02-16T15:22:28Z</time>
      </trkpt>
      <trkpt lat="46.63794" lon="-1.89267">
        <ele>6.83</ele>
        <time>2015-02-16T15:23:07Z</time>
      </trkpt>
      <trkpt lat="46.63792" lon="-1.89255">
        <ele>7.28</ele>
        <time>2015-02-16T15:23:09Z</time>
      </trkpt>
      <trkpt lat="46.63785" lon="-1.89244">
        <ele>7.62</ele>
        <time>2015-02-16T15:23:12Z</time>
      </trkpt>
      <trkpt lat="46.63778" lon="-1.89237">
        <ele>7.8</ele>
        <time>2015-02-16T15:23:14Z</time>
      </trkpt>
      <trkpt lat="46.637" lon="-1.8918">
        <ele>8.22</ele>
        <time>2015-02-16T15:23:38Z</time>
      </trkpt>
      <trkpt lat="46.63665" lon="-1.89157">
        <ele>8.36</ele>
        <time>2015-02-16T15:23:48Z</time>
      </trkpt>
      <trkpt lat="46.63655" lon="-1.89162">
        <ele>7.58</ele>
        <time>2015-02-16T15:23:51Z</time>
      </trkpt>
      <trkpt lat="46.63646" lon="-1.89162">
        <ele>7.03</ele>
        <time>2015-02-16T15:23:53Z</time>
      </trkpt>
      <trkpt lat="46.63528" lon="-1.89051">
        <ele>5.66</ele>
        <time>2015-02-16T15:24:31Z</time>
      </trkpt>
      <trkpt lat="46.63479" lon="-1.88938">
        <ele>7.11</ele>
        <time>2015-02-16T15:24:55Z</time>
      </trkpt>
      <trkpt lat="46.63451" lon="-1.88889">
        <ele>6.48</ele>
        <time>2015-02-16T15:25:07Z</time>
      </trkpt>
      <trkpt lat="46.63445" lon="-1.88859">
        <ele>7.05</ele>
        <time>2015-02-16T15:25:12Z</time>
      </trkpt>
      <trkpt lat="46.6343" lon="-1.88819">
        <ele>6.95</ele>
        <time>2015-02-16T15:25:21Z</time>
      </trkpt>
      <trkpt lat="46.63403" lon="-1.88761">
        <ele>6.64</ele>
        <time>2015-02-16T15:25:34Z</time>
      </trkpt>
      <trkpt lat="46.6339" lon="-1.88741">
        <ele>6.63</ele>
        <time>2015-02-16T15:25:39Z</time>
      </trkpt>
      <trkpt lat="46.63381" lon="-1.88735">
        <ele>6.39</ele>
        <time>2015-02-16T15:25:41Z</time>
      </trkpt>
      <trkpt lat="46.63367" lon="-1.88719">
        <ele>6.46</ele>
        <time>2015-02-16T15:25:46Z</time>
      </trkpt>
      <trkpt lat="46.63324" lon="-1.88682">
        <ele>6.19</ele>
        <time>2015-02-16T15:26:00Z</time>
      </trkpt>
      <trkpt lat="46.63308" lon="-1.88662">
        <ele>6</ele>
        <time>2015-02-16T15:26:05Z</time>
      </trkpt>
      <trkpt lat="46.63253" lon="-1.88564">
        <ele>5.16</ele>
        <time>2015-02-16T15:26:28Z</time>
      </trkpt>
      <trkpt lat="46.63242" lon="-1.88546">
        <ele>5.3</ele>
        <time>2015-02-16T15:26:33Z</time>
      </trkpt>
      <trkpt lat="46.63224" lon="-1.88526">
        <ele>4.85</ele>
        <time>2015-02-16T15:26:39Z</time>
      </trkpt>
      <trkpt lat="46.63219" lon="-1.88516">
        <ele>4.82</ele>
        <time>2015-02-16T15:26:41Z</time>
      </trkpt>
      <trkpt lat="46.63206" lon="-1.88478">
        <ele>5.08</ele>
        <time>2015-02-16T15:26:49Z</time>
      </trkpt>
      <trkpt lat="46.63196" lon="-1.88466">
        <ele>4.68</ele>
        <time>2015-02-16T15:26:52Z</time>
      </trkpt>
      <trkpt lat="46.63176" lon="-1.8843">
        <ele>4.26</ele>
        <time>2015-02-16T15:27:01Z</time>
      </trkpt>
      <trkpt lat="46.6317" lon="-1.88417">
        <ele>4.26</ele>
        <time>2015-02-16T15:27:04Z</time>
      </trkpt>
      <trkpt lat="46.63165" lon="-1.88394">
        <ele>4.2</ele>
        <time>2015-02-16T15:27:08Z</time>
      </trkpt>
      <trkpt lat="46.63168" lon="-1.88363">
        <ele>4.77</ele>
        <time>2015-02-16T15:27:14Z</time>
      </trkpt>
      <trkpt lat="46.63169" lon="-1.88327">
        <ele>5.36</ele>
        <time>2015-02-16T15:27:21Z</time>
      </trkpt>
      <trkpt lat="46.63165" lon="-1.883">
        <ele>5.66</ele>
        <time>2015-02-16T15:27:26Z</time>
      </trkpt>
      <trkpt lat="46.63167" lon="-1.88285">
        <ele>6.16</ele>
        <time>2015-02-16T15:27:28Z</time>
      </trkpt>
      <trkpt lat="46.63167" lon="-1.8827">
        <ele>6.54</ele>
        <time>2015-02-16T15:27:31Z</time>
      </trkpt>
      <trkpt lat="46.63158" lon="-1.8822">
        <ele>7.38</ele>
        <time>2015-02-16T15:27:41Z</time>
      </trkpt>
      <trkpt lat="46.63153" lon="-1.88215">
        <ele>7.14</ele>
        <time>2015-02-16T15:27:42Z</time>
      </trkpt>
      <trkpt lat="46.63142" lon="-1.88212">
        <ele>6.36</ele>
        <time>2015-02-16T15:27:45Z</time>
      </trkpt>
      <trkpt lat="46.63139" lon="-1.88203">
        <ele>6.3</ele>
        <time>2015-02-16T15:27:47Z</time>
      </trkpt>
      <trkpt lat="46.63136" lon="-1.88188">
        <ele>6.46</ele>
        <time>2015-02-16T15:27:50Z</time>
      </trkpt>
      <trkpt lat="46.63139" lon="-1.88175">
        <ele>7.08</ele>
        <time>2015-02-16T15:27:52Z</time>
      </trkpt>
      <trkpt lat="46.63132" lon="-1.88145">
        <ele>7.43</ele>
        <time>2015-02-16T15:27:58Z</time>
      </trkpt>
      <trkpt lat="46.63125" lon="-1.88131">
        <ele>7.31</ele>
        <time>2015-02-16T15:28:01Z</time>
      </trkpt>
      <trkpt lat="46.63123" lon="-1.88093">
        <ele>8.52</ele>
        <time>2015-02-16T15:28:08Z</time>
      </trkpt>
      <trkpt lat="46.63117" lon="-1.88078">
        <ele>8.73</ele>
        <time>2015-02-16T15:28:11Z</time>
      </trkpt>
      <trkpt lat="46.6311" lon="-1.88066">
        <ele>9.01</ele>
        <time>2015-02-16T15:28:14Z</time>
      </trkpt>
      <trkpt lat="46.63065" lon="-1.88011">
        <ele>9.81</ele>
        <time>2015-02-16T15:28:30Z</time>
      </trkpt>
      <trkpt lat="46.63057" lon="-1.87998">
        <ele>9.52</ele>
        <time>2015-02-16T15:28:33Z</time>
      </trkpt>
      <trkpt lat="46.63046" lon="-1.87968">
        <ele>9.17</ele>
        <time>2015-02-16T15:28:40Z</time>
      </trkpt>
      <trkpt lat="46.63038" lon="-1.87957">
        <ele>8.54</ele>
        <time>2015-02-16T15:28:42Z</time>
      </trkpt>
      <trkpt lat="46.6302" lon="-1.87892">
        <ele>8.57</ele>
        <time>2015-02-16T15:28:55Z</time>
      </trkpt>
      <trkpt lat="46.63008" lon="-1.87859">
        <ele>8.6</ele>
        <time>2015-02-16T15:29:02Z</time>
      </trkpt>
      <trkpt lat="46.63005" lon="-1.87834">
        <ele>9.43</ele>
        <time>2015-02-16T15:29:07Z</time>
      </trkpt>
      <trkpt lat="46.62997" lon="-1.878">
        <ele>9.51</ele>
        <time>2015-02-16T15:29:13Z</time>
      </trkpt>
      <trkpt lat="46.62981" lon="-1.87764">
        <ele>8.89</ele>
        <time>2015-02-16T15:29:21Z</time>
      </trkpt>
      <trkpt lat="46.62954" lon="-1.87712">
        <ele>8.67</ele>
        <time>2015-02-16T15:29:33Z</time>
      </trkpt>
      <trkpt lat="46.62949" lon="-1.87709">
        <ele>8.49</ele>
        <time>2015-02-16T15:29:34Z</time>
      </trkpt>
      <trkpt lat="46.62941" lon="-1.87709">
        <ele>7.8</ele>
        <time>2015-02-16T15:29:37Z</time>
      </trkpt>
      <trkpt lat="46.62928" lon="-1.87703">
        <ele>7.23</ele>
        <time>2015-02-16T15:29:40Z</time>
      </trkpt>
      <trkpt lat="46.62907" lon="-1.87677">
        <ele>7.39</ele>
        <time>2015-02-16T15:29:48Z</time>
      </trkpt>
      <trkpt lat="46.62893" lon="-1.87654">
        <ele>6.93</ele>
        <time>2015-02-16T15:29:53Z</time>
      </trkpt>
      <trkpt lat="46.62883" lon="-1.87625">
        <ele>6.6</ele>
        <time>2015-02-16T15:29:59Z</time>
      </trkpt>
      <trkpt lat="46.62892" lon="-1.87589">
        <ele>7.74</ele>
        <time>2015-02-16T15:30:06Z</time>
      </trkpt>
      <trkpt lat="46.62858" lon="-1.87529">
        <ele>8.42</ele>
        <time>2015-02-16T15:30:21Z</time>
      </trkpt>
      <trkpt lat="46.62838" lon="-1.87503">
        <ele>8.96</ele>
        <time>2015-02-16T15:30:28Z</time>
      </trkpt>
      <trkpt lat="46.62803" lon="-1.87475">
        <ele>8.94</ele>
        <time>2015-02-16T15:30:38Z</time>
      </trkpt>
      <trkpt lat="46.62738" lon="-1.87442">
        <ele>8.32</ele>
        <time>2015-02-16T15:30:57Z</time>
      </trkpt>
      <trkpt lat="46.62713" lon="-1.87425">
        <ele>7.94</ele>
        <time>2015-02-16T15:31:04Z</time>
      </trkpt>
      <trkpt lat="46.62689" lon="-1.8739">
        <ele>7.31</ele>
        <time>2015-02-16T15:31:13Z</time>
      </trkpt>
      <trkpt lat="46.6267" lon="-1.8737">
        <ele>6.55</ele>
        <time>2015-02-16T15:31:19Z</time>
      </trkpt>
      <trkpt lat="46.62619" lon="-1.87359">
        <ele>7.11</ele>
        <time>2015-02-16T15:31:33Z</time>
      </trkpt>
      <trkpt lat="46.62563" lon="-1.87369">
        <ele>7.43</ele>
        <time>2015-02-16T15:31:48Z</time>
      </trkpt>
      <trkpt lat="46.62503" lon="-1.87359">
        <ele>7.02</ele>
        <time>2015-02-16T15:32:04Z</time>
      </trkpt>
      <trkpt lat="46.62454" lon="-1.87364">
        <ele>6.73</ele>
        <time>2015-02-16T15:32:17Z</time>
      </trkpt>
      <trkpt lat="46.62402" lon="-1.87354">
        <ele>6.85</ele>
        <time>2015-02-16T15:32:31Z</time>
      </trkpt>
      <trkpt lat="46.62326" lon="-1.87325">
        <ele>7.73</ele>
        <time>2015-02-16T15:32:52Z</time>
      </trkpt>
      <trkpt lat="46.6227" lon="-1.87294">
        <ele>6.08</ele>
        <time>2015-02-16T15:33:08Z</time>
      </trkpt>
      <trkpt lat="46.62178" lon="-1.87226">
        <ele>8.25</ele>
        <time>2015-02-16T15:33:36Z</time>
      </trkpt>
      <trkpt lat="46.62168" lon="-1.8723">
        <ele>8.24</ele>
        <time>2015-02-16T15:33:39Z</time>
      </trkpt>
      <trkpt lat="46.62162" lon="-1.87224">
        <ele>8.19</ele>
        <time>2015-02-16T15:33:41Z</time>
      </trkpt>
      <trkpt lat="46.62132" lon="-1.87212">
        <ele>7.62</ele>
        <time>2015-02-16T15:33:49Z</time>
      </trkpt>
      <trkpt lat="46.62123" lon="-1.87212">
        <ele>7.42</ele>
        <time>2015-02-16T15:33:51Z</time>
      </trkpt>
      <trkpt lat="46.62108" lon="-1.87218">
        <ele>6.98</ele>
        <time>2015-02-16T15:33:55Z</time>
      </trkpt>
      <trkpt lat="46.62076" lon="-1.87232">
        <ele>6.19</ele>
        <time>2015-02-16T15:34:04Z</time>
      </trkpt>
      <trkpt lat="46.62059" lon="-1.87242">
        <ele>5.88</ele>
        <time>2015-02-16T15:34:09Z</time>
      </trkpt>
      <trkpt lat="46.6204" lon="-1.87244">
        <ele>5.66</ele>
        <time>2015-02-16T15:34:14Z</time>
      </trkpt>
      <trkpt lat="46.61986" lon="-1.87218">
        <ele>5.99</ele>
        <time>2015-02-16T15:34:30Z</time>
      </trkpt>
      <trkpt lat="46.61911" lon="-1.8717">
        <ele>6.5</ele>
        <time>2015-02-16T15:34:51Z</time>
      </trkpt>
      <trkpt lat="46.61893" lon="-1.87164">
        <ele>5.95</ele>
        <time>2015-02-16T15:34:56Z</time>
      </trkpt>
      <trkpt lat="46.61865" lon="-1.87139">
        <ele>5.45</ele>
        <time>2015-02-16T15:35:05Z</time>
      </trkpt>
      <trkpt lat="46.61839" lon="-1.87095">
        <ele>6.55</ele>
        <time>2015-02-16T15:35:16Z</time>
      </trkpt>
      <trkpt lat="46.61827" lon="-1.87092">
        <ele>6.31</ele>
        <time>2015-02-16T15:35:19Z</time>
      </trkpt>
      <trkpt lat="46.61806" lon="-1.87092">
        <ele>5.37</ele>
        <time>2015-02-16T15:35:24Z</time>
      </trkpt>
      <trkpt lat="46.61763" lon="-1.87051">
        <ele>5.42</ele>
        <time>2015-02-16T15:35:38Z</time>
      </trkpt>
      <trkpt lat="46.61745" lon="-1.8703">
        <ele>5.83</ele>
        <time>2015-02-16T15:35:44Z</time>
      </trkpt>
      <trkpt lat="46.61742" lon="-1.87015">
        <ele>6.52</ele>
        <time>2015-02-16T15:35:47Z</time>
      </trkpt>
      <trkpt lat="46.61739" lon="-1.87009">
        <ele>6.63</ele>
        <time>2015-02-16T15:35:49Z</time>
      </trkpt>
      <trkpt lat="46.61694" lon="-1.86961">
        <ele>4.4</ele>
        <time>2015-02-16T15:36:04Z</time>
      </trkpt>
      <trkpt lat="46.61686" lon="-1.8695">
        <ele>4.16</ele>
        <time>2015-02-16T15:36:06Z</time>
      </trkpt>
      <trkpt lat="46.61677" lon="-1.86931">
        <ele>4.15</ele>
        <time>2015-02-16T15:36:11Z</time>
      </trkpt>
      <trkpt lat="46.61675" lon="-1.86922">
        <ele>4.35</ele>
        <time>2015-02-16T15:36:13Z</time>
      </trkpt>
      <trkpt lat="46.61659" lon="-1.86888">
        <ele>3.99</ele>
        <time>2015-02-16T15:36:20Z</time>
      </trkpt>
      <trkpt lat="46.61645" lon="-1.86827">
        <ele>3.99</ele>
        <time>2015-02-16T15:36:32Z</time>
      </trkpt>
      <trkpt lat="46.61624" lon="-1.867">
        <ele>3.53</ele>
        <time>2015-02-16T15:36:56Z</time>
      </trkpt>
      <trkpt lat="46.61612" lon="-1.86671">
        <ele>3.03</ele>
        <time>2015-02-16T15:37:02Z</time>
      </trkpt>
      <trkpt lat="46.6161" lon="-1.86631">
        <ele>3.33</ele>
        <time>2015-02-16T15:37:09Z</time>
      </trkpt>
      <trkpt lat="46.61613" lon="-1.86609">
        <ele>3.81</ele>
        <time>2015-02-16T15:37:14Z</time>
      </trkpt>
      <trkpt lat="46.61616" lon="-1.86541">
        <ele>5.28</ele>
        <time>2015-02-16T15:37:26Z</time>
      </trkpt>
      <trkpt lat="46.61605" lon="-1.86486">
        <ele>5.81</ele>
        <time>2015-02-16T15:37:37Z</time>
      </trkpt>
      <trkpt lat="46.61618" lon="-1.8647">
        <ele>6.41</ele>
        <time>2015-02-16T15:37:41Z</time>
      </trkpt>
      <trkpt lat="46.6162" lon="-1.86465">
        <ele>6.52</ele>
        <time>2015-02-16T15:37:42Z</time>
      </trkpt>
      <trkpt lat="46.61596" lon="-1.86416">
        <ele>5.63</ele>
        <time>2015-02-16T15:37:53Z</time>
      </trkpt>
      <trkpt lat="46.61586" lon="-1.86382">
        <ele>5.51</ele>
        <time>2015-02-16T15:38:00Z</time>
      </trkpt>
      <trkpt lat="46.61597" lon="-1.86373">
        <ele>6.02</ele>
        <time>2015-02-16T15:38:04Z</time>
      </trkpt>
      <trkpt lat="46.61593" lon="-1.86363">
        <ele>5.95</ele>
        <time>2015-02-16T15:38:06Z</time>
      </trkpt>
      <trkpt lat="46.61592" lon="-1.86352">
        <ele>6.02</ele>
        <time>2015-02-16T15:38:08Z</time>
      </trkpt>
      <trkpt lat="46.616" lon="-1.86333">
        <ele>6.41</ele>
        <time>2015-02-16T15:38:12Z</time>
      </trkpt>
      <trkpt lat="46.61604" lon="-1.86304">
        <ele>6.95</ele>
        <time>2015-02-16T15:38:18Z</time>
      </trkpt>
      <trkpt lat="46.616" lon="-1.86291">
        <ele>7.12</ele>
        <time>2015-02-16T15:38:20Z</time>
      </trkpt>
      <trkpt lat="46.61605" lon="-1.86282">
        <ele>7.27</ele>
        <time>2015-02-16T15:38:22Z</time>
      </trkpt>
      <trkpt lat="46.61607" lon="-1.86275">
        <ele>7.37</ele>
        <time>2015-02-16T15:38:23Z</time>
      </trkpt>
      <trkpt lat="46.6161" lon="-1.86272">
        <ele>7.4</ele>
        <time>2015-02-16T15:38:25Z</time>
      </trkpt>
      <trkpt lat="46.61609" lon="-1.86232">
        <ele>7.54</ele>
        <time>2015-02-16T15:38:32Z</time>
      </trkpt>
      <trkpt lat="46.61605" lon="-1.86214">
        <ele>7.42</ele>
        <time>2015-02-16T15:38:35Z</time>
      </trkpt>
      <trkpt lat="46.61598" lon="-1.862">
        <ele>7.33</ele>
        <time>2015-02-16T15:38:39Z</time>
      </trkpt>
      <trkpt lat="46.61589" lon="-1.86192">
        <ele>7.29</ele>
        <time>2015-02-16T15:38:41Z</time>
      </trkpt>
      <trkpt lat="46.6158" lon="-1.8619">
        <ele>7.31</ele>
        <time>2015-02-16T15:38:44Z</time>
      </trkpt>
      <trkpt lat="46.61558" lon="-1.86201">
        <ele>7.59</ele>
        <time>2015-02-16T15:38:50Z</time>
      </trkpt>
      <trkpt lat="46.6155" lon="-1.86198">
        <ele>7.62</ele>
        <time>2015-02-16T15:38:52Z</time>
      </trkpt>
      <trkpt lat="46.61544" lon="-1.86187">
        <ele>7.6</ele>
        <time>2015-02-16T15:38:55Z</time>
      </trkpt>
      <trkpt lat="46.61538" lon="-1.86169">
        <ele>7.56</ele>
        <time>2015-02-16T15:38:59Z</time>
      </trkpt>
      <trkpt lat="46.61531" lon="-1.8616">
        <ele>7.38</ele>
        <time>2015-02-16T15:39:01Z</time>
      </trkpt>
      <trkpt lat="46.61519" lon="-1.86158">
        <ele>7.39</ele>
        <time>2015-02-16T15:39:04Z</time>
      </trkpt>
      <trkpt lat="46.61506" lon="-1.86164">
        <ele>7.78</ele>
        <time>2015-02-16T15:39:08Z</time>
      </trkpt>
      <trkpt lat="46.61494" lon="-1.86173">
        <ele>7.99</ele>
        <time>2015-02-16T15:39:11Z</time>
      </trkpt>
      <trkpt lat="46.61485" lon="-1.86174">
        <ele>7.97</ele>
        <time>2015-02-16T15:39:14Z</time>
      </trkpt>
      <trkpt lat="46.61478" lon="-1.86165">
        <ele>7.92</ele>
        <time>2015-02-16T15:39:16Z</time>
      </trkpt>
      <trkpt lat="46.61462" lon="-1.86093">
        <ele>4.88</ele>
        <time>2015-02-16T15:39:30Z</time>
      </trkpt>
      <trkpt lat="46.61452" lon="-1.86065">
        <ele>4.35</ele>
        <time>2015-02-16T15:39:36Z</time>
      </trkpt>
      <trkpt lat="46.61447" lon="-1.86011">
        <ele>3.77</ele>
        <time>2015-02-16T15:39:46Z</time>
      </trkpt>
      <trkpt lat="46.61443" lon="-1.85999">
        <ele>3.71</ele>
        <time>2015-02-16T15:39:48Z</time>
      </trkpt>
      <trkpt lat="46.61411" lon="-1.86045">
        <ele>4.63</ele>
        <time>2015-02-16T15:40:00Z</time>
      </trkpt>
      <trkpt lat="46.6138" lon="-1.8608">
        <ele>5.01</ele>
        <time>2015-02-16T15:40:11Z</time>
      </trkpt>
      <trkpt lat="46.61372" lon="-1.86082">
        <ele>5.01</ele>
        <time>2015-02-16T15:40:13Z</time>
      </trkpt>
      <trkpt lat="46.61367" lon="-1.86086">
        <ele>5</ele>
        <time>2015-02-16T15:40:15Z</time>
      </trkpt>
      <trkpt lat="46.61356" lon="-1.86089">
        <ele>4.96</ele>
        <time>2015-02-16T15:40:17Z</time>
      </trkpt>
      <trkpt lat="46.61331" lon="-1.86081">
        <ele>4.97</ele>
        <time>2015-02-16T15:40:24Z</time>
      </trkpt>
      <trkpt lat="46.61306" lon="-1.86061">
        <ele>4.65</ele>
        <time>2015-02-16T15:40:32Z</time>
      </trkpt>
      <trkpt lat="46.61269" lon="-1.85994">
        <ele>5.71</ele>
        <time>2015-02-16T15:40:48Z</time>
      </trkpt>
      <trkpt lat="46.61251" lon="-1.85934">
        <ele>8.16</ele>
        <time>2015-02-16T15:41:00Z</time>
      </trkpt>
      <trkpt lat="46.61248" lon="-1.85917">
        <ele>8.9</ele>
        <time>2015-02-16T15:41:03Z</time>
      </trkpt>
      <trkpt lat="46.61246" lon="-1.8588">
        <ele>9.35</ele>
        <time>2015-02-16T15:41:10Z</time>
      </trkpt>
      <trkpt lat="46.61225" lon="-1.85826">
        <ele>9.81</ele>
        <time>2015-02-16T15:41:21Z</time>
      </trkpt>
      <trkpt lat="46.61221" lon="-1.85785">
        <ele>10.44</ele>
        <time>2015-02-16T15:41:29Z</time>
      </trkpt>
      <trkpt lat="46.61209" lon="-1.85718">
        <ele>11.77</ele>
        <time>2015-02-16T15:41:41Z</time>
      </trkpt>
      <trkpt lat="46.61202" lon="-1.85694">
        <ele>12.34</ele>
        <time>2015-02-16T15:41:46Z</time>
      </trkpt>
      <trkpt lat="46.61187" lon="-1.85659">
        <ele>13</ele>
        <time>2015-02-16T15:41:54Z</time>
      </trkpt>
      <trkpt lat="46.61179" lon="-1.85594">
        <ele>13</ele>
        <time>2015-02-16T15:42:06Z</time>
      </trkpt>
      <trkpt lat="46.61179" lon="-1.85579">
        <ele>12.99</ele>
        <time>2015-02-16T15:42:09Z</time>
      </trkpt>
      <trkpt lat="46.6117" lon="-1.85554">
        <ele>12.99</ele>
        <time>2015-02-16T15:42:14Z</time>
      </trkpt>
      <trkpt lat="46.61164" lon="-1.85548">
        <ele>12.94</ele>
        <time>2015-02-16T15:42:16Z</time>
      </trkpt>
      <trkpt lat="46.61155" lon="-1.85546">
        <ele>12.69</ele>
        <time>2015-02-16T15:42:18Z</time>
      </trkpt>
      <trkpt lat="46.61144" lon="-1.8554">
        <ele>12.47</ele>
        <time>2015-02-16T15:42:22Z</time>
      </trkpt>
      <trkpt lat="46.61136" lon="-1.8553">
        <ele>12.37</ele>
        <time>2015-02-16T15:42:24Z</time>
      </trkpt>
      <trkpt lat="46.61128" lon="-1.85504">
        <ele>12.49</ele>
        <time>2015-02-16T15:42:30Z</time>
      </trkpt>
      <trkpt lat="46.61123" lon="-1.855">
        <ele>12.47</ele>
        <time>2015-02-16T15:42:31Z</time>
      </trkpt>
      <trkpt lat="46.61108" lon="-1.85495">
        <ele>12.38</ele>
        <time>2015-02-16T15:42:35Z</time>
      </trkpt>
      <trkpt lat="46.61101" lon="-1.85489">
        <ele>12.41</ele>
        <time>2015-02-16T15:42:37Z</time>
      </trkpt>
      <trkpt lat="46.61089" lon="-1.85464">
        <ele>12.87</ele>
        <time>2015-02-16T15:42:43Z</time>
      </trkpt>
      <trkpt lat="46.61016" lon="-1.85429">
        <ele>12.2</ele>
        <time>2015-02-16T15:43:03Z</time>
      </trkpt>
      <trkpt lat="46.60973" lon="-1.85406">
        <ele>11.72</ele>
        <time>2015-02-16T15:43:16Z</time>
      </trkpt>
      <trkpt lat="46.60919" lon="-1.85381">
        <ele>11.44</ele>
        <time>2015-02-16T15:43:31Z</time>
      </trkpt>
      <trkpt lat="46.60895" lon="-1.85368">
        <ele>11.06</ele>
        <time>2015-02-16T15:43:38Z</time>
      </trkpt>
      <trkpt lat="46.60772" lon="-1.8526">
        <ele>10.15</ele>
        <time>2015-02-16T15:44:16Z</time>
      </trkpt>
      <trkpt lat="46.60766" lon="-1.8525">
        <ele>10.19</ele>
        <time>2015-02-16T15:44:18Z</time>
      </trkpt>
      <trkpt lat="46.60673" lon="-1.85208">
        <ele>8.58</ele>
        <time>2015-02-16T15:44:44Z</time>
      </trkpt>
      <trkpt lat="46.60433" lon="-1.85095">
        <ele>7.86</ele>
        <time>2015-02-16T15:45:52Z</time>
      </trkpt>
      <trkpt lat="46.60388" lon="-1.85072">
        <ele>7.51</ele>
        <time>2015-02-16T15:46:04Z</time>
      </trkpt>
      <trkpt lat="46.60266" lon="-1.85015">
        <ele>5.51</ele>
        <time>2015-02-16T15:46:39Z</time>
      </trkpt>
      <trkpt lat="46.60263" lon="-1.85009">
        <ele>5.37</ele>
        <time>2015-02-16T15:46:40Z</time>
      </trkpt>
      <trkpt lat="46.60267" lon="-1.85">
        <ele>5.21</ele>
        <time>2015-02-16T15:46:42Z</time>
      </trkpt>
      <trkpt lat="46.60273" lon="-1.84974">
        <ele>4.73</ele>
        <time>2015-02-16T15:46:47Z</time>
      </trkpt>
      <trkpt lat="46.60275" lon="-1.8494">
        <ele>4.09</ele>
        <time>2015-02-16T15:46:53Z</time>
      </trkpt>
      <trkpt lat="46.60283" lon="-1.84907">
        <ele>3.98</ele>
        <time>2015-02-16T15:46:59Z</time>
      </trkpt>
      <trkpt lat="46.60311" lon="-1.84715">
        <ele>6.24</ele>
        <time>2015-02-16T15:47:35Z</time>
      </trkpt>
      <trkpt lat="46.60324" lon="-1.84705">
        <ele>5.75</ele>
        <time>2015-02-16T15:47:39Z</time>
      </trkpt>
      <trkpt lat="46.6033" lon="-1.84694">
        <ele>5.42</ele>
        <time>2015-02-16T15:47:42Z</time>
      </trkpt>
      <trkpt lat="46.6033" lon="-1.8469">
        <ele>5.39</ele>
        <time>2015-02-16T15:47:43Z</time>
      </trkpt>
      <trkpt lat="46.60332" lon="-1.84687">
        <ele>5.3</ele>
        <time>2015-02-16T15:47:43Z</time>
      </trkpt>
      <trkpt lat="46.60354" lon="-1.8457">
        <ele>5.25</ele>
        <time>2015-02-16T15:48:06Z</time>
      </trkpt>
      <trkpt lat="46.60356" lon="-1.84547">
        <ele>5.27</ele>
        <time>2015-02-16T15:48:10Z</time>
      </trkpt>
      <trkpt lat="46.60352" lon="-1.84482">
        <ele>5.01</ele>
        <time>2015-02-16T15:48:22Z</time>
      </trkpt>
      <trkpt lat="46.6035" lon="-1.84474">
        <ele>4.89</ele>
        <time>2015-02-16T15:48:24Z</time>
      </trkpt>
      <trkpt lat="46.6032" lon="-1.84481">
        <ele>5.19</ele>
        <time>2015-02-16T15:48:32Z</time>
      </trkpt>
      <trkpt lat="46.60241" lon="-1.84487">
        <ele>7.95</ele>
        <time>2015-02-16T15:48:53Z</time>
      </trkpt>
      <trkpt lat="46.60099" lon="-1.84448">
        <ele>10.33</ele>
        <time>2015-02-16T15:49:31Z</time>
      </trkpt>
      <trkpt lat="46.59946" lon="-1.84431">
        <ele>5.01</ele>
        <time>2015-02-16T15:50:12Z</time>
      </trkpt>
      <trkpt lat="46.59925" lon="-1.84433">
        <ele>4.45</ele>
        <time>2015-02-16T15:50:18Z</time>
      </trkpt>
      <trkpt lat="46.59909" lon="-1.84446">
        <ele>4.2</ele>
        <time>2015-02-16T15:50:23Z</time>
      </trkpt>
      <trkpt lat="46.59881" lon="-1.84473">
        <ele>3.67</ele>
        <time>2015-02-16T15:50:32Z</time>
      </trkpt>
      <trkpt lat="46.59845" lon="-1.84473">
        <ele>2.67</ele>
        <time>2015-02-16T15:50:41Z</time>
      </trkpt>
      <trkpt lat="46.59824" lon="-1.84453">
        <ele>2.51</ele>
        <time>2015-02-16T15:50:48Z</time>
      </trkpt>
      <trkpt lat="46.5981" lon="-1.84428">
        <ele>2.82</ele>
        <time>2015-02-16T15:50:54Z</time>
      </trkpt>
      <trkpt lat="46.59788" lon="-1.84359">
        <ele>3.31</ele>
        <time>2015-02-16T15:51:08Z</time>
      </trkpt>
      <trkpt lat="46.59747" lon="-1.8425">
        <ele>1.97</ele>
        <time>2015-02-16T15:51:31Z</time>
      </trkpt>
      <trkpt lat="46.59664" lon="-1.8408">
        <ele>2.94</ele>
        <time>2015-02-16T15:52:09Z</time>
      </trkpt>
      <trkpt lat="46.59637" lon="-1.84003">
        <ele>2.63</ele>
        <time>2015-02-16T15:52:25Z</time>
      </trkpt>
      <trkpt lat="46.59632" lon="-1.83939">
        <ele>2.59</ele>
        <time>2015-02-16T15:52:37Z</time>
      </trkpt>
      <trkpt lat="46.59627" lon="-1.83921">
        <ele>2.52</ele>
        <time>2015-02-16T15:52:40Z</time>
      </trkpt>
      <trkpt lat="46.59566" lon="-1.83809">
        <ele>1.51</ele>
        <time>2015-02-16T15:53:06Z</time>
      </trkpt>
      <trkpt lat="46.59558" lon="-1.8377">
        <ele>0.94</ele>
        <time>2015-02-16T15:53:14Z</time>
      </trkpt>
      <trkpt lat="46.59553" lon="-1.83695">
        <ele>0.88</ele>
        <time>2015-02-16T15:53:28Z</time>
      </trkpt>
      <trkpt lat="46.59561" lon="-1.83625">
        <ele>1.23</ele>
        <time>2015-02-16T15:53:41Z</time>
      </trkpt>
      <trkpt lat="46.59563" lon="-1.83581">
        <ele>1.49</ele>
        <time>2015-02-16T15:53:49Z</time>
      </trkpt>
      <trkpt lat="46.59555" lon="-1.83423">
        <ele>0.95</ele>
        <time>2015-02-16T15:54:18Z</time>
      </trkpt>
      <trkpt lat="46.59564" lon="-1.834">
        <ele>1.56</ele>
        <time>2015-02-16T15:54:23Z</time>
      </trkpt>
      <trkpt lat="46.59568" lon="-1.83384">
        <ele>2.11</ele>
        <time>2015-02-16T15:54:26Z</time>
      </trkpt>
      <trkpt lat="46.59566" lon="-1.8335">
        <ele>3.23</ele>
        <time>2015-02-16T15:54:32Z</time>
      </trkpt>
      <trkpt lat="46.59571" lon="-1.83299">
        <ele>3.91</ele>
        <time>2015-02-16T15:54:42Z</time>
      </trkpt>
      <trkpt lat="46.59566" lon="-1.83297">
        <ele>3.89</ele>
        <time>2015-02-16T15:54:43Z</time>
      </trkpt>
      <trkpt lat="46.59438" lon="-1.8338">
        <ele>1.55</ele>
        <time>2015-02-16T15:55:20Z</time>
      </trkpt>
      <trkpt lat="46.59417" lon="-1.8338">
        <ele>1.44</ele>
        <time>2015-02-16T15:55:26Z</time>
      </trkpt>
      <trkpt lat="46.59352" lon="-1.83348">
        <ele>2.1</ele>
        <time>2015-02-16T15:55:44Z</time>
      </trkpt>
      <trkpt lat="46.59322" lon="-1.83336">
        <ele>2.03</ele>
        <time>2015-02-16T15:55:53Z</time>
      </trkpt>
      <trkpt lat="46.59295" lon="-1.8333">
        <ele>1.98</ele>
        <time>2015-02-16T15:56:00Z</time>
      </trkpt>
      <trkpt lat="46.59286" lon="-1.83331">
        <ele>1.99</ele>
        <time>2015-02-16T15:56:02Z</time>
      </trkpt>
      <trkpt lat="46.59282" lon="-1.83336">
        <ele>2.01</ele>
        <time>2015-02-16T15:56:04Z</time>
      </trkpt>
      <trkpt lat="46.59279" lon="-1.83345">
        <ele>2.05</ele>
        <time>2015-02-16T15:56:06Z</time>
      </trkpt>
      <trkpt lat="46.59279" lon="-1.83398">
        <ele>2.27</ele>
        <time>2015-02-16T15:56:15Z</time>
      </trkpt>
      <trkpt lat="46.59276" lon="-1.83429">
        <ele>2.37</ele>
        <time>2015-02-16T15:56:21Z</time>
      </trkpt>
      <trkpt lat="46.59264" lon="-1.8347">
        <ele>2.59</ele>
        <time>2015-02-16T15:56:29Z</time>
      </trkpt>
      <trkpt lat="46.59243" lon="-1.83514">
        <ele>2.99</ele>
        <time>2015-02-16T15:56:39Z</time>
      </trkpt>
      <trkpt lat="46.59229" lon="-1.83523">
        <ele>2.93</ele>
        <time>2015-02-16T15:56:43Z</time>
      </trkpt>
      <trkpt lat="46.5919" lon="-1.83526">
        <ele>2.77</ele>
        <time>2015-02-16T15:56:54Z</time>
      </trkpt>
      <trkpt lat="46.59175" lon="-1.83536">
        <ele>2.62</ele>
        <time>2015-02-16T15:56:58Z</time>
      </trkpt>
      <trkpt lat="46.59125" lon="-1.83602">
        <ele>2.39</ele>
        <time>2015-02-16T15:57:16Z</time>
      </trkpt>
      <trkpt lat="46.59057" lon="-1.83728">
        <ele>2.67</ele>
        <time>2015-02-16T15:57:45Z</time>
      </trkpt>
      <trkpt lat="46.59041" lon="-1.83751">
        <ele>2.5</ele>
        <time>2015-02-16T15:57:51Z</time>
      </trkpt>
      <trkpt lat="46.59021" lon="-1.83766">
        <ele>2.57</ele>
        <time>2015-02-16T15:57:57Z</time>
      </trkpt>
      <trkpt lat="46.59012" lon="-1.83757">
        <ele>2.77</ele>
        <time>2015-02-16T15:58:00Z</time>
      </trkpt>
      <trkpt lat="46.58855" lon="-1.83825">
        <ele>4.85</ele>
        <time>2015-02-16T15:58:44Z</time>
      </trkpt>
      <trkpt lat="46.58776" lon="-1.83852">
        <ele>5.93</ele>
        <time>2015-02-16T15:59:06Z</time>
      </trkpt>
      <trkpt lat="46.58666" lon="-1.83893">
        <ele>7.3</ele>
        <time>2015-02-16T15:59:36Z</time>
      </trkpt>
      <trkpt lat="46.5864" lon="-1.83908">
        <ele>7.78</ele>
        <time>2015-02-16T15:59:44Z</time>
      </trkpt>
      <trkpt lat="46.58625" lon="-1.83928">
        <ele>7.72</ele>
        <time>2015-02-16T15:59:49Z</time>
      </trkpt>
      <trkpt lat="46.5862" lon="-1.83929">
        <ele>7.81</ele>
        <time>2015-02-16T15:59:50Z</time>
      </trkpt>
      <trkpt lat="46.58555" lon="-1.83967">
        <ele>7.98</ele>
        <time>2015-02-16T16:00:09Z</time>
      </trkpt>
      <trkpt lat="46.58539" lon="-1.83965">
        <ele>8.53</ele>
        <time>2015-02-16T16:00:13Z</time>
      </trkpt>
      <trkpt lat="46.58449" lon="-1.83899">
        <ele>13.01</ele>
        <time>2015-02-16T16:00:40Z</time>
      </trkpt>
      <trkpt lat="46.58384" lon="-1.83826">
        <ele>12.94</ele>
        <time>2015-02-16T16:01:02Z</time>
      </trkpt>
      <trkpt lat="46.58367" lon="-1.83764">
        <ele>12.67</ele>
        <time>2015-02-16T16:01:14Z</time>
      </trkpt>
      <trkpt lat="46.58341" lon="-1.83762">
        <ele>12.92</ele>
        <time>2015-02-16T16:01:21Z</time>
      </trkpt>
      <trkpt lat="46.58323" lon="-1.83755">
        <ele>12.87</ele>
        <time>2015-02-16T16:01:26Z</time>
      </trkpt>
      <trkpt lat="46.58307" lon="-1.83758">
        <ele>12.68</ele>
        <time>2015-02-16T16:01:31Z</time>
      </trkpt>
      <trkpt lat="46.58273" lon="-1.83782">
        <ele>12.28</ele>
        <time>2015-02-16T16:01:40Z</time>
      </trkpt>
      <trkpt lat="46.58258" lon="-1.83786">
        <ele>12.1</ele>
        <time>2015-02-16T16:01:44Z</time>
      </trkpt>
      <trkpt lat="46.58247" lon="-1.83772">
        <ele>12.03</ele>
        <time>2015-02-16T16:01:48Z</time>
      </trkpt>
      <trkpt lat="46.58242" lon="-1.83742">
        <ele>12.29</ele>
        <time>2015-02-16T16:01:54Z</time>
      </trkpt>
      <trkpt lat="46.58235" lon="-1.83726">
        <ele>12.71</ele>
        <time>2015-02-16T16:01:58Z</time>
      </trkpt>
      <trkpt lat="46.58226" lon="-1.83718">
        <ele>12.94</ele>
        <time>2015-02-16T16:02:00Z</time>
      </trkpt>
      <trkpt lat="46.58146" lon="-1.83707">
        <ele>14.26</ele>
        <time>2015-02-16T16:02:22Z</time>
      </trkpt>
      <trkpt lat="46.58135" lon="-1.83718">
        <ele>14.54</ele>
        <time>2015-02-16T16:02:25Z</time>
      </trkpt>
      <trkpt lat="46.58125" lon="-1.83729">
        <ele>14.74</ele>
        <time>2015-02-16T16:02:28Z</time>
      </trkpt>
      <trkpt lat="46.58114" lon="-1.83731">
        <ele>15.13</ele>
        <time>2015-02-16T16:02:32Z</time>
      </trkpt>
      <trkpt lat="46.58086" lon="-1.83704">
        <ele>16.45</ele>
        <time>2015-02-16T16:02:40Z</time>
      </trkpt>
      <trkpt lat="46.5807" lon="-1.83678">
        <ele>17.04</ele>
        <time>2015-02-16T16:02:47Z</time>
      </trkpt>
      <trkpt lat="46.58065" lon="-1.83655">
        <ele>17.08</ele>
        <time>2015-02-16T16:02:51Z</time>
      </trkpt>
      <trkpt lat="46.58043" lon="-1.83603">
        <ele>16.72</ele>
        <time>2015-02-16T16:03:03Z</time>
      </trkpt>
      <trkpt lat="46.58017" lon="-1.83473">
        <ele>17.79</ele>
        <time>2015-02-16T16:03:27Z</time>
      </trkpt>
      <trkpt lat="46.57959" lon="-1.83367">
        <ele>17.51</ele>
        <time>2015-02-16T16:03:52Z</time>
      </trkpt>
      <trkpt lat="46.57949" lon="-1.83344">
        <ele>16.98</ele>
        <time>2015-02-16T16:03:57Z</time>
      </trkpt>
      <trkpt lat="46.57927" lon="-1.83275">
        <ele>15.02</ele>
        <time>2015-02-16T16:04:11Z</time>
      </trkpt>
      <trkpt lat="46.57922" lon="-1.83251">
        <ele>14.42</ele>
        <time>2015-02-16T16:04:16Z</time>
      </trkpt>
      <trkpt lat="46.57886" lon="-1.83191">
        <ele>14.3</ele>
        <time>2015-02-16T16:04:30Z</time>
      </trkpt>
      <trkpt lat="46.57859" lon="-1.83166">
        <ele>13.63</ele>
        <time>2015-02-16T16:04:39Z</time>
      </trkpt>
      <trkpt lat="46.57846" lon="-1.83138">
        <ele>13.89</ele>
        <time>2015-02-16T16:04:45Z</time>
      </trkpt>
      <trkpt lat="46.57838" lon="-1.83111">
        <ele>14.37</ele>
        <time>2015-02-16T16:04:51Z</time>
      </trkpt>
      <trkpt lat="46.57846" lon="-1.83046">
        <ele>15.32</ele>
        <time>2015-02-16T16:05:03Z</time>
      </trkpt>
      <trkpt lat="46.57837" lon="-1.82934">
        <ele>14.31</ele>
        <time>2015-02-16T16:05:23Z</time>
      </trkpt>
      <trkpt lat="46.57829" lon="-1.82897">
        <ele>14.41</ele>
        <time>2015-02-16T16:05:30Z</time>
      </trkpt>
      <trkpt lat="46.57819" lon="-1.82866">
        <ele>15.27</ele>
        <time>2015-02-16T16:05:37Z</time>
      </trkpt>
      <trkpt lat="46.57821" lon="-1.82829">
        <ele>15.02</ele>
        <time>2015-02-16T16:05:43Z</time>
      </trkpt>
      <trkpt lat="46.57818" lon="-1.82811">
        <ele>14.91</ele>
        <time>2015-02-16T16:05:47Z</time>
      </trkpt>
      <trkpt lat="46.57815" lon="-1.82796">
        <ele>14.91</ele>
        <time>2015-02-16T16:05:50Z</time>
      </trkpt>
      <trkpt lat="46.57804" lon="-1.82769">
        <ele>15.17</ele>
        <time>2015-02-16T16:05:56Z</time>
      </trkpt>
      <trkpt lat="46.578" lon="-1.82729">
        <ele>15.33</ele>
        <time>2015-02-16T16:06:03Z</time>
      </trkpt>
      <trkpt lat="46.57779" lon="-1.82635">
        <ele>17.23</ele>
        <time>2015-02-16T16:06:21Z</time>
      </trkpt>
      <trkpt lat="46.57764" lon="-1.82576">
        <ele>17.34</ele>
        <time>2015-02-16T16:06:33Z</time>
      </trkpt>
      <trkpt lat="46.57756" lon="-1.82537">
        <ele>17.19</ele>
        <time>2015-02-16T16:06:40Z</time>
      </trkpt>
      <trkpt lat="46.57746" lon="-1.82515">
        <ele>16.92</ele>
        <time>2015-02-16T16:06:45Z</time>
      </trkpt>
      <trkpt lat="46.57685" lon="-1.82508">
        <ele>15.51</ele>
        <time>2015-02-16T16:07:01Z</time>
      </trkpt>
      <trkpt lat="46.57656" lon="-1.82493">
        <ele>15</ele>
        <time>2015-02-16T16:07:10Z</time>
      </trkpt>
      <trkpt lat="46.57641" lon="-1.82468">
        <ele>15</ele>
        <time>2015-02-16T16:07:16Z</time>
      </trkpt>
      <trkpt lat="46.57624" lon="-1.82338">
        <ele>13.6</ele>
        <time>2015-02-16T16:07:40Z</time>
      </trkpt>
      <trkpt lat="46.57635" lon="-1.82283">
        <ele>11.17</ele>
        <time>2015-02-16T16:07:51Z</time>
      </trkpt>
      <trkpt lat="46.57636" lon="-1.82259">
        <ele>10.13</ele>
        <time>2015-02-16T16:07:55Z</time>
      </trkpt>
      <trkpt lat="46.57574" lon="-1.82234">
        <ele>10.37</ele>
        <time>2015-02-16T16:08:12Z</time>
      </trkpt>
      <trkpt lat="46.5751" lon="-1.82198">
        <ele>9.94</ele>
        <time>2015-02-16T16:08:30Z</time>
      </trkpt>
      <trkpt lat="46.57457" lon="-1.82173">
        <ele>11.15</ele>
        <time>2015-02-16T16:08:45Z</time>
      </trkpt>
      <trkpt lat="46.57384" lon="-1.82126">
        <ele>11.05</ele>
        <time>2015-02-16T16:09:07Z</time>
      </trkpt>
      <trkpt lat="46.57368" lon="-1.82107">
        <ele>9.77</ele>
        <time>2015-02-16T16:09:12Z</time>
      </trkpt>
      <trkpt lat="46.57356" lon="-1.82104">
        <ele>9.14</ele>
        <time>2015-02-16T16:09:15Z</time>
      </trkpt>
      <trkpt lat="46.57344" lon="-1.82103">
        <ele>8.6</ele>
        <time>2015-02-16T16:09:19Z</time>
      </trkpt>
      <trkpt lat="46.57277" lon="-1.82122">
        <ele>9.34</ele>
        <time>2015-02-16T16:09:37Z</time>
      </trkpt>
      <trkpt lat="46.57256" lon="-1.82126">
        <ele>9.55</ele>
        <time>2015-02-16T16:09:42Z</time>
      </trkpt>
      <trkpt lat="46.57246" lon="-1.82124">
        <ele>9.68</ele>
        <time>2015-02-16T16:09:45Z</time>
      </trkpt>
      <trkpt lat="46.57235" lon="-1.82118">
        <ele>9.99</ele>
        <time>2015-02-16T16:09:48Z</time>
      </trkpt>
      <trkpt lat="46.57228" lon="-1.8211">
        <ele>10.08</ele>
        <time>2015-02-16T16:09:51Z</time>
      </trkpt>
      <trkpt lat="46.57211" lon="-1.82052">
        <ele>9.81</ele>
        <time>2015-02-16T16:10:02Z</time>
      </trkpt>
      <trkpt lat="46.57196" lon="-1.81998">
        <ele>10.02</ele>
        <time>2015-02-16T16:10:13Z</time>
      </trkpt>
      <trkpt lat="46.57162" lon="-1.8191">
        <ele>8.97</ele>
        <time>2015-02-16T16:10:31Z</time>
      </trkpt>
      <trkpt lat="46.5715" lon="-1.81892">
        <ele>8.97</ele>
        <time>2015-02-16T16:10:36Z</time>
      </trkpt>
      <trkpt lat="46.57128" lon="-1.8187">
        <ele>9.57</ele>
        <time>2015-02-16T16:10:43Z</time>
      </trkpt>
      <trkpt lat="46.57106" lon="-1.81863">
        <ele>10.81</ele>
        <time>2015-02-16T16:10:49Z</time>
      </trkpt>
      <trkpt lat="46.5706" lon="-1.81861">
        <ele>10.67</ele>
        <time>2015-02-16T16:11:01Z</time>
      </trkpt>
      <trkpt lat="46.57009" lon="-1.81867">
        <ele>7.25</ele>
        <time>2015-02-16T16:11:15Z</time>
      </trkpt>
      <trkpt lat="46.56991" lon="-1.81874">
        <ele>6.58</ele>
        <time>2015-02-16T16:11:20Z</time>
      </trkpt>
      <trkpt lat="46.56972" lon="-1.81904">
        <ele>6.85</ele>
        <time>2015-02-16T16:11:28Z</time>
      </trkpt>
      <trkpt lat="46.56946" lon="-1.81951">
        <ele>6.71</ele>
        <time>2015-02-16T16:11:39Z</time>
      </trkpt>
      <trkpt lat="46.56919" lon="-1.82044">
        <ele>12.22</ele>
        <time>2015-02-16T16:11:57Z</time>
      </trkpt>
      <trkpt lat="46.56849" lon="-1.81983">
        <ele>11.39</ele>
        <time>2015-02-16T16:12:19Z</time>
      </trkpt>
      <trkpt lat="46.56851" lon="-1.81895">
        <ele>9.24</ele>
        <time>2015-02-16T16:12:35Z</time>
      </trkpt>
      <trkpt lat="46.56844" lon="-1.81848">
        <ele>9.25</ele>
        <time>2015-02-16T16:12:44Z</time>
      </trkpt>
      <trkpt lat="46.56834" lon="-1.81812">
        <ele>8.95</ele>
        <time>2015-02-16T16:12:51Z</time>
      </trkpt>
      <trkpt lat="46.56775" lon="-1.81731">
        <ele>9.2</ele>
        <time>2015-02-16T16:13:12Z</time>
      </trkpt>
      <trkpt lat="46.56712" lon="-1.81649">
        <ele>8.08</ele>
        <time>2015-02-16T16:13:35Z</time>
      </trkpt>
      <trkpt lat="46.56675" lon="-1.81596">
        <ele>7.98</ele>
        <time>2015-02-16T16:13:49Z</time>
      </trkpt>
      <trkpt lat="46.56651" lon="-1.81496">
        <ele>6.81</ele>
        <time>2015-02-16T16:14:09Z</time>
      </trkpt>
      <trkpt lat="46.56625" lon="-1.8142">
        <ele>6.54</ele>
        <time>2015-02-16T16:14:24Z</time>
      </trkpt>
      <trkpt lat="46.56588" lon="-1.8136">
        <ele>6.89</ele>
        <time>2015-02-16T16:14:39Z</time>
      </trkpt>
      <trkpt lat="46.56513" lon="-1.81299">
        <ele>13.43</ele>
        <time>2015-02-16T16:15:02Z</time>
      </trkpt>
      <trkpt lat="46.56486" lon="-1.8125">
        <ele>12.8</ele>
        <time>2015-02-16T16:15:13Z</time>
      </trkpt>
      <trkpt lat="46.56462" lon="-1.81212">
        <ele>11.67</ele>
        <time>2015-02-16T16:15:23Z</time>
      </trkpt>
      <trkpt lat="46.5643" lon="-1.81184">
        <ele>11.95</ele>
        <time>2015-02-16T16:15:33Z</time>
      </trkpt>
      <trkpt lat="46.56413" lon="-1.81159">
        <ele>10.69</ele>
        <time>2015-02-16T16:15:39Z</time>
      </trkpt>
      <trkpt lat="46.56387" lon="-1.81103">
        <ele>9.62</ele>
        <time>2015-02-16T16:15:52Z</time>
      </trkpt>
      <trkpt lat="46.56387" lon="-1.81087">
        <ele>8.8</ele>
        <time>2015-02-16T16:15:55Z</time>
      </trkpt>
      <trkpt lat="46.56377" lon="-1.81064">
        <ele>9.08</ele>
        <time>2015-02-16T16:16:00Z</time>
      </trkpt>
      <trkpt lat="46.5636" lon="-1.81036">
        <ele>9.87</ele>
        <time>2015-02-16T16:16:06Z</time>
      </trkpt>
      <trkpt lat="46.56347" lon="-1.80996">
        <ele>9.45</ele>
        <time>2015-02-16T16:16:15Z</time>
      </trkpt>
      <trkpt lat="46.56296" lon="-1.80987">
        <ele>10.78</ele>
        <time>2015-02-16T16:16:28Z</time>
      </trkpt>
      <trkpt lat="46.56202" lon="-1.80993">
        <ele>8.52</ele>
        <time>2015-02-16T16:16:53Z</time>
      </trkpt>
      <trkpt lat="46.56175" lon="-1.81007">
        <ele>7.29</ele>
        <time>2015-02-16T16:17:01Z</time>
      </trkpt>
      <trkpt lat="46.56157" lon="-1.81066">
        <ele>11.01</ele>
        <time>2015-02-16T16:17:13Z</time>
      </trkpt>
      <trkpt lat="46.56148" lon="-1.81077">
        <ele>11.37</ele>
        <time>2015-02-16T16:17:16Z</time>
      </trkpt>
      <trkpt lat="46.56131" lon="-1.81069">
        <ele>9.9</ele>
        <time>2015-02-16T16:17:20Z</time>
      </trkpt>
      <trkpt lat="46.56056" lon="-1.80994">
        <ele>4.26</ele>
        <time>2015-02-16T16:17:45Z</time>
      </trkpt>
      <trkpt lat="46.56002" lon="-1.80958">
        <ele>4.47</ele>
        <time>2015-02-16T16:18:01Z</time>
      </trkpt>
      <trkpt lat="46.5592" lon="-1.80912">
        <ele>5.86</ele>
        <time>2015-02-16T16:18:24Z</time>
      </trkpt>
      <trkpt lat="46.5587" lon="-1.80866">
        <ele>5.62</ele>
        <time>2015-02-16T16:18:40Z</time>
      </trkpt>
      <trkpt lat="46.55844" lon="-1.80864">
        <ele>5.68</ele>
        <time>2015-02-16T16:18:47Z</time>
      </trkpt>
      <trkpt lat="46.55795" lon="-1.80871">
        <ele>5.7</ele>
        <time>2015-02-16T16:19:00Z</time>
      </trkpt>
      <trkpt lat="46.55779" lon="-1.80876">
        <ele>5.68</ele>
        <time>2015-02-16T16:19:05Z</time>
      </trkpt>
      <trkpt lat="46.55654" lon="-1.81087">
        <ele>7.61</ele>
        <time>2015-02-16T16:19:56Z</time>
      </trkpt>
      <trkpt lat="46.55655" lon="-1.81125">
        <ele>8.5</ele>
        <time>2015-02-16T16:20:03Z</time>
      </trkpt>
      <trkpt lat="46.5559" lon="-1.81272">
        <ele>7.48</ele>
        <time>2015-02-16T16:20:35Z</time>
      </trkpt>
      <trkpt lat="46.55619" lon="-1.81328">
        <ele>9.97</ele>
        <time>2015-02-16T16:20:48Z</time>
      </trkpt>
      <trkpt lat="46.55645" lon="-1.81396">
        <ele>14.26</ele>
        <time>2015-02-16T16:21:02Z</time>
      </trkpt>
      <trkpt lat="46.55482" lon="-1.81611">
        <ele>12.58</ele>
        <time>2015-02-16T16:22:01Z</time>
      </trkpt>
      <trkpt lat="46.55397" lon="-1.81667">
        <ele>14.87</ele>
        <time>2015-02-16T16:22:25Z</time>
      </trkpt>
      <trkpt lat="46.55327" lon="-1.81631">
        <ele>8.02</ele>
        <time>2015-02-16T16:22:45Z</time>
      </trkpt>
      <trkpt lat="46.55135" lon="-1.81892">
        <ele>14.19</ele>
        <time>2015-02-16T16:23:56Z</time>
      </trkpt>
      <trkpt lat="46.55082" lon="-1.81813">
        <ele>12.58</ele>
        <time>2015-02-16T16:24:16Z</time>
      </trkpt>
      <trkpt lat="46.55072" lon="-1.81606">
        <ele>6.45</ele>
        <time>2015-02-16T16:24:54Z</time>
      </trkpt>
      <trkpt lat="46.54811" lon="-1.81212">
        <ele>10.92</ele>
        <time>2015-02-16T16:26:34Z</time>
      </trkpt>
      <trkpt lat="46.54712" lon="-1.81119">
        <ele>11.63</ele>
        <time>2015-02-16T16:27:06Z</time>
      </trkpt>
      <trkpt lat="46.5462" lon="-1.81065">
        <ele>10.65</ele>
        <time>2015-02-16T16:27:32Z</time>
      </trkpt>
      <trkpt lat="46.54574" lon="-1.8103">
        <ele>8.39</ele>
        <time>2015-02-16T16:27:46Z</time>
      </trkpt>
      <trkpt lat="46.54559" lon="-1.81017">
        <ele>7.13</ele>
        <time>2015-02-16T16:27:51Z</time>
      </trkpt>
      <trkpt lat="46.5454" lon="-1.80991">
        <ele>5.25</ele>
        <time>2015-02-16T16:27:58Z</time>
      </trkpt>
      <trkpt lat="46.54535" lon="-1.81007">
        <ele>6.34</ele>
        <time>2015-02-16T16:28:01Z</time>
      </trkpt>
      <trkpt lat="46.5453" lon="-1.81014">
        <ele>7.12</ele>
        <time>2015-02-16T16:28:03Z</time>
      </trkpt>
      <trkpt lat="46.54522" lon="-1.81019">
        <ele>7.75</ele>
        <time>2015-02-16T16:28:05Z</time>
      </trkpt>
      <trkpt lat="46.5451" lon="-1.81021">
        <ele>8.12</ele>
        <time>2015-02-16T16:28:08Z</time>
      </trkpt>
      <trkpt lat="46.54468" lon="-1.81015">
        <ele>7.25</ele>
        <time>2015-02-16T16:28:20Z</time>
      </trkpt>
      <trkpt lat="46.54454" lon="-1.81017">
        <ele>7.24</ele>
        <time>2015-02-16T16:28:23Z</time>
      </trkpt>
      <trkpt lat="46.54436" lon="-1.81023">
        <ele>7.43</ele>
        <time>2015-02-16T16:28:28Z</time>
      </trkpt>
      <trkpt lat="46.54418" lon="-1.81035">
        <ele>7.71</ele>
        <time>2015-02-16T16:28:33Z</time>
      </trkpt>
      <trkpt lat="46.5441" lon="-1.81042">
        <ele>7.74</ele>
        <time>2015-02-16T16:28:36Z</time>
      </trkpt>
      <trkpt lat="46.54415" lon="-1.81063">
        <ele>8.97</ele>
        <time>2015-02-16T16:28:40Z</time>
      </trkpt>
      <trkpt lat="46.54416" lon="-1.81063">
        <ele>9</ele>
        <time>2015-02-16T16:28:40Z</time>
      </trkpt>
      <trkpt lat="46.54413" lon="-1.81048">
        <ele>8.16</ele>
        <time>2015-02-16T16:28:43Z</time>
      </trkpt>
      <trkpt lat="46.54421" lon="-1.81043">
        <ele>8.17</ele>
        <time>2015-02-16T16:28:46Z</time>
      </trkpt>
      <trkpt lat="46.54417" lon="-1.8103">
        <ele>7.42</ele>
        <time>2015-02-16T16:28:48Z</time>
      </trkpt>
      <trkpt lat="46.54401" lon="-1.80989">
        <ele>5.18</ele>
        <time>2015-02-16T16:28:57Z</time>
      </trkpt>
      <trkpt lat="46.54386" lon="-1.80975">
        <ele>4.42</ele>
        <time>2015-02-16T16:29:01Z</time>
      </trkpt>
      <trkpt lat="46.54376" lon="-1.80949">
        <ele>3.61</ele>
        <time>2015-02-16T16:29:07Z</time>
      </trkpt>
      <trkpt lat="46.5437" lon="-1.80922">
        <ele>2.98</ele>
        <time>2015-02-16T16:29:12Z</time>
      </trkpt>
      <trkpt lat="46.54368" lon="-1.80838">
        <ele>1.88</ele>
        <time>2015-02-16T16:29:28Z</time>
      </trkpt>
      <trkpt lat="46.54362" lon="-1.80822">
        <ele>1.57</ele>
        <time>2015-02-16T16:29:31Z</time>
      </trkpt>
      <trkpt lat="46.54351" lon="-1.80804">
        <ele>1.08</ele>
        <time>2015-02-16T16:29:35Z</time>
      </trkpt>
      <trkpt lat="46.54348" lon="-1.80759">
        <ele>0.45</ele>
        <time>2015-02-16T16:29:44Z</time>
      </trkpt>
      <trkpt lat="46.54349" lon="-1.80717">
        <ele>0.62</ele>
        <time>2015-02-16T16:29:51Z</time>
      </trkpt>
      <trkpt lat="46.54351" lon="-1.80704">
        <ele>0.74</ele>
        <time>2015-02-16T16:29:54Z</time>
      </trkpt>
      <trkpt lat="46.54365" lon="-1.80672">
        <ele>0.98</ele>
        <time>2015-02-16T16:30:01Z</time>
      </trkpt>
      <trkpt lat="46.54368" lon="-1.80661">
        <ele>1.07</ele>
        <time>2015-02-16T16:30:03Z</time>
      </trkpt>
      <trkpt lat="46.54367" lon="-1.80625">
        <ele>1.5</ele>
        <time>2015-02-16T16:30:10Z</time>
      </trkpt>
      <trkpt lat="46.54361" lon="-1.80596">
        <ele>1.84</ele>
        <time>2015-02-16T16:30:15Z</time>
      </trkpt>
      <trkpt lat="46.54353" lon="-1.8058">
        <ele>2.01</ele>
        <time>2015-02-16T16:30:19Z</time>
      </trkpt>
      <trkpt lat="46.54348" lon="-1.80567">
        <ele>2.04</ele>
        <time>2015-02-16T16:30:22Z</time>
      </trkpt>
      <trkpt lat="46.54341" lon="-1.80521">
        <ele>2.07</ele>
        <time>2015-02-16T16:30:30Z</time>
      </trkpt>
      <trkpt lat="46.54338" lon="-1.80477">
        <ele>2.06</ele>
        <time>2015-02-16T16:30:38Z</time>
      </trkpt>
      <trkpt lat="46.54335" lon="-1.80467">
        <ele>2.02</ele>
        <time>2015-02-16T16:30:40Z</time>
      </trkpt>
      <trkpt lat="46.54321" lon="-1.80432">
        <ele>1.72</ele>
        <time>2015-02-16T16:30:48Z</time>
      </trkpt>
      <trkpt lat="46.54319" lon="-1.80423">
        <ele>1.66</ele>
        <time>2015-02-16T16:30:50Z</time>
      </trkpt>
      <trkpt lat="46.54319" lon="-1.80412">
        <ele>1.67</ele>
        <time>2015-02-16T16:30:52Z</time>
      </trkpt>
      <trkpt lat="46.54316" lon="-1.80377">
        <ele>1.59</ele>
        <time>2015-02-16T16:30:58Z</time>
      </trkpt>
      <trkpt lat="46.54309" lon="-1.80353">
        <ele>1.43</ele>
        <time>2015-02-16T16:31:03Z</time>
      </trkpt>
      <trkpt lat="46.54299" lon="-1.80328">
        <ele>1.28</ele>
        <time>2015-02-16T16:31:08Z</time>
      </trkpt>
      <trkpt lat="46.54297" lon="-1.80314">
        <ele>1.46</ele>
        <time>2015-02-16T16:31:11Z</time>
      </trkpt>
      <trkpt lat="46.54296" lon="-1.80288">
        <ele>1.88</ele>
        <time>2015-02-16T16:31:16Z</time>
      </trkpt>
      <trkpt lat="46.54301" lon="-1.80276">
        <ele>2.17</ele>
        <time>2015-02-16T16:31:18Z</time>
      </trkpt>
      <trkpt lat="46.54302" lon="-1.80261">
        <ele>2.45</ele>
        <time>2015-02-16T16:31:21Z</time>
      </trkpt>
      <trkpt lat="46.54294" lon="-1.80233">
        <ele>2.62</ele>
        <time>2015-02-16T16:31:27Z</time>
      </trkpt>
      <trkpt lat="46.54303" lon="-1.80218">
        <ele>2.77</ele>
        <time>2015-02-16T16:31:30Z</time>
      </trkpt>
      <trkpt lat="46.54308" lon="-1.80199">
        <ele>2.88</ele>
        <time>2015-02-16T16:31:34Z</time>
      </trkpt>
      <trkpt lat="46.54273" lon="-1.8015">
        <ele>3.06</ele>
        <time>2015-02-16T16:31:47Z</time>
      </trkpt>
      <trkpt lat="46.54242" lon="-1.80175">
        <ele>2.79</ele>
        <time>2015-02-16T16:31:57Z</time>
      </trkpt>
      <trkpt lat="46.54212" lon="-1.80197">
        <ele>2.01</ele>
        <time>2015-02-16T16:32:06Z</time>
      </trkpt>
      <trkpt lat="46.54196" lon="-1.80205">
        <ele>1.59</ele>
        <time>2015-02-16T16:32:10Z</time>
      </trkpt>
      <trkpt lat="46.54174" lon="-1.80207">
        <ele>1.16</ele>
        <time>2015-02-16T16:32:16Z</time>
      </trkpt>
      <trkpt lat="46.54145" lon="-1.80206">
        <ele>1.18</ele>
        <time>2015-02-16T16:32:24Z</time>
      </trkpt>
      <trkpt lat="46.54092" lon="-1.80189">
        <ele>1.7</ele>
        <time>2015-02-16T16:32:38Z</time>
      </trkpt>
      <trkpt lat="46.5406" lon="-1.80187">
        <ele>1.76</ele>
        <time>2015-02-16T16:32:47Z</time>
      </trkpt>
      <trkpt lat="46.5403" lon="-1.80187">
        <ele>1.76</ele>
        <time>2015-02-16T16:32:55Z</time>
      </trkpt>
      <trkpt lat="46.54024" lon="-1.80194">
        <ele>1.67</ele>
        <time>2015-02-16T16:32:57Z</time>
      </trkpt>
      <trkpt lat="46.54015" lon="-1.80215">
        <ele>1.43</ele>
        <time>2015-02-16T16:33:01Z</time>
      </trkpt>
      <trkpt lat="46.53952" lon="-1.80297">
        <ele>0.76</ele>
        <time>2015-02-16T16:33:24Z</time>
      </trkpt>
      <trkpt lat="46.53786" lon="-1.80417">
        <ele>2.7</ele>
        <time>2015-02-16T16:34:13Z</time>
      </trkpt>
      <trkpt lat="46.53648" lon="-1.80474">
        <ele>0.47</ele>
        <time>2015-02-16T16:34:52Z</time>
      </trkpt>
      <trkpt lat="46.53436" lon="-1.80631">
        <ele>0.78</ele>
        <time>2015-02-16T16:35:55Z</time>
      </trkpt>
      <trkpt lat="46.53422" lon="-1.80594">
        <ele>0.17</ele>
        <time>2015-02-16T16:36:03Z</time>
      </trkpt>
      <trkpt lat="46.53412" lon="-1.80604">
        <ele>0.57</ele>
        <time>2015-02-16T16:36:06Z</time>
      </trkpt>
      <trkpt lat="46.53379" lon="-1.80626">
        <ele>1.47</ele>
        <time>2015-02-16T16:36:16Z</time>
      </trkpt>
      <trkpt lat="46.53333" lon="-1.80665">
        <ele>1.98</ele>
        <time>2015-02-16T16:36:30Z</time>
      </trkpt>
      <trkpt lat="46.53296" lon="-1.80692">
        <ele>0.77</ele>
        <time>2015-02-16T16:36:41Z</time>
      </trkpt>
      <trkpt lat="46.53281" lon="-1.80707">
        <ele>0.38</ele>
        <time>2015-02-16T16:36:46Z</time>
      </trkpt>
      <trkpt lat="46.53245" lon="-1.80733">
        <ele>0.13</ele>
        <time>2015-02-16T16:36:57Z</time>
      </trkpt>
      <trkpt lat="46.53212" lon="-1.80753">
        <ele>0.88</ele>
        <time>2015-02-16T16:37:06Z</time>
      </trkpt>
      <trkpt lat="46.53145" lon="-1.80798">
        <ele>1.37</ele>
        <time>2015-02-16T16:37:26Z</time>
      </trkpt>
      <trkpt lat="46.53095" lon="-1.80835">
        <ele>1.7</ele>
        <time>2015-02-16T16:37:41Z</time>
      </trkpt>
      <trkpt lat="46.5305" lon="-1.80865">
        <ele>1.63</ele>
        <time>2015-02-16T16:37:54Z</time>
      </trkpt>
      <trkpt lat="46.5304" lon="-1.80876">
        <ele>1.49</ele>
        <time>2015-02-16T16:37:58Z</time>
      </trkpt>
      <trkpt lat="46.53022" lon="-1.80889">
        <ele>1.33</ele>
        <time>2015-02-16T16:38:03Z</time>
      </trkpt>
      <trkpt lat="46.53015" lon="-1.80892">
        <ele>1.3</ele>
        <time>2015-02-16T16:38:05Z</time>
      </trkpt>
      <trkpt lat="46.52974" lon="-1.80886">
        <ele>1.68</ele>
        <time>2015-02-16T16:38:16Z</time>
      </trkpt>
      <trkpt lat="46.52964" lon="-1.80887">
        <ele>1.79</ele>
        <time>2015-02-16T16:38:19Z</time>
      </trkpt>
      <trkpt lat="46.52951" lon="-1.80885">
        <ele>1.97</ele>
        <time>2015-02-16T16:38:22Z</time>
      </trkpt>
      <trkpt lat="46.52926" lon="-1.80876">
        <ele>2.38</ele>
        <time>2015-02-16T16:38:29Z</time>
      </trkpt>
      <trkpt lat="46.52907" lon="-1.80875">
        <ele>2.5</ele>
        <time>2015-02-16T16:38:34Z</time>
      </trkpt>
      <trkpt lat="46.52904" lon="-1.80872">
        <ele>2.53</ele>
        <time>2015-02-16T16:38:35Z</time>
      </trkpt>
      <trkpt lat="46.52901" lon="-1.80864">
        <ele>2.63</ele>
        <time>2015-02-16T16:38:37Z</time>
      </trkpt>
      <trkpt lat="46.52901" lon="-1.80852">
        <ele>2.77</ele>
        <time>2015-02-16T16:38:39Z</time>
      </trkpt>
      <trkpt lat="46.529" lon="-1.80841">
        <ele>2.91</ele>
        <time>2015-02-16T16:38:41Z</time>
      </trkpt>
      <trkpt lat="46.52887" lon="-1.80812">
        <ele>3.26</ele>
        <time>2015-02-16T16:38:48Z</time>
      </trkpt>
      <trkpt lat="46.52857" lon="-1.80775">
        <ele>3.7</ele>
        <time>2015-02-16T16:38:58Z</time>
      </trkpt>
      <trkpt lat="46.52851" lon="-1.80772">
        <ele>3.74</ele>
        <time>2015-02-16T16:39:00Z</time>
      </trkpt>
      <trkpt lat="46.5282" lon="-1.80762">
        <ele>3.55</ele>
        <time>2015-02-16T16:39:08Z</time>
      </trkpt>
      <trkpt lat="46.52811" lon="-1.80756">
        <ele>3.42</ele>
        <time>2015-02-16T16:39:11Z</time>
      </trkpt>
      <trkpt lat="46.52809" lon="-1.80752">
        <ele>3.4</ele>
        <time>2015-02-16T16:39:12Z</time>
      </trkpt>
      <trkpt lat="46.52807" lon="-1.80725">
        <ele>3.36</ele>
        <time>2015-02-16T16:39:17Z</time>
      </trkpt>
      <trkpt lat="46.52803" lon="-1.807">
        <ele>3.33</ele>
        <time>2015-02-16T16:39:21Z</time>
      </trkpt>
      <trkpt lat="46.52798" lon="-1.80684">
        <ele>3.37</ele>
        <time>2015-02-16T16:39:25Z</time>
      </trkpt>
      <trkpt lat="46.52793" lon="-1.80677">
        <ele>3.43</ele>
        <time>2015-02-16T16:39:27Z</time>
      </trkpt>
      <trkpt lat="46.52792" lon="-1.80671">
        <ele>3.47</ele>
        <time>2015-02-16T16:39:28Z</time>
      </trkpt>
      <trkpt lat="46.52791" lon="-1.80664">
        <ele>3.51</ele>
        <time>2015-02-16T16:39:29Z</time>
      </trkpt>
      <trkpt lat="46.52794" lon="-1.80632">
        <ele>3.47</ele>
        <time>2015-02-16T16:39:35Z</time>
      </trkpt>
      <trkpt lat="46.52791" lon="-1.80612">
        <ele>3.51</ele>
        <time>2015-02-16T16:39:39Z</time>
      </trkpt>
      <trkpt lat="46.5279" lon="-1.80609">
        <ele>3.52</ele>
        <time>2015-02-16T16:39:39Z</time>
      </trkpt>
      <trkpt lat="46.52782" lon="-1.80605">
        <ele>3.61</ele>
        <time>2015-02-16T16:39:41Z</time>
      </trkpt>
      <trkpt lat="46.52777" lon="-1.80614">
        <ele>3.68</ele>
        <time>2015-02-16T16:39:44Z</time>
      </trkpt>
      <trkpt lat="46.52759" lon="-1.80629">
        <ele>3.89</ele>
        <time>2015-02-16T16:39:49Z</time>
      </trkpt>
      <trkpt lat="46.52718" lon="-1.80656">
        <ele>2.94</ele>
        <time>2015-02-16T16:40:01Z</time>
      </trkpt>
      <trkpt lat="46.52696" lon="-1.80667">
        <ele>2.04</ele>
        <time>2015-02-16T16:40:07Z</time>
      </trkpt>
      <trkpt lat="46.52662" lon="-1.80676">
        <ele>1.18</ele>
        <time>2015-02-16T16:40:17Z</time>
      </trkpt>
      <trkpt lat="46.52605" lon="-1.80673">
        <ele>3.17</ele>
        <time>2015-02-16T16:40:32Z</time>
      </trkpt>
      <trkpt lat="46.52588" lon="-1.80675">
        <ele>3.75</ele>
        <time>2015-02-16T16:40:36Z</time>
      </trkpt>
      <trkpt lat="46.52537" lon="-1.80685">
        <ele>3.65</ele>
        <time>2015-02-16T16:40:50Z</time>
      </trkpt>
      <trkpt lat="46.52522" lon="-1.80691">
        <ele>3.5</ele>
        <time>2015-02-16T16:40:54Z</time>
      </trkpt>
      <trkpt lat="46.52515" lon="-1.80696">
        <ele>3.35</ele>
        <time>2015-02-16T16:40:56Z</time>
      </trkpt>
      <trkpt lat="46.52509" lon="-1.80708">
        <ele>3.07</ele>
        <time>2015-02-16T16:40:59Z</time>
      </trkpt>
      <trkpt lat="46.52504" lon="-1.80748">
        <ele>2.1</ele>
        <time>2015-02-16T16:41:06Z</time>
      </trkpt>
      <trkpt lat="46.52502" lon="-1.80755">
        <ele>2.02</ele>
        <time>2015-02-16T16:41:08Z</time>
      </trkpt>
      <trkpt lat="46.52498" lon="-1.80761">
        <ele>1.97</ele>
        <time>2015-02-16T16:41:09Z</time>
      </trkpt>
      <trkpt lat="46.52491" lon="-1.80763">
        <ele>1.87</ele>
        <time>2015-02-16T16:41:11Z</time>
      </trkpt>
      <trkpt lat="46.52486" lon="-1.80762">
        <ele>1.81</ele>
        <time>2015-02-16T16:41:13Z</time>
      </trkpt>
      <trkpt lat="46.52448" lon="-1.80747">
        <ele>1.43</ele>
        <time>2015-02-16T16:41:23Z</time>
      </trkpt>
      <trkpt lat="46.52441" lon="-1.80747">
        <ele>1.35</ele>
        <time>2015-02-16T16:41:25Z</time>
      </trkpt>
      <trkpt lat="46.52435" lon="-1.80749">
        <ele>1.24</ele>
        <time>2015-02-16T16:41:27Z</time>
      </trkpt>
      <trkpt lat="46.52438" lon="-1.80766">
        <ele>1.1</ele>
        <time>2015-02-16T16:41:30Z</time>
      </trkpt>
      <trkpt lat="46.5243" lon="-1.80886">
        <ele>1.38</ele>
        <time>2015-02-16T16:41:52Z</time>
      </trkpt>
      <trkpt lat="46.52409" lon="-1.81145">
        <ele>11.79</ele>
        <time>2015-02-16T16:42:40Z</time>
      </trkpt>
      <trkpt lat="46.52394" lon="-1.81211">
        <ele>14.86</ele>
        <time>2015-02-16T16:42:53Z</time>
      </trkpt>
      <trkpt lat="46.52382" lon="-1.8132">
        <ele>16.81</ele>
        <time>2015-02-16T16:43:13Z</time>
      </trkpt>
      <trkpt lat="46.52374" lon="-1.81333">
        <ele>16.99</ele>
        <time>2015-02-16T16:43:16Z</time>
      </trkpt>
      <trkpt lat="46.52332" lon="-1.81346">
        <ele>16.99</ele>
        <time>2015-02-16T16:43:27Z</time>
      </trkpt>
      <trkpt lat="46.52278" lon="-1.81339">
        <ele>16.38</ele>
        <time>2015-02-16T16:43:42Z</time>
      </trkpt>
      <trkpt lat="46.52234" lon="-1.81346">
        <ele>16.32</ele>
        <time>2015-02-16T16:43:54Z</time>
      </trkpt>
      <trkpt lat="46.52213" lon="-1.81337">
        <ele>16.47</ele>
        <time>2015-02-16T16:44:00Z</time>
      </trkpt>
      <trkpt lat="46.52195" lon="-1.81301">
        <ele>17.17</ele>
        <time>2015-02-16T16:44:08Z</time>
      </trkpt>
      <trkpt lat="46.52135" lon="-1.81276">
        <ele>18.3</ele>
        <time>2015-02-16T16:44:25Z</time>
      </trkpt>
      <trkpt lat="46.52112" lon="-1.81238">
        <ele>18.6</ele>
        <time>2015-02-16T16:44:34Z</time>
      </trkpt>
      <trkpt lat="46.52063" lon="-1.81291">
        <ele>18.64</ele>
        <time>2015-02-16T16:44:50Z</time>
      </trkpt>
      <trkpt lat="46.52027" lon="-1.81292">
        <ele>17.14</ele>
        <time>2015-02-16T16:45:00Z</time>
      </trkpt>
      <trkpt lat="46.51965" lon="-1.81304">
        <ele>16.24</ele>
        <time>2015-02-16T16:45:16Z</time>
      </trkpt>
      <trkpt lat="46.51937" lon="-1.81304">
        <ele>16.68</ele>
        <time>2015-02-16T16:45:24Z</time>
      </trkpt>
      <trkpt lat="46.51907" lon="-1.81291">
        <ele>17.58</ele>
        <time>2015-02-16T16:45:32Z</time>
      </trkpt>
      <trkpt lat="46.51861" lon="-1.81232">
        <ele>20.63</ele>
        <time>2015-02-16T16:45:49Z</time>
      </trkpt>
      <trkpt lat="46.51846" lon="-1.81162">
        <ele>19.61</ele>
        <time>2015-02-16T16:46:02Z</time>
      </trkpt>
      <trkpt lat="46.51824" lon="-1.81133">
        <ele>19.21</ele>
        <time>2015-02-16T16:46:10Z</time>
      </trkpt>
      <trkpt lat="46.51806" lon="-1.81087">
        <ele>18.7</ele>
        <time>2015-02-16T16:46:20Z</time>
      </trkpt>
      <trkpt lat="46.51797" lon="-1.81029">
        <ele>18.95</ele>
        <time>2015-02-16T16:46:31Z</time>
      </trkpt>
      <trkpt lat="46.51777" lon="-1.80996">
        <ele>18.69</ele>
        <time>2015-02-16T16:46:39Z</time>
      </trkpt>
      <trkpt lat="46.51724" lon="-1.80967">
        <ele>15.19</ele>
        <time>2015-02-16T16:46:54Z</time>
      </trkpt>
      <trkpt lat="46.51708" lon="-1.80966">
        <ele>14.56</ele>
        <time>2015-02-16T16:46:58Z</time>
      </trkpt>
      <trkpt lat="46.51687" lon="-1.80975">
        <ele>14.76</ele>
        <time>2015-02-16T16:47:04Z</time>
      </trkpt>
      <trkpt lat="46.5168" lon="-1.80972">
        <ele>14.12</ele>
        <time>2015-02-16T16:47:06Z</time>
      </trkpt>
      <trkpt lat="46.5165" lon="-1.80978">
        <ele>14.34</ele>
        <time>2015-02-16T16:47:14Z</time>
      </trkpt>
      <trkpt lat="46.51632" lon="-1.80995">
        <ele>16.08</ele>
        <time>2015-02-16T16:47:20Z</time>
      </trkpt>
      <trkpt lat="46.51591" lon="-1.81002">
        <ele>16.31</ele>
        <time>2015-02-16T16:47:31Z</time>
      </trkpt>
      <trkpt lat="46.51546" lon="-1.80977">
        <ele>16.82</ele>
        <time>2015-02-16T16:47:44Z</time>
      </trkpt>
      <trkpt lat="46.51518" lon="-1.80982">
        <ele>19.08</ele>
        <time>2015-02-16T16:47:51Z</time>
      </trkpt>
      <trkpt lat="46.51446" lon="-1.81071">
        <ele>19.41</ele>
        <time>2015-02-16T16:48:16Z</time>
      </trkpt>
      <trkpt lat="46.51424" lon="-1.8114">
        <ele>18.18</ele>
        <time>2015-02-16T16:48:30Z</time>
      </trkpt>
      <trkpt lat="46.51331" lon="-1.81282">
        <ele>16.56</ele>
        <time>2015-02-16T16:49:06Z</time>
      </trkpt>
      <trkpt lat="46.51209" lon="-1.81372">
        <ele>15.99</ele>
        <time>2015-02-16T16:49:43Z</time>
      </trkpt>
      <trkpt lat="46.51197" lon="-1.81375">
        <ele>16.27</ele>
        <time>2015-02-16T16:49:46Z</time>
      </trkpt>
      <trkpt lat="46.51186" lon="-1.81368">
        <ele>16.55</ele>
        <time>2015-02-16T16:49:49Z</time>
      </trkpt>
      <trkpt lat="46.51175" lon="-1.81363">
        <ele>16.8</ele>
        <time>2015-02-16T16:49:52Z</time>
      </trkpt>
      <trkpt lat="46.51163" lon="-1.81345">
        <ele>16.9</ele>
        <time>2015-02-16T16:49:57Z</time>
      </trkpt>
      <trkpt lat="46.51145" lon="-1.81333">
        <ele>16.48</ele>
        <time>2015-02-16T16:50:02Z</time>
      </trkpt>
      <trkpt lat="46.51131" lon="-1.81343">
        <ele>16.08</ele>
        <time>2015-02-16T16:50:07Z</time>
      </trkpt>
      <trkpt lat="46.51124" lon="-1.81356">
        <ele>15.84</ele>
        <time>2015-02-16T16:50:09Z</time>
      </trkpt>
      <trkpt lat="46.51113" lon="-1.81404">
        <ele>15.17</ele>
        <time>2015-02-16T16:50:19Z</time>
      </trkpt>
      <trkpt lat="46.51109" lon="-1.81448">
        <ele>14.82</ele>
        <time>2015-02-16T16:50:27Z</time>
      </trkpt>
      <trkpt lat="46.51098" lon="-1.81517">
        <ele>14.11</ele>
        <time>2015-02-16T16:50:40Z</time>
      </trkpt>
      <trkpt lat="46.51094" lon="-1.81555">
        <ele>13.52</ele>
        <time>2015-02-16T16:50:47Z</time>
      </trkpt>
      <trkpt lat="46.51091" lon="-1.81567">
        <ele>13.3</ele>
        <time>2015-02-16T16:50:49Z</time>
      </trkpt>
      <trkpt lat="46.51067" lon="-1.81609">
        <ele>11.72</ele>
        <time>2015-02-16T16:50:59Z</time>
      </trkpt>
      <trkpt lat="46.51059" lon="-1.81635">
        <ele>10.95</ele>
        <time>2015-02-16T16:51:05Z</time>
      </trkpt>
      <trkpt lat="46.51036" lon="-1.81757">
        <ele>7.96</ele>
        <time>2015-02-16T16:51:28Z</time>
      </trkpt>
      <trkpt lat="46.51034" lon="-1.81842">
        <ele>2.95</ele>
        <time>2015-02-16T16:51:43Z</time>
      </trkpt>
      <trkpt lat="46.5103" lon="-1.81852">
        <ele>2.76</ele>
        <time>2015-02-16T16:51:46Z</time>
      </trkpt>
      <trkpt lat="46.51027" lon="-1.81854">
        <ele>2.76</ele>
        <time>2015-02-16T16:51:46Z</time>
      </trkpt>
      <trkpt lat="46.51021" lon="-1.81854">
        <ele>2.88</ele>
        <time>2015-02-16T16:51:48Z</time>
      </trkpt>
      <trkpt lat="46.50984" lon="-1.81842">
        <ele>3.15</ele>
        <time>2015-02-16T16:51:58Z</time>
      </trkpt>
      <trkpt lat="46.50965" lon="-1.81829">
        <ele>2.96</ele>
        <time>2015-02-16T16:52:04Z</time>
      </trkpt>
      <trkpt lat="46.50928" lon="-1.81807">
        <ele>2.65</ele>
        <time>2015-02-16T16:52:15Z</time>
      </trkpt>
      <trkpt lat="46.50898" lon="-1.81797">
        <ele>2.32</ele>
        <time>2015-02-16T16:52:23Z</time>
      </trkpt>
      <trkpt lat="46.50881" lon="-1.81787">
        <ele>2.33</ele>
        <time>2015-02-16T16:52:28Z</time>
      </trkpt>
      <trkpt lat="46.50843" lon="-1.81752">
        <ele>2.29</ele>
        <time>2015-02-16T16:52:40Z</time>
      </trkpt>
      <trkpt lat="46.50822" lon="-1.81739">
        <ele>2.14</ele>
        <time>2015-02-16T16:52:46Z</time>
      </trkpt>
      <trkpt lat="46.5079" lon="-1.81727">
        <ele>1.94</ele>
        <time>2015-02-16T16:52:55Z</time>
      </trkpt>
      <trkpt lat="46.50761" lon="-1.81721">
        <ele>1.62</ele>
        <time>2015-02-16T16:53:02Z</time>
      </trkpt>
      <trkpt lat="46.5074" lon="-1.8172">
        <ele>1.3</ele>
        <time>2015-02-16T16:53:08Z</time>
      </trkpt>
      <trkpt lat="46.50733" lon="-1.81719">
        <ele>1.31</ele>
        <time>2015-02-16T16:53:10Z</time>
      </trkpt>
      <trkpt lat="46.50711" lon="-1.81707">
        <ele>1.59</ele>
        <time>2015-02-16T16:53:16Z</time>
      </trkpt>
      <trkpt lat="46.50663" lon="-1.81691">
        <ele>1.84</ele>
        <time>2015-02-16T16:53:29Z</time>
      </trkpt>
      <trkpt lat="46.50638" lon="-1.81687">
        <ele>1.86</ele>
        <time>2015-02-16T16:53:36Z</time>
      </trkpt>
      <trkpt lat="46.50616" lon="-1.8169">
        <ele>1.63</ele>
        <time>2015-02-16T16:53:42Z</time>
      </trkpt>
      <trkpt lat="46.50608" lon="-1.81687">
        <ele>1.65</ele>
        <time>2015-02-16T16:53:44Z</time>
      </trkpt>
      <trkpt lat="46.50602" lon="-1.81682">
        <ele>1.76</ele>
        <time>2015-02-16T16:53:46Z</time>
      </trkpt>
      <trkpt lat="46.50579" lon="-1.81649">
        <ele>2.59</ele>
        <time>2015-02-16T16:53:55Z</time>
      </trkpt>
      <trkpt lat="46.50535" lon="-1.81606">
        <ele>4.01</ele>
        <time>2015-02-16T16:54:09Z</time>
      </trkpt>
      <trkpt lat="46.50521" lon="-1.81587">
        <ele>4.83</ele>
        <time>2015-02-16T16:54:14Z</time>
      </trkpt>
      <trkpt lat="46.50515" lon="-1.8158">
        <ele>5.05</ele>
        <time>2015-02-16T16:54:16Z</time>
      </trkpt>
      <trkpt lat="46.50481" lon="-1.81553">
        <ele>4.98</ele>
        <time>2015-02-16T16:54:26Z</time>
      </trkpt>
      <trkpt lat="46.5046" lon="-1.81539">
        <ele>4.82</ele>
        <time>2015-02-16T16:54:32Z</time>
      </trkpt>
      <trkpt lat="46.50437" lon="-1.81514">
        <ele>4.95</ele>
        <time>2015-02-16T16:54:40Z</time>
      </trkpt>
      <trkpt lat="46.50413" lon="-1.81479">
        <ele>5.25</ele>
        <time>2015-02-16T16:54:49Z</time>
      </trkpt>
      <trkpt lat="46.50376" lon="-1.81413">
        <ele>6.07</ele>
        <time>2015-02-16T16:55:05Z</time>
      </trkpt>
      <trkpt lat="46.50363" lon="-1.81404">
        <ele>6.25</ele>
        <time>2015-02-16T16:55:09Z</time>
      </trkpt>
      <trkpt lat="46.50352" lon="-1.81384">
        <ele>6.7</ele>
        <time>2015-02-16T16:55:13Z</time>
      </trkpt>
      <trkpt lat="46.50342" lon="-1.8136">
        <ele>7.3</ele>
        <time>2015-02-16T16:55:18Z</time>
      </trkpt>
      <trkpt lat="46.50328" lon="-1.813">
        <ele>7.87</ele>
        <time>2015-02-16T16:55:30Z</time>
      </trkpt>
      <trkpt lat="46.50324" lon="-1.81267">
        <ele>7.77</ele>
        <time>2015-02-16T16:55:36Z</time>
      </trkpt>
      <trkpt lat="46.50305" lon="-1.81184">
        <ele>8.38</ele>
        <time>2015-02-16T16:55:52Z</time>
      </trkpt>
      <trkpt lat="46.50296" lon="-1.81156">
        <ele>8.75</ele>
        <time>2015-02-16T16:55:58Z</time>
      </trkpt>
      <trkpt lat="46.50277" lon="-1.81067">
        <ele>9.94</ele>
        <time>2015-02-16T16:56:15Z</time>
      </trkpt>
      <trkpt lat="46.50275" lon="-1.8104">
        <ele>9.84</ele>
        <time>2015-02-16T16:56:20Z</time>
      </trkpt>
      <trkpt lat="46.50265" lon="-1.81003">
        <ele>9.83</ele>
        <time>2015-02-16T16:56:27Z</time>
      </trkpt>
      <trkpt lat="46.50256" lon="-1.80952">
        <ele>11.03</ele>
        <time>2015-02-16T16:56:37Z</time>
      </trkpt>
      <trkpt lat="46.5025" lon="-1.80897">
        <ele>11.99</ele>
        <time>2015-02-16T16:56:47Z</time>
      </trkpt>
      <trkpt lat="46.50246" lon="-1.8088">
        <ele>11.87</ele>
        <time>2015-02-16T16:56:51Z</time>
      </trkpt>
      <trkpt lat="46.50227" lon="-1.80818">
        <ele>11.95</ele>
        <time>2015-02-16T16:57:03Z</time>
      </trkpt>
      <trkpt lat="46.50224" lon="-1.80797">
        <ele>12.27</ele>
        <time>2015-02-16T16:57:07Z</time>
      </trkpt>
      <trkpt lat="46.50222" lon="-1.8074">
        <ele>12.92</ele>
        <time>2015-02-16T16:57:17Z</time>
      </trkpt>
      <trkpt lat="46.50223" lon="-1.80703">
        <ele>12.62</ele>
        <time>2015-02-16T16:57:24Z</time>
      </trkpt>
      <trkpt lat="46.5022" lon="-1.80661">
        <ele>12.31</ele>
        <time>2015-02-16T16:57:32Z</time>
      </trkpt>
      <trkpt lat="46.50212" lon="-1.80632">
        <ele>12.22</ele>
        <time>2015-02-16T16:57:38Z</time>
      </trkpt>
      <trkpt lat="46.50174" lon="-1.80549">
        <ele>12.45</ele>
        <time>2015-02-16T16:57:56Z</time>
      </trkpt>
      <trkpt lat="46.50176" lon="-1.8053">
        <ele>12.21</ele>
        <time>2015-02-16T16:58:00Z</time>
      </trkpt>
      <trkpt lat="46.50182" lon="-1.80507">
        <ele>11.89</ele>
        <time>2015-02-16T16:58:04Z</time>
      </trkpt>
      <trkpt lat="46.50176" lon="-1.80503">
        <ele>11.92</ele>
        <time>2015-02-16T16:58:06Z</time>
      </trkpt>
      <trkpt lat="46.50215" lon="-1.8035">
        <ele>9.54</ele>
        <time>2015-02-16T16:58:36Z</time>
      </trkpt>
      <trkpt lat="46.50222" lon="-1.80306">
        <ele>9.34</ele>
        <time>2015-02-16T16:58:44Z</time>
      </trkpt>
      <trkpt lat="46.5024" lon="-1.80091">
        <ele>6.51</ele>
        <time>2015-02-16T16:59:24Z</time>
      </trkpt>
      <trkpt lat="46.50277" lon="-1.79879">
        <ele>2.31</ele>
        <time>2015-02-16T17:00:04Z</time>
      </trkpt>
      <trkpt lat="46.50267" lon="-1.79871">
        <ele>2.44</ele>
        <time>2015-02-16T17:00:08Z</time>
      </trkpt>
      <trkpt lat="46.50264" lon="-1.79864">
        <ele>2.53</ele>
        <time>2015-02-16T17:00:09Z</time>
      </trkpt>
      <trkpt lat="46.50261" lon="-1.79848">
        <ele>2.71</ele>
        <time>2015-02-16T17:00:12Z</time>
      </trkpt>
      <trkpt lat="46.50264" lon="-1.79832">
        <ele>2.86</ele>
        <time>2015-02-16T17:00:15Z</time>
      </trkpt>
      <trkpt lat="46.50268" lon="-1.79825">
        <ele>2.99</ele>
        <time>2015-02-16T17:00:17Z</time>
      </trkpt>
      <trkpt lat="46.50277" lon="-1.79818">
        <ele>3.09</ele>
        <time>2015-02-16T17:00:19Z</time>
      </trkpt>
      <trkpt lat="46.50283" lon="-1.79808">
        <ele>3.34</ele>
        <time>2015-02-16T17:00:22Z</time>
      </trkpt>
      <trkpt lat="46.50306" lon="-1.79717">
        <ele>5.26</ele>
        <time>2015-02-16T17:00:40Z</time>
      </trkpt>
      <trkpt lat="46.5042" lon="-1.794">
        <ele>4.39</ele>
        <time>2015-02-16T17:01:45Z</time>
      </trkpt>
      <trkpt lat="46.50476" lon="-1.79198">
        <ele>-0.2</ele>
        <time>2015-02-16T17:02:25Z</time>
      </trkpt>
      <trkpt lat="46.50494" lon="-1.79123">
        <ele>-0.38</ele>
        <time>2015-02-16T17:02:40Z</time>
      </trkpt>
      <trkpt lat="46.50503" lon="-1.7908">
        <ele>0.09</ele>
        <time>2015-02-16T17:02:48Z</time>
      </trkpt>
      <trkpt lat="46.50514" lon="-1.79009">
        <ele>1.78</ele>
        <time>2015-02-16T17:03:02Z</time>
      </trkpt>
      <trkpt lat="46.50515" lon="-1.78996">
        <ele>2.04</ele>
        <time>2015-02-16T17:03:04Z</time>
      </trkpt>
      <trkpt lat="46.50511" lon="-1.7897">
        <ele>2.32</ele>
        <time>2015-02-16T17:03:09Z</time>
      </trkpt>
      <trkpt lat="46.50506" lon="-1.78959">
        <ele>2.46</ele>
        <time>2015-02-16T17:03:11Z</time>
      </trkpt>
      <trkpt lat="46.50484" lon="-1.7893">
        <ele>2.65</ele>
        <time>2015-02-16T17:03:19Z</time>
      </trkpt>
      <trkpt lat="46.50464" lon="-1.78908">
        <ele>2.77</ele>
        <time>2015-02-16T17:03:26Z</time>
      </trkpt>
      <trkpt lat="46.50262" lon="-1.78692">
        <ele>2.55</ele>
        <time>2015-02-16T17:04:33Z</time>
      </trkpt>
      <trkpt lat="46.50201" lon="-1.78635">
        <ele>3.02</ele>
        <time>2015-02-16T17:04:53Z</time>
      </trkpt>
      <trkpt lat="46.50179" lon="-1.78617">
        <ele>3.25</ele>
        <time>2015-02-16T17:04:59Z</time>
      </trkpt>
      <trkpt lat="46.50161" lon="-1.78606">
        <ele>3.51</ele>
        <time>2015-02-16T17:05:04Z</time>
      </trkpt>
      <trkpt lat="46.50145" lon="-1.78599">
        <ele>3.87</ele>
        <time>2015-02-16T17:05:09Z</time>
      </trkpt>
      <trkpt lat="46.50119" lon="-1.78591">
        <ele>4.38</ele>
        <time>2015-02-16T17:05:16Z</time>
      </trkpt>
      <trkpt lat="46.50079" lon="-1.78587">
        <ele>4.86</ele>
        <time>2015-02-16T17:05:26Z</time>
      </trkpt>
      <trkpt lat="46.50069" lon="-1.7859">
        <ele>4.69</ele>
        <time>2015-02-16T17:05:29Z</time>
      </trkpt>
      <trkpt lat="46.5005" lon="-1.7862">
        <ele>3.9</ele>
        <time>2015-02-16T17:05:37Z</time>
      </trkpt>
      <trkpt lat="46.50044" lon="-1.78621">
        <ele>3.83</ele>
        <time>2015-02-16T17:05:38Z</time>
      </trkpt>
      <trkpt lat="46.50038" lon="-1.78619">
        <ele>3.83</ele>
        <time>2015-02-16T17:05:40Z</time>
      </trkpt>
      <trkpt lat="46.50033" lon="-1.78614">
        <ele>3.87</ele>
        <time>2015-02-16T17:05:42Z</time>
      </trkpt>
      <trkpt lat="46.50026" lon="-1.78602">
        <ele>4.01</ele>
        <time>2015-02-16T17:05:45Z</time>
      </trkpt>
      <trkpt lat="46.49986" lon="-1.78532">
        <ele>4.69</ele>
        <time>2015-02-16T17:06:01Z</time>
      </trkpt>
      <trkpt lat="46.49975" lon="-1.78518">
        <ele>4.85</ele>
        <time>2015-02-16T17:06:05Z</time>
      </trkpt>
      <trkpt lat="46.49958" lon="-1.78509">
        <ele>4.95</ele>
        <time>2015-02-16T17:06:10Z</time>
      </trkpt>
      <trkpt lat="46.49889" lon="-1.78493">
        <ele>5</ele>
        <time>2015-02-16T17:06:29Z</time>
      </trkpt>
      <trkpt lat="46.49881" lon="-1.78493">
        <ele>5</ele>
        <time>2015-02-16T17:06:31Z</time>
      </trkpt>
      <trkpt lat="46.49871" lon="-1.78501">
        <ele>5.01</ele>
        <time>2015-02-16T17:06:34Z</time>
      </trkpt>
      <trkpt lat="46.49867" lon="-1.78509">
        <ele>5.06</ele>
        <time>2015-02-16T17:06:36Z</time>
      </trkpt>
      <trkpt lat="46.49861" lon="-1.78514">
        <ele>5.11</ele>
        <time>2015-02-16T17:06:37Z</time>
      </trkpt>
      <trkpt lat="46.49854" lon="-1.78511">
        <ele>5.1</ele>
        <time>2015-02-16T17:06:40Z</time>
      </trkpt>
      <trkpt lat="46.4985" lon="-1.78506">
        <ele>5.06</ele>
        <time>2015-02-16T17:06:41Z</time>
      </trkpt>
      <trkpt lat="46.49848" lon="-1.78496">
        <ele>5</ele>
        <time>2015-02-16T17:06:43Z</time>
      </trkpt>
      <trkpt lat="46.49832" lon="-1.78507">
        <ele>5.1</ele>
        <time>2015-02-16T17:06:48Z</time>
      </trkpt>
      <trkpt lat="46.4981" lon="-1.78525">
        <ele>5.58</ele>
        <time>2015-02-16T17:06:54Z</time>
      </trkpt>
      <trkpt lat="46.49783" lon="-1.78573">
        <ele>6.48</ele>
        <time>2015-02-16T17:07:06Z</time>
      </trkpt>
      <trkpt lat="46.49775" lon="-1.78591">
        <ele>6.58</ele>
        <time>2015-02-16T17:07:10Z</time>
      </trkpt>
      <trkpt lat="46.49771" lon="-1.78596">
        <ele>6.57</ele>
        <time>2015-02-16T17:07:11Z</time>
      </trkpt>
      <trkpt lat="46.49764" lon="-1.78594">
        <ele>6.68</ele>
        <time>2015-02-16T17:07:13Z</time>
      </trkpt>
      <trkpt lat="46.49761" lon="-1.78586">
        <ele>6.83</ele>
        <time>2015-02-16T17:07:14Z</time>
      </trkpt>
      <trkpt lat="46.49762" lon="-1.78568">
        <ele>6.67</ele>
        <time>2015-02-16T17:07:18Z</time>
      </trkpt>
      <trkpt lat="46.49651" lon="-1.78564">
        <ele>7.11</ele>
        <time>2015-02-16T17:07:47Z</time>
      </trkpt>
      <trkpt lat="46.49637" lon="-1.78572">
        <ele>7.81</ele>
        <time>2015-02-16T17:07:51Z</time>
      </trkpt>
      <trkpt lat="46.49603" lon="-1.78562">
        <ele>9.67</ele>
        <time>2015-02-16T17:08:01Z</time>
      </trkpt>
      <trkpt lat="46.49604" lon="-1.7855">
        <ele>9.54</ele>
        <time>2015-02-16T17:08:03Z</time>
      </trkpt>
      <trkpt lat="46.49572" lon="-1.78546">
        <ele>10.61</ele>
        <time>2015-02-16T17:08:12Z</time>
      </trkpt>
      <trkpt lat="46.49532" lon="-1.78533">
        <ele>10.77</ele>
        <time>2015-02-16T17:08:22Z</time>
      </trkpt>
      <trkpt lat="46.49507" lon="-1.78522">
        <ele>10.94</ele>
        <time>2015-02-16T17:08:30Z</time>
      </trkpt>
      <trkpt lat="46.49476" lon="-1.78511">
        <ele>9.54</ele>
        <time>2015-02-16T17:08:38Z</time>
      </trkpt>
      <trkpt lat="46.49479" lon="-1.78403">
        <ele>8.44</ele>
        <time>2015-02-16T17:08:58Z</time>
      </trkpt>
      <trkpt lat="46.49477" lon="-1.78382">
        <ele>8.68</ele>
        <time>2015-02-16T17:09:02Z</time>
      </trkpt>
      <trkpt lat="46.49471" lon="-1.78345">
        <ele>8.72</ele>
        <time>2015-02-16T17:09:09Z</time>
      </trkpt>
      <trkpt lat="46.49468" lon="-1.78346">
        <ele>8.38</ele>
        <time>2015-02-16T17:09:09Z</time>
      </trkpt>
      <trkpt lat="46.49452" lon="-1.7824">
        <ele>8.2</ele>
        <time>2015-02-16T17:09:30Z</time>
      </trkpt>
      <trkpt lat="46.49428" lon="-1.78103">
        <ele>10.03</ele>
        <time>2015-02-16T17:09:55Z</time>
      </trkpt>
      <trkpt lat="46.49424" lon="-1.78088">
        <ele>10.57</ele>
        <time>2015-02-16T17:09:58Z</time>
      </trkpt>
      <trkpt lat="46.49316" lon="-1.77778">
        <ele>7.58</ele>
        <time>2015-02-16T17:11:02Z</time>
      </trkpt>
      <trkpt lat="46.49301" lon="-1.77738">
        <ele>6.62</ele>
        <time>2015-02-16T17:11:11Z</time>
      </trkpt>
      <trkpt lat="46.49253" lon="-1.77644">
        <ele>7.29</ele>
        <time>2015-02-16T17:11:32Z</time>
      </trkpt>
      <trkpt lat="46.4925" lon="-1.77641">
        <ele>7.29</ele>
        <time>2015-02-16T17:11:33Z</time>
      </trkpt>
      <trkpt lat="46.49249" lon="-1.77635">
        <ele>7.32</ele>
        <time>2015-02-16T17:11:34Z</time>
      </trkpt>
      <trkpt lat="46.49246" lon="-1.77634">
        <ele>7.24</ele>
        <time>2015-02-16T17:11:35Z</time>
      </trkpt>
      <trkpt lat="46.49236" lon="-1.77615">
        <ele>7.29</ele>
        <time>2015-02-16T17:11:39Z</time>
      </trkpt>
      <trkpt lat="46.49234" lon="-1.77607">
        <ele>7.45</ele>
        <time>2015-02-16T17:11:41Z</time>
      </trkpt>
      <trkpt lat="46.49135" lon="-1.77477">
        <ele>6.67</ele>
        <time>2015-02-16T17:12:17Z</time>
      </trkpt>
      <trkpt lat="46.49124" lon="-1.7746">
        <ele>6.17</ele>
        <time>2015-02-16T17:12:21Z</time>
      </trkpt>
      <trkpt lat="46.49085" lon="-1.77372">
        <ele>7.2</ele>
        <time>2015-02-16T17:12:40Z</time>
      </trkpt>
      <trkpt lat="46.49054" lon="-1.77298">
        <ele>6.51</ele>
        <time>2015-02-16T17:12:56Z</time>
      </trkpt>
      <trkpt lat="46.49048" lon="-1.77277">
        <ele>6.17</ele>
        <time>2015-02-16T17:13:00Z</time>
      </trkpt>
      <trkpt lat="46.49035" lon="-1.77253">
        <ele>5.5</ele>
        <time>2015-02-16T17:13:06Z</time>
      </trkpt>
      <trkpt lat="46.48917" lon="-1.76987">
        <ele>7.32</ele>
        <time>2015-02-16T17:14:04Z</time>
      </trkpt>
      <trkpt lat="46.489" lon="-1.76962">
        <ele>7.29</ele>
        <time>2015-02-16T17:14:10Z</time>
      </trkpt>
      <trkpt lat="46.4887" lon="-1.76933">
        <ele>7.64</ele>
        <time>2015-02-16T17:14:20Z</time>
      </trkpt>
      <trkpt lat="46.48863" lon="-1.76925">
        <ele>7.91</ele>
        <time>2015-02-16T17:14:23Z</time>
      </trkpt>
      <trkpt lat="46.48861" lon="-1.7692">
        <ele>8.12</ele>
        <time>2015-02-16T17:14:24Z</time>
      </trkpt>
      <trkpt lat="46.48494" lon="-1.7657">
        <ele>7.81</ele>
        <time>2015-02-16T17:16:21Z</time>
      </trkpt>
      <trkpt lat="46.48484" lon="-1.76553">
        <ele>7.38</ele>
        <time>2015-02-16T17:16:25Z</time>
      </trkpt>
      <trkpt lat="46.4848" lon="-1.76555">
        <ele>6.96</ele>
        <time>2015-02-16T17:16:26Z</time>
      </trkpt>
      <trkpt lat="46.48477" lon="-1.76553">
        <ele>6.69</ele>
        <time>2015-02-16T17:16:27Z</time>
      </trkpt>
      <trkpt lat="46.4846" lon="-1.76538">
        <ele>5.75</ele>
        <time>2015-02-16T17:16:32Z</time>
      </trkpt>
      <trkpt lat="46.48458" lon="-1.76529">
        <ele>5.92</ele>
        <time>2015-02-16T17:16:34Z</time>
      </trkpt>
      <trkpt lat="46.48444" lon="-1.76521">
        <ele>5.15</ele>
        <time>2015-02-16T17:16:38Z</time>
      </trkpt>
      <trkpt lat="46.48439" lon="-1.76515">
        <ele>4.97</ele>
        <time>2015-02-16T17:16:40Z</time>
      </trkpt>
      <trkpt lat="46.48335" lon="-1.76393">
        <ele>1.72</ele>
        <time>2015-02-16T17:17:15Z</time>
      </trkpt>
      <trkpt lat="46.48305" lon="-1.76355">
        <ele>1.64</ele>
        <time>2015-02-16T17:17:26Z</time>
      </trkpt>
      <trkpt lat="46.48163" lon="-1.76189">
        <ele>4.12</ele>
        <time>2015-02-16T17:18:15Z</time>
      </trkpt>
      <trkpt lat="46.48134" lon="-1.76156">
        <ele>4.57</ele>
        <time>2015-02-16T17:18:25Z</time>
      </trkpt>
      <trkpt lat="46.48121" lon="-1.76145">
        <ele>4.73</ele>
        <time>2015-02-16T17:18:29Z</time>
      </trkpt>
      <trkpt lat="46.48105" lon="-1.76125">
        <ele>5.26</ele>
        <time>2015-02-16T17:18:34Z</time>
      </trkpt>
      <trkpt lat="46.48068" lon="-1.76089">
        <ele>5.99</ele>
        <time>2015-02-16T17:18:46Z</time>
      </trkpt>
      <trkpt lat="46.48051" lon="-1.76078">
        <ele>5.64</ele>
        <time>2015-02-16T17:18:51Z</time>
      </trkpt>
      <trkpt lat="46.48045" lon="-1.76077">
        <ele>5.41</ele>
        <time>2015-02-16T17:18:53Z</time>
      </trkpt>
      <trkpt lat="46.48042" lon="-1.76072">
        <ele>5.48</ele>
        <time>2015-02-16T17:18:54Z</time>
      </trkpt>
      <trkpt lat="46.47987" lon="-1.76056">
        <ele>5.05</ele>
        <time>2015-02-16T17:19:09Z</time>
      </trkpt>
      <trkpt lat="46.47976" lon="-1.7605">
        <ele>5.6</ele>
        <time>2015-02-16T17:19:12Z</time>
      </trkpt>
      <trkpt lat="46.47948" lon="-1.76042">
        <ele>6.63</ele>
        <time>2015-02-16T17:19:20Z</time>
      </trkpt>
      <trkpt lat="46.47943" lon="-1.76048">
        <ele>6.17</ele>
        <time>2015-02-16T17:19:21Z</time>
      </trkpt>
      <trkpt lat="46.47937" lon="-1.76047">
        <ele>6.31</ele>
        <time>2015-02-16T17:19:23Z</time>
      </trkpt>
      <trkpt lat="46.47874" lon="-1.76026">
        <ele>7.1</ele>
        <time>2015-02-16T17:19:40Z</time>
      </trkpt>
      <trkpt lat="46.47863" lon="-1.7602">
        <ele>7.27</ele>
        <time>2015-02-16T17:19:43Z</time>
      </trkpt>
      <trkpt lat="46.47855" lon="-1.7602">
        <ele>7.06</ele>
        <time>2015-02-16T17:19:45Z</time>
      </trkpt>
      <trkpt lat="46.47848" lon="-1.76028">
        <ele>6.15</ele>
        <time>2015-02-16T17:19:48Z</time>
      </trkpt>
      <trkpt lat="46.47825" lon="-1.76019">
        <ele>5.97</ele>
        <time>2015-02-16T17:19:54Z</time>
      </trkpt>
      <trkpt lat="46.47775" lon="-1.75971">
        <ele>5.41</ele>
        <time>2015-02-16T17:20:10Z</time>
      </trkpt>
      <trkpt lat="46.47763" lon="-1.7595">
        <ele>5.87</ele>
        <time>2015-02-16T17:20:15Z</time>
      </trkpt>
      <trkpt lat="46.47754" lon="-1.75912">
        <ele>7.46</ele>
        <time>2015-02-16T17:20:23Z</time>
      </trkpt>
      <trkpt lat="46.47683" lon="-1.75802">
        <ele>7.55</ele>
        <time>2015-02-16T17:20:50Z</time>
      </trkpt>
      <trkpt lat="46.47668" lon="-1.75784">
        <ele>7.47</ele>
        <time>2015-02-16T17:20:55Z</time>
      </trkpt>
      <trkpt lat="46.47629" lon="-1.75747">
        <ele>7.33</ele>
        <time>2015-02-16T17:21:08Z</time>
      </trkpt>
      <trkpt lat="46.47577" lon="-1.75675">
        <ele>8.13</ele>
        <time>2015-02-16T17:21:27Z</time>
      </trkpt>
      <trkpt lat="46.47556" lon="-1.75652">
        <ele>7.19</ele>
        <time>2015-02-16T17:21:34Z</time>
      </trkpt>
      <trkpt lat="46.47521" lon="-1.75597">
        <ele>6.26</ele>
        <time>2015-02-16T17:21:48Z</time>
      </trkpt>
      <trkpt lat="46.47512" lon="-1.75572">
        <ele>6.39</ele>
        <time>2015-02-16T17:21:53Z</time>
      </trkpt>
      <trkpt lat="46.47502" lon="-1.75519">
        <ele>7.47</ele>
        <time>2015-02-16T17:22:03Z</time>
      </trkpt>
      <trkpt lat="46.475" lon="-1.75494">
        <ele>7.99</ele>
        <time>2015-02-16T17:22:08Z</time>
      </trkpt>
      <trkpt lat="46.47486" lon="-1.75407">
        <ele>6.85</ele>
        <time>2015-02-16T17:22:24Z</time>
      </trkpt>
      <trkpt lat="46.47474" lon="-1.75404">
        <ele>5.86</ele>
        <time>2015-02-16T17:22:27Z</time>
      </trkpt>
      <trkpt lat="46.47466" lon="-1.75346">
        <ele>5.45</ele>
        <time>2015-02-16T17:22:38Z</time>
      </trkpt>
      <trkpt lat="46.4745" lon="-1.75333">
        <ele>4.42</ele>
        <time>2015-02-16T17:22:43Z</time>
      </trkpt>
      <trkpt lat="46.47444" lon="-1.75272">
        <ele>4.92</ele>
        <time>2015-02-16T17:22:54Z</time>
      </trkpt>
      <trkpt lat="46.47429" lon="-1.75215">
        <ele>5.34</ele>
        <time>2015-02-16T17:23:06Z</time>
      </trkpt>
      <trkpt lat="46.47442" lon="-1.75194">
        <ele>7.37</ele>
        <time>2015-02-16T17:23:11Z</time>
      </trkpt>
      <trkpt lat="46.47442" lon="-1.75187">
        <ele>7.61</ele>
        <time>2015-02-16T17:23:12Z</time>
      </trkpt>
      <trkpt lat="46.47396" lon="-1.74959">
        <ele>10.19</ele>
        <time>2015-02-16T17:23:56Z</time>
      </trkpt>
      <trkpt lat="46.47376" lon="-1.74867">
        <ele>9.82</ele>
        <time>2015-02-16T17:24:14Z</time>
      </trkpt>
      <trkpt lat="46.47362" lon="-1.74823">
        <ele>9.46</ele>
        <time>2015-02-16T17:24:22Z</time>
      </trkpt>
      <trkpt lat="46.47339" lon="-1.74768">
        <ele>9.6</ele>
        <time>2015-02-16T17:24:34Z</time>
      </trkpt>
      <trkpt lat="46.47321" lon="-1.74738">
        <ele>9.51</ele>
        <time>2015-02-16T17:24:42Z</time>
      </trkpt>
      <trkpt lat="46.47251" lon="-1.74632">
        <ele>11.28</ele>
        <time>2015-02-16T17:25:09Z</time>
      </trkpt>
      <trkpt lat="46.47232" lon="-1.74601">
        <ele>10.43</ele>
        <time>2015-02-16T17:25:16Z</time>
      </trkpt>
      <trkpt lat="46.47202" lon="-1.74547">
        <ele>8.61</ele>
        <time>2015-02-16T17:25:29Z</time>
      </trkpt>
      <trkpt lat="46.47172" lon="-1.74482">
        <ele>8.23</ele>
        <time>2015-02-16T17:25:43Z</time>
      </trkpt>
      <trkpt lat="46.47145" lon="-1.74435">
        <ele>8.15</ele>
        <time>2015-02-16T17:25:55Z</time>
      </trkpt>
      <trkpt lat="46.47074" lon="-1.74321">
        <ele>8.57</ele>
        <time>2015-02-16T17:26:23Z</time>
      </trkpt>
      <trkpt lat="46.47032" lon="-1.74256">
        <ele>7.4</ele>
        <time>2015-02-16T17:26:39Z</time>
      </trkpt>
      <trkpt lat="46.47014" lon="-1.74232">
        <ele>7.3</ele>
        <time>2015-02-16T17:26:46Z</time>
      </trkpt>
      <trkpt lat="46.46994" lon="-1.74208">
        <ele>7.69</ele>
        <time>2015-02-16T17:26:53Z</time>
      </trkpt>
      <trkpt lat="46.46983" lon="-1.74197">
        <ele>7.74</ele>
        <time>2015-02-16T17:26:56Z</time>
      </trkpt>
      <trkpt lat="46.46917" lon="-1.74164">
        <ele>5.16</ele>
        <time>2015-02-16T17:27:15Z</time>
      </trkpt>
      <trkpt lat="46.46897" lon="-1.74148">
        <ele>5.13</ele>
        <time>2015-02-16T17:27:21Z</time>
      </trkpt>
      <trkpt lat="46.46877" lon="-1.74124">
        <ele>4.99</ele>
        <time>2015-02-16T17:27:28Z</time>
      </trkpt>
      <trkpt lat="46.46865" lon="-1.74102">
        <ele>4.83</ele>
        <time>2015-02-16T17:27:33Z</time>
      </trkpt>
      <trkpt lat="46.46856" lon="-1.74073">
        <ele>4.75</ele>
        <time>2015-02-16T17:27:39Z</time>
      </trkpt>
      <trkpt lat="46.46849" lon="-1.74043">
        <ele>4.99</ele>
        <time>2015-02-16T17:27:45Z</time>
      </trkpt>
      <trkpt lat="46.46844" lon="-1.73963">
        <ele>6.32</ele>
        <time>2015-02-16T17:27:59Z</time>
      </trkpt>
      <trkpt lat="46.46828" lon="-1.73887">
        <ele>5.62</ele>
        <time>2015-02-16T17:28:14Z</time>
      </trkpt>
      <trkpt lat="46.46827" lon="-1.73858">
        <ele>5.57</ele>
        <time>2015-02-16T17:28:19Z</time>
      </trkpt>
      <trkpt lat="46.46844" lon="-1.73767">
        <ele>5.13</ele>
        <time>2015-02-16T17:28:37Z</time>
      </trkpt>
      <trkpt lat="46.46842" lon="-1.73743">
        <ele>4.67</ele>
        <time>2015-02-16T17:28:41Z</time>
      </trkpt>
      <trkpt lat="46.46835" lon="-1.73723">
        <ele>4.42</ele>
        <time>2015-02-16T17:28:45Z</time>
      </trkpt>
      <trkpt lat="46.46827" lon="-1.73708">
        <ele>4.4</ele>
        <time>2015-02-16T17:28:49Z</time>
      </trkpt>
      <trkpt lat="46.46821" lon="-1.73699">
        <ele>4.44</ele>
        <time>2015-02-16T17:28:51Z</time>
      </trkpt>
      <trkpt lat="46.46809" lon="-1.7369">
        <ele>4.48</ele>
        <time>2015-02-16T17:28:55Z</time>
      </trkpt>
      <trkpt lat="46.46801" lon="-1.73686">
        <ele>4.51</ele>
        <time>2015-02-16T17:28:57Z</time>
      </trkpt>
      <trkpt lat="46.46787" lon="-1.73686">
        <ele>4.37</ele>
        <time>2015-02-16T17:29:01Z</time>
      </trkpt>
      <trkpt lat="46.46764" lon="-1.73695">
        <ele>3.8</ele>
        <time>2015-02-16T17:29:07Z</time>
      </trkpt>
      <trkpt lat="46.46753" lon="-1.73694">
        <ele>3.71</ele>
        <time>2015-02-16T17:29:10Z</time>
      </trkpt>
      <trkpt lat="46.46744" lon="-1.73688">
        <ele>3.76</ele>
        <time>2015-02-16T17:29:13Z</time>
      </trkpt>
      <trkpt lat="46.46732" lon="-1.73671">
        <ele>3.97</ele>
        <time>2015-02-16T17:29:17Z</time>
      </trkpt>
      <trkpt lat="46.46685" lon="-1.73586">
        <ele>5.75</ele>
        <time>2015-02-16T17:29:37Z</time>
      </trkpt>
      <trkpt lat="46.46669" lon="-1.73553">
        <ele>6.2</ele>
        <time>2015-02-16T17:29:45Z</time>
      </trkpt>
      <trkpt lat="46.46603" lon="-1.73248">
        <ele>7.97</ele>
        <time>2015-02-16T17:30:43Z</time>
      </trkpt>
      <trkpt lat="46.46592" lon="-1.73212">
        <ele>8.97</ele>
        <time>2015-02-16T17:30:51Z</time>
      </trkpt>
      <trkpt lat="46.46583" lon="-1.73195">
        <ele>9.32</ele>
        <time>2015-02-16T17:30:55Z</time>
      </trkpt>
      <trkpt lat="46.46576" lon="-1.73189">
        <ele>9.33</ele>
        <time>2015-02-16T17:30:57Z</time>
      </trkpt>
      <trkpt lat="46.46539" lon="-1.73175">
        <ele>8.37</ele>
        <time>2015-02-16T17:31:07Z</time>
      </trkpt>
      <trkpt lat="46.46526" lon="-1.73164">
        <ele>8.33</ele>
        <time>2015-02-16T17:31:11Z</time>
      </trkpt>
      <trkpt lat="46.46511" lon="-1.73158">
        <ele>7.85</ele>
        <time>2015-02-16T17:31:15Z</time>
      </trkpt>
      <trkpt lat="46.46487" lon="-1.73153">
        <ele>7.05</ele>
        <time>2015-02-16T17:31:22Z</time>
      </trkpt>
      <trkpt lat="46.46471" lon="-1.73147">
        <ele>6.75</ele>
        <time>2015-02-16T17:31:26Z</time>
      </trkpt>
      <trkpt lat="46.46459" lon="-1.7314">
        <ele>6.65</ele>
        <time>2015-02-16T17:31:30Z</time>
      </trkpt>
      <trkpt lat="46.46441" lon="-1.73091">
        <ele>8.25</ele>
        <time>2015-02-16T17:31:40Z</time>
      </trkpt>
      <trkpt lat="46.46425" lon="-1.73063">
        <ele>8.9</ele>
        <time>2015-02-16T17:31:47Z</time>
      </trkpt>
      <trkpt lat="46.46375" lon="-1.72826">
        <ele>17.82</ele>
        <time>2015-02-16T17:32:32Z</time>
      </trkpt>
      <trkpt lat="46.46371" lon="-1.72791">
        <ele>19.28</ele>
        <time>2015-02-16T17:32:39Z</time>
      </trkpt>
      <trkpt lat="46.46379" lon="-1.72651">
        <ele>22.62</ele>
        <time>2015-02-16T17:33:05Z</time>
      </trkpt>
      <trkpt lat="46.46378" lon="-1.72621">
        <ele>22.98</ele>
        <time>2015-02-16T17:33:10Z</time>
      </trkpt>
      <trkpt lat="46.46362" lon="-1.72473">
        <ele>26.08</ele>
        <time>2015-02-16T17:33:38Z</time>
      </trkpt>
      <trkpt lat="46.46355" lon="-1.72346">
        <ele>25.85</ele>
        <time>2015-02-16T17:34:01Z</time>
      </trkpt>
      <trkpt lat="46.46344" lon="-1.72293">
        <ele>25.95</ele>
        <time>2015-02-16T17:34:11Z</time>
      </trkpt>
      <trkpt lat="46.46306" lon="-1.72083">
        <ele>23.98</ele>
        <time>2015-02-16T17:34:51Z</time>
      </trkpt>
      <trkpt lat="46.46296" lon="-1.7205">
        <ele>24.09</ele>
        <time>2015-02-16T17:34:58Z</time>
      </trkpt>
      <trkpt lat="46.46232" lon="-1.71904">
        <ele>25.1</ele>
        <time>2015-02-16T17:35:30Z</time>
      </trkpt>
      <trkpt lat="46.46223" lon="-1.71891">
        <ele>25.11</ele>
        <time>2015-02-16T17:35:33Z</time>
      </trkpt>
      <trkpt lat="46.46207" lon="-1.7187">
        <ele>25.25</ele>
        <time>2015-02-16T17:35:39Z</time>
      </trkpt>
      <trkpt lat="46.46177" lon="-1.71839">
        <ele>25.76</ele>
        <time>2015-02-16T17:35:48Z</time>
      </trkpt>
      <trkpt lat="46.46137" lon="-1.71806">
        <ele>24.64</ele>
        <time>2015-02-16T17:36:01Z</time>
      </trkpt>
      <trkpt lat="46.46112" lon="-1.71789">
        <ele>23.76</ele>
        <time>2015-02-16T17:36:08Z</time>
      </trkpt>
      <trkpt lat="46.46088" lon="-1.71767">
        <ele>22.67</ele>
        <time>2015-02-16T17:36:16Z</time>
      </trkpt>
      <trkpt lat="46.46081" lon="-1.71757">
        <ele>22.14</ele>
        <time>2015-02-16T17:36:18Z</time>
      </trkpt>
      <trkpt lat="46.46043" lon="-1.71688">
        <ele>17.45</ele>
        <time>2015-02-16T17:36:35Z</time>
      </trkpt>
      <trkpt lat="46.4601" lon="-1.71646">
        <ele>14.87</ele>
        <time>2015-02-16T17:36:46Z</time>
      </trkpt>
      <trkpt lat="46.45992" lon="-1.71619">
        <ele>13.39</ele>
        <time>2015-02-16T17:36:53Z</time>
      </trkpt>
      <trkpt lat="46.45962" lon="-1.71557">
        <ele>10.7</ele>
        <time>2015-02-16T17:37:07Z</time>
      </trkpt>
      <trkpt lat="46.45945" lon="-1.71525">
        <ele>8.7</ele>
        <time>2015-02-16T17:37:15Z</time>
      </trkpt>
      <trkpt lat="46.45924" lon="-1.71502">
        <ele>6.52</ele>
        <time>2015-02-16T17:37:22Z</time>
      </trkpt>
      <trkpt lat="46.45908" lon="-1.71463">
        <ele>5.14</ele>
        <time>2015-02-16T17:37:30Z</time>
      </trkpt>
      <trkpt lat="46.459" lon="-1.71424">
        <ele>4.31</ele>
        <time>2015-02-16T17:37:37Z</time>
      </trkpt>
      <trkpt lat="46.45893" lon="-1.71405">
        <ele>4.35</ele>
        <time>2015-02-16T17:37:41Z</time>
      </trkpt>
      <trkpt lat="46.45882" lon="-1.71391">
        <ele>4.58</ele>
        <time>2015-02-16T17:37:45Z</time>
      </trkpt>
      <trkpt lat="46.45863" lon="-1.71378">
        <ele>4.83</ele>
        <time>2015-02-16T17:37:51Z</time>
      </trkpt>
      <trkpt lat="46.4582" lon="-1.71356">
        <ele>5.73</ele>
        <time>2015-02-16T17:38:03Z</time>
      </trkpt>
      <trkpt lat="46.45783" lon="-1.71328">
        <ele>6.67</ele>
        <time>2015-02-16T17:38:14Z</time>
      </trkpt>
      <trkpt lat="46.45756" lon="-1.71304">
        <ele>8.29</ele>
        <time>2015-02-16T17:38:23Z</time>
      </trkpt>
      <trkpt lat="46.45744" lon="-1.71305">
        <ele>7.67</ele>
        <time>2015-02-16T17:38:26Z</time>
      </trkpt>
      <trkpt lat="46.45735" lon="-1.71303">
        <ele>7.4</ele>
        <time>2015-02-16T17:38:28Z</time>
      </trkpt>
      <trkpt lat="46.45729" lon="-1.71298">
        <ele>7.51</ele>
        <time>2015-02-16T17:38:30Z</time>
      </trkpt>
      <trkpt lat="46.45724" lon="-1.71284">
        <ele>8.6</ele>
        <time>2015-02-16T17:38:33Z</time>
      </trkpt>
      <trkpt lat="46.45724" lon="-1.71276">
        <ele>9.24</ele>
        <time>2015-02-16T17:38:34Z</time>
      </trkpt>
      <trkpt lat="46.45684" lon="-1.7124">
        <ele>9.49</ele>
        <time>2015-02-16T17:38:47Z</time>
      </trkpt>
      <trkpt lat="46.45658" lon="-1.71221">
        <ele>10.1</ele>
        <time>2015-02-16T17:38:55Z</time>
      </trkpt>
      <trkpt lat="46.45634" lon="-1.71209">
        <ele>10.33</ele>
        <time>2015-02-16T17:39:01Z</time>
      </trkpt>
      <trkpt lat="46.45599" lon="-1.71199">
        <ele>9.93</ele>
        <time>2015-02-16T17:39:11Z</time>
      </trkpt>
      <trkpt lat="46.45477" lon="-1.71171">
        <ele>6.88</ele>
        <time>2015-02-16T17:39:44Z</time>
      </trkpt>
      <trkpt lat="46.45465" lon="-1.71173">
        <ele>6.32</ele>
        <time>2015-02-16T17:39:47Z</time>
      </trkpt>
      <trkpt lat="46.45448" lon="-1.71172">
        <ele>5.82</ele>
        <time>2015-02-16T17:39:52Z</time>
      </trkpt>
      <trkpt lat="46.45437" lon="-1.71167">
        <ele>5.74</ele>
        <time>2015-02-16T17:39:55Z</time>
      </trkpt>
      <trkpt lat="46.45428" lon="-1.71158">
        <ele>6</ele>
        <time>2015-02-16T17:39:58Z</time>
      </trkpt>
      <trkpt lat="46.45415" lon="-1.7114">
        <ele>6.54</ele>
        <time>2015-02-16T17:40:02Z</time>
      </trkpt>
      <trkpt lat="46.45402" lon="-1.71105">
        <ele>7.87</ele>
        <time>2015-02-16T17:40:10Z</time>
      </trkpt>
      <trkpt lat="46.45389" lon="-1.71081">
        <ele>8.46</ele>
        <time>2015-02-16T17:40:15Z</time>
      </trkpt>
      <trkpt lat="46.45354" lon="-1.71035">
        <ele>9.6</ele>
        <time>2015-02-16T17:40:28Z</time>
      </trkpt>
      <trkpt lat="46.45335" lon="-1.71023">
        <ele>10.06</ele>
        <time>2015-02-16T17:40:34Z</time>
      </trkpt>
      <trkpt lat="46.45322" lon="-1.7093">
        <ele>15.43</ele>
        <time>2015-02-16T17:40:51Z</time>
      </trkpt>
      <trkpt lat="46.45286" lon="-1.70702">
        <ele>19.49</ele>
        <time>2015-02-16T17:41:34Z</time>
      </trkpt>
      <trkpt lat="46.45259" lon="-1.70554">
        <ele>20.13</ele>
        <time>2015-02-16T17:42:02Z</time>
      </trkpt>
      <trkpt lat="46.45209" lon="-1.70298">
        <ele>21.08</ele>
        <time>2015-02-16T17:42:51Z</time>
      </trkpt>
      <trkpt lat="46.45221" lon="-1.70288">
        <ele>21.13</ele>
        <time>2015-02-16T17:42:55Z</time>
      </trkpt>
      <trkpt lat="46.45231" lon="-1.70278">
        <ele>21.28</ele>
        <time>2015-02-16T17:42:58Z</time>
      </trkpt>
      <trkpt lat="46.45235" lon="-1.70271">
        <ele>21.38</ele>
        <time>2015-02-16T17:43:00Z</time>
      </trkpt>
      <trkpt lat="46.45242" lon="-1.70265">
        <ele>21.6</ele>
        <time>2015-02-16T17:43:02Z</time>
      </trkpt>
      <trkpt lat="46.45248" lon="-1.70255">
        <ele>21.88</ele>
        <time>2015-02-16T17:43:05Z</time>
      </trkpt>
      <trkpt lat="46.4525" lon="-1.70246">
        <ele>21.94</ele>
        <time>2015-02-16T17:43:06Z</time>
      </trkpt>
      <trkpt lat="46.45243" lon="-1.70227">
        <ele>21.46</ele>
        <time>2015-02-16T17:43:10Z</time>
      </trkpt>
      <trkpt lat="46.45237" lon="-1.70186">
        <ele>20.63</ele>
        <time>2015-02-16T17:43:18Z</time>
      </trkpt>
      <trkpt lat="46.45229" lon="-1.70177">
        <ele>20.15</ele>
        <time>2015-02-16T17:43:21Z</time>
      </trkpt>
      <trkpt lat="46.45219" lon="-1.7017">
        <ele>19.59</ele>
        <time>2015-02-16T17:43:23Z</time>
      </trkpt>
      <trkpt lat="46.45192" lon="-1.70169">
        <ele>18.24</ele>
        <time>2015-02-16T17:43:31Z</time>
      </trkpt>
      <trkpt lat="46.4519" lon="-1.70166">
        <ele>18.11</ele>
        <time>2015-02-16T17:43:32Z</time>
      </trkpt>
      <trkpt lat="46.45207" lon="-1.69937">
        <ele>17.69</ele>
        <time>2015-02-16T17:44:14Z</time>
      </trkpt>
      <trkpt lat="46.45226" lon="-1.69796">
        <ele>17.15</ele>
        <time>2015-02-16T17:44:40Z</time>
      </trkpt>
      <trkpt lat="46.45228" lon="-1.69787">
        <ele>17.19</ele>
        <time>2015-02-16T17:44:42Z</time>
      </trkpt>
      <trkpt lat="46.45254" lon="-1.69747">
        <ele>17.98</ele>
        <time>2015-02-16T17:44:52Z</time>
      </trkpt>
      <trkpt lat="46.45259" lon="-1.69735">
        <ele>17.75</ele>
        <time>2015-02-16T17:44:55Z</time>
      </trkpt>
      <trkpt lat="46.45264" lon="-1.69713">
        <ele>17.29</ele>
        <time>2015-02-16T17:44:59Z</time>
      </trkpt>
      <trkpt lat="46.45265" lon="-1.697">
        <ele>16.98</ele>
        <time>2015-02-16T17:45:02Z</time>
      </trkpt>
      <trkpt lat="46.45263" lon="-1.69678">
        <ele>16.42</ele>
        <time>2015-02-16T17:45:06Z</time>
      </trkpt>
      <trkpt lat="46.45257" lon="-1.69661">
        <ele>15.84</ele>
        <time>2015-02-16T17:45:09Z</time>
      </trkpt>
      <trkpt lat="46.45238" lon="-1.6964">
        <ele>14.3</ele>
        <time>2015-02-16T17:45:15Z</time>
      </trkpt>
      <trkpt lat="46.45234" lon="-1.69616">
        <ele>13.16</ele>
        <time>2015-02-16T17:45:20Z</time>
      </trkpt>
      <trkpt lat="46.45244" lon="-1.69592">
        <ele>12.34</ele>
        <time>2015-02-16T17:45:25Z</time>
      </trkpt>
      <trkpt lat="46.45257" lon="-1.69586">
        <ele>12.38</ele>
        <time>2015-02-16T17:45:29Z</time>
      </trkpt>
      <trkpt lat="46.45258" lon="-1.69579">
        <ele>12.23</ele>
        <time>2015-02-16T17:45:30Z</time>
      </trkpt>
      <trkpt lat="46.45092" lon="-1.68867">
        <ele>13.32</ele>
        <time>2015-02-16T17:47:48Z</time>
      </trkpt>
      <trkpt lat="46.45074" lon="-1.68778">
        <ele>13.96</ele>
        <time>2015-02-16T17:48:05Z</time>
      </trkpt>
      <trkpt lat="46.45067" lon="-1.687">
        <ele>15.21</ele>
        <time>2015-02-16T17:48:20Z</time>
      </trkpt>
      <trkpt lat="46.45051" lon="-1.68682">
        <ele>15.64</ele>
        <time>2015-02-16T17:48:25Z</time>
      </trkpt>
      <trkpt lat="46.45042" lon="-1.6866">
        <ele>16.17</ele>
        <time>2015-02-16T17:48:30Z</time>
      </trkpt>
      <trkpt lat="46.45007" lon="-1.68614">
        <ele>16.75</ele>
        <time>2015-02-16T17:48:43Z</time>
      </trkpt>
      <trkpt lat="46.44898" lon="-1.68515">
        <ele>19.63</ele>
        <time>2015-02-16T17:49:17Z</time>
      </trkpt>
      <trkpt lat="46.44802" lon="-1.68425">
        <ele>19.59</ele>
        <time>2015-02-16T17:49:47Z</time>
      </trkpt>
      <trkpt lat="46.44769" lon="-1.68377">
        <ele>19.63</ele>
        <time>2015-02-16T17:50:00Z</time>
      </trkpt>
      <trkpt lat="46.44744" lon="-1.68287">
        <ele>20.92</ele>
        <time>2015-02-16T17:50:18Z</time>
      </trkpt>
      <trkpt lat="46.44726" lon="-1.6821">
        <ele>21.14</ele>
        <time>2015-02-16T17:50:33Z</time>
      </trkpt>
      <trkpt lat="46.44717" lon="-1.6815">
        <ele>20.95</ele>
        <time>2015-02-16T17:50:44Z</time>
      </trkpt>
      <trkpt lat="46.44713" lon="-1.68096">
        <ele>21.15</ele>
        <time>2015-02-16T17:50:54Z</time>
      </trkpt>
      <trkpt lat="46.44707" lon="-1.68082">
        <ele>20.96</ele>
        <time>2015-02-16T17:50:57Z</time>
      </trkpt>
      <trkpt lat="46.44702" lon="-1.67986">
        <ele>20.46</ele>
        <time>2015-02-16T17:51:15Z</time>
      </trkpt>
      <trkpt lat="46.44707" lon="-1.6794">
        <ele>19.89</ele>
        <time>2015-02-16T17:51:23Z</time>
      </trkpt>
      <trkpt lat="46.44692" lon="-1.67924">
        <ele>19.02</ele>
        <time>2015-02-16T17:51:28Z</time>
      </trkpt>
      <trkpt lat="46.44692" lon="-1.67891">
        <ele>18.69</ele>
        <time>2015-02-16T17:51:34Z</time>
      </trkpt>
      <trkpt lat="46.44699" lon="-1.67852">
        <ele>18.71</ele>
        <time>2015-02-16T17:51:42Z</time>
      </trkpt>
      <trkpt lat="46.44706" lon="-1.67806">
        <ele>18.89</ele>
        <time>2015-02-16T17:51:50Z</time>
      </trkpt>
      <trkpt lat="46.44707" lon="-1.67765">
        <ele>18.92</ele>
        <time>2015-02-16T17:51:58Z</time>
      </trkpt>
      <trkpt lat="46.44704" lon="-1.67728">
        <ele>18.84</ele>
        <time>2015-02-16T17:52:05Z</time>
      </trkpt>
      <trkpt lat="46.44693" lon="-1.67661">
        <ele>18.6</ele>
        <time>2015-02-16T17:52:18Z</time>
      </trkpt>
      <trkpt lat="46.44685" lon="-1.67625">
        <ele>18.04</ele>
        <time>2015-02-16T17:52:25Z</time>
      </trkpt>
      <trkpt lat="46.44675" lon="-1.67597">
        <ele>17.45</ele>
        <time>2015-02-16T17:52:30Z</time>
      </trkpt>
      <trkpt lat="46.44564" lon="-1.67365">
        <ele>13.82</ele>
        <time>2015-02-16T17:53:22Z</time>
      </trkpt>
      <trkpt lat="46.44557" lon="-1.67368">
        <ele>13.65</ele>
        <time>2015-02-16T17:53:24Z</time>
      </trkpt>
      <trkpt lat="46.44545" lon="-1.6736">
        <ele>13.26</ele>
        <time>2015-02-16T17:53:28Z</time>
      </trkpt>
      <trkpt lat="46.44533" lon="-1.67355">
        <ele>12.89</ele>
        <time>2015-02-16T17:53:31Z</time>
      </trkpt>
      <trkpt lat="46.4452" lon="-1.67348">
        <ele>12.53</ele>
        <time>2015-02-16T17:53:35Z</time>
      </trkpt>
      <trkpt lat="46.4451" lon="-1.67306">
        <ele>12.53</ele>
        <time>2015-02-16T17:53:43Z</time>
      </trkpt>
      <trkpt lat="46.44513" lon="-1.67284">
        <ele>12.82</ele>
        <time>2015-02-16T17:53:47Z</time>
      </trkpt>
      <trkpt lat="46.44503" lon="-1.67243">
        <ele>13.03</ele>
        <time>2015-02-16T17:53:55Z</time>
      </trkpt>
      <trkpt lat="46.44489" lon="-1.6721">
        <ele>12.87</ele>
        <time>2015-02-16T17:54:02Z</time>
      </trkpt>
      <trkpt lat="46.4446" lon="-1.67148">
        <ele>13</ele>
        <time>2015-02-16T17:54:16Z</time>
      </trkpt>
      <trkpt lat="46.44446" lon="-1.67102">
        <ele>13</ele>
        <time>2015-02-16T17:54:25Z</time>
      </trkpt>
      <trkpt lat="46.44437" lon="-1.67035">
        <ele>13.58</ele>
        <time>2015-02-16T17:54:38Z</time>
      </trkpt>
      <trkpt lat="46.44432" lon="-1.67027">
        <ele>13.68</ele>
        <time>2015-02-16T17:54:40Z</time>
      </trkpt>
      <trkpt lat="46.44436" lon="-1.67019">
        <ele>13.77</ele>
        <time>2015-02-16T17:54:41Z</time>
      </trkpt>
      <trkpt lat="46.44434" lon="-1.67017">
        <ele>13.79</ele>
        <time>2015-02-16T17:54:42Z</time>
      </trkpt>
      <trkpt lat="46.44429" lon="-1.6702">
        <ele>13.76</ele>
        <time>2015-02-16T17:54:44Z</time>
      </trkpt>
      <trkpt lat="46.44424" lon="-1.67016">
        <ele>13.8</ele>
        <time>2015-02-16T17:54:45Z</time>
      </trkpt>
      <trkpt lat="46.44423" lon="-1.6701">
        <ele>13.88</ele>
        <time>2015-02-16T17:54:46Z</time>
      </trkpt>
      <trkpt lat="46.44424" lon="-1.67003">
        <ele>13.97</ele>
        <time>2015-02-16T17:54:48Z</time>
      </trkpt>
      <trkpt lat="46.44429" lon="-1.67">
        <ele>14</ele>
        <time>2015-02-16T17:54:49Z</time>
      </trkpt>
      <trkpt lat="46.44432" lon="-1.67001">
        <ele>13.99</ele>
        <time>2015-02-16T17:54:50Z</time>
      </trkpt>
      <trkpt lat="46.44435" lon="-1.66965">
        <ele>13.67</ele>
        <time>2015-02-16T17:54:56Z</time>
      </trkpt>
      <trkpt lat="46.44433" lon="-1.66958">
        <ele>13.6</ele>
        <time>2015-02-16T17:54:58Z</time>
      </trkpt>
      <trkpt lat="46.44435" lon="-1.66952">
        <ele>13.55</ele>
        <time>2015-02-16T17:54:59Z</time>
      </trkpt>
      <trkpt lat="46.4444" lon="-1.66949">
        <ele>13.56</ele>
        <time>2015-02-16T17:55:00Z</time>
      </trkpt>
      <trkpt lat="46.44424" lon="-1.66932">
        <ele>13.25</ele>
        <time>2015-02-16T17:55:06Z</time>
      </trkpt>
      <trkpt lat="46.4434" lon="-1.66771">
        <ele>12.31</ele>
        <time>2015-02-16T17:55:43Z</time>
      </trkpt>
      <trkpt lat="46.44254" lon="-1.66637">
        <ele>11.69</ele>
        <time>2015-02-16T17:56:17Z</time>
      </trkpt>
      <trkpt lat="46.44241" lon="-1.66605">
        <ele>11.02</ele>
        <time>2015-02-16T17:56:23Z</time>
      </trkpt>
      <trkpt lat="46.44228" lon="-1.66497">
        <ele>9.74</ele>
        <time>2015-02-16T17:56:44Z</time>
      </trkpt>
      <trkpt lat="46.4421" lon="-1.66461">
        <ele>9.53</ele>
        <time>2015-02-16T17:56:52Z</time>
      </trkpt>
      <trkpt lat="46.44193" lon="-1.6644">
        <ele>9.31</ele>
        <time>2015-02-16T17:56:58Z</time>
      </trkpt>
      <trkpt lat="46.44063" lon="-1.6634">
        <ele>6.84</ele>
        <time>2015-02-16T17:57:37Z</time>
      </trkpt>
      <trkpt lat="46.44" lon="-1.66276">
        <ele>10.38</ele>
        <time>2015-02-16T17:57:57Z</time>
      </trkpt>
      <trkpt lat="46.43989" lon="-1.66261">
        <ele>11.01</ele>
        <time>2015-02-16T17:58:02Z</time>
      </trkpt>
      <trkpt lat="46.44002" lon="-1.66224">
        <ele>12.4</ele>
        <time>2015-02-16T17:58:09Z</time>
      </trkpt>
      <trkpt lat="46.4404" lon="-1.66039">
        <ele>13.75</ele>
        <time>2015-02-16T17:58:45Z</time>
      </trkpt>
      <trkpt lat="46.44041" lon="-1.65997">
        <ele>13.55</ele>
        <time>2015-02-16T17:58:52Z</time>
      </trkpt>
      <trkpt lat="46.44036" lon="-1.65961">
        <ele>13.9</ele>
        <time>2015-02-16T17:58:59Z</time>
      </trkpt>
      <trkpt lat="46.44022" lon="-1.65903">
        <ele>15.33</ele>
        <time>2015-02-16T17:59:10Z</time>
      </trkpt>
      <trkpt lat="46.44014" lon="-1.65865">
        <ele>15.91</ele>
        <time>2015-02-16T17:59:18Z</time>
      </trkpt>
      <trkpt lat="46.44011" lon="-1.65761">
        <ele>15.09</ele>
        <time>2015-02-16T17:59:37Z</time>
      </trkpt>
      <trkpt lat="46.44006" lon="-1.65594">
        <ele>16.16</ele>
        <time>2015-02-16T18:00:08Z</time>
      </trkpt>
      <trkpt lat="46.44008" lon="-1.65532">
        <ele>15.46</ele>
        <time>2015-02-16T18:00:19Z</time>
      </trkpt>
      <trkpt lat="46.44019" lon="-1.65467">
        <ele>14.82</ele>
        <time>2015-02-16T18:00:31Z</time>
      </trkpt>
      <trkpt lat="46.44031" lon="-1.65271">
        <ele>11.99</ele>
        <time>2015-02-16T18:01:08Z</time>
      </trkpt>
      <trkpt lat="46.44037" lon="-1.65258">
        <ele>10.78</ele>
        <time>2015-02-16T18:01:11Z</time>
      </trkpt>
      <trkpt lat="46.44076" lon="-1.65249">
        <ele>5.07</ele>
        <time>2015-02-16T18:01:21Z</time>
      </trkpt>
      <trkpt lat="46.44215" lon="-1.65132">
        <ele>0.83</ele>
        <time>2015-02-16T18:02:04Z</time>
      </trkpt>
      <trkpt lat="46.44225" lon="-1.65122">
        <ele>1.07</ele>
        <time>2015-02-16T18:02:07Z</time>
      </trkpt>
      <trkpt lat="46.44232" lon="-1.65096">
        <ele>1.45</ele>
        <time>2015-02-16T18:02:12Z</time>
      </trkpt>
      <trkpt lat="46.44252" lon="-1.65074">
        <ele>2.04</ele>
        <time>2015-02-16T18:02:19Z</time>
      </trkpt>
      <trkpt lat="46.44252" lon="-1.65022">
        <ele>2.07</ele>
        <time>2015-02-16T18:02:29Z</time>
      </trkpt>
      <trkpt lat="46.44282" lon="-1.64948">
        <ele>2.52</ele>
        <time>2015-02-16T18:02:44Z</time>
      </trkpt>
      <trkpt lat="46.44298" lon="-1.64893">
        <ele>2.28</ele>
        <time>2015-02-16T18:02:55Z</time>
      </trkpt>
      <trkpt lat="46.44308" lon="-1.64793">
        <ele>1.05</ele>
        <time>2015-02-16T18:03:14Z</time>
      </trkpt>
      <trkpt lat="46.44357" lon="-1.64802">
        <ele>1.62</ele>
        <time>2015-02-16T18:03:27Z</time>
      </trkpt>
      <trkpt lat="46.44379" lon="-1.64796">
        <ele>1.55</ele>
        <time>2015-02-16T18:03:33Z</time>
      </trkpt>
      <trkpt lat="46.44413" lon="-1.64813">
        <ele>1.75</ele>
        <time>2015-02-16T18:03:43Z</time>
      </trkpt>
      <trkpt lat="46.4446" lon="-1.64825">
        <ele>2.42</ele>
        <time>2015-02-16T18:03:55Z</time>
      </trkpt>
      <trkpt lat="46.44469" lon="-1.64805">
        <ele>2.29</ele>
        <time>2015-02-16T18:04:00Z</time>
      </trkpt>
      <trkpt lat="46.44492" lon="-1.64807">
        <ele>2.59</ele>
        <time>2015-02-16T18:04:06Z</time>
      </trkpt>
      <trkpt lat="46.44526" lon="-1.64784">
        <ele>2.41</ele>
        <time>2015-02-16T18:04:16Z</time>
      </trkpt>
      <trkpt lat="46.44569" lon="-1.64799">
        <ele>2.59</ele>
        <time>2015-02-16T18:04:28Z</time>
      </trkpt>
      <trkpt lat="46.44608" lon="-1.64805">
        <ele>2.17</ele>
        <time>2015-02-16T18:04:38Z</time>
      </trkpt>
      <trkpt lat="46.44632" lon="-1.6479">
        <ele>1.62</ele>
        <time>2015-02-16T18:04:45Z</time>
      </trkpt>
      <trkpt lat="46.44591" lon="-1.64719">
        <ele>2.25</ele>
        <time>2015-02-16T18:05:02Z</time>
      </trkpt>
      <trkpt lat="46.44583" lon="-1.64652">
        <ele>3</ele>
        <time>2015-02-16T18:05:15Z</time>
      </trkpt>
      <trkpt lat="46.44597" lon="-1.64579">
        <ele>2.64</ele>
        <time>2015-02-16T18:05:29Z</time>
      </trkpt>
      <trkpt lat="46.44603" lon="-1.64424">
        <ele>2.43</ele>
        <time>2015-02-16T18:05:57Z</time>
      </trkpt>
      <trkpt lat="46.4467" lon="-1.64436">
        <ele>3.51</ele>
        <time>2015-02-16T18:06:16Z</time>
      </trkpt>
      <trkpt lat="46.44665" lon="-1.64177">
        <ele>8.83</ele>
        <time>2015-02-16T18:07:03Z</time>
      </trkpt>
      <trkpt lat="46.44692" lon="-1.64176">
        <ele>8.62</ele>
        <time>2015-02-16T18:07:10Z</time>
      </trkpt>
      <trkpt lat="46.44728" lon="-1.64015">
        <ele>8.27</ele>
        <time>2015-02-16T18:07:41Z</time>
      </trkpt>
      <trkpt lat="46.44816" lon="-1.63616">
        <ele>7.08</ele>
        <time>2015-02-16T18:08:59Z</time>
      </trkpt>
      <trkpt lat="46.44816" lon="-1.63562">
        <ele>6.95</ele>
        <time>2015-02-16T18:09:08Z</time>
      </trkpt>
      <trkpt lat="46.4473" lon="-1.63252">
        <ele>4.77</ele>
        <time>2015-02-16T18:10:10Z</time>
      </trkpt>
      <trkpt lat="46.44557" lon="-1.6324">
        <ele>2.6</ele>
        <time>2015-02-16T18:10:56Z</time>
      </trkpt>
      <trkpt lat="46.44551" lon="-1.63188">
        <ele>2.15</ele>
        <time>2015-02-16T18:11:06Z</time>
      </trkpt>
      <trkpt lat="46.44542" lon="-1.63167">
        <ele>2</ele>
        <time>2015-02-16T18:11:10Z</time>
      </trkpt>
      <trkpt lat="46.44532" lon="-1.63152">
        <ele>2.29</ele>
        <time>2015-02-16T18:11:14Z</time>
      </trkpt>
      <trkpt lat="46.44454" lon="-1.63078">
        <ele>2.97</ele>
        <time>2015-02-16T18:11:39Z</time>
      </trkpt>
      <trkpt lat="46.44439" lon="-1.63056">
        <ele>3.01</ele>
        <time>2015-02-16T18:11:45Z</time>
      </trkpt>
      <trkpt lat="46.4442" lon="-1.63012">
        <ele>3.73</ele>
        <time>2015-02-16T18:11:54Z</time>
      </trkpt>
      <trkpt lat="46.44404" lon="-1.62969">
        <ele>4.13</ele>
        <time>2015-02-16T18:12:04Z</time>
      </trkpt>
      <trkpt lat="46.44391" lon="-1.62914">
        <ele>4.75</ele>
        <time>2015-02-16T18:12:14Z</time>
      </trkpt>
      <trkpt lat="46.44389" lon="-1.62894">
        <ele>5.21</ele>
        <time>2015-02-16T18:12:18Z</time>
      </trkpt>
      <trkpt lat="46.44345" lon="-1.6289">
        <ele>4.77</ele>
        <time>2015-02-16T18:12:30Z</time>
      </trkpt>
      <trkpt lat="46.44337" lon="-1.62887">
        <ele>4.76</ele>
        <time>2015-02-16T18:12:32Z</time>
      </trkpt>
      <trkpt lat="46.44326" lon="-1.62862">
        <ele>5.22</ele>
        <time>2015-02-16T18:12:37Z</time>
      </trkpt>
      <trkpt lat="46.44312" lon="-1.62848">
        <ele>5.39</ele>
        <time>2015-02-16T18:12:42Z</time>
      </trkpt>
      <trkpt lat="46.4431" lon="-1.62749">
        <ele>7.44</ele>
        <time>2015-02-16T18:13:00Z</time>
      </trkpt>
      <trkpt lat="46.44307" lon="-1.62705">
        <ele>7.53</ele>
        <time>2015-02-16T18:13:08Z</time>
      </trkpt>
      <trkpt lat="46.44296" lon="-1.627">
        <ele>7.37</ele>
        <time>2015-02-16T18:13:11Z</time>
      </trkpt>
      <trkpt lat="46.44276" lon="-1.62628">
        <ele>7.31</ele>
        <time>2015-02-16T18:13:25Z</time>
      </trkpt>
      <trkpt lat="46.44263" lon="-1.62572">
        <ele>7.14</ele>
        <time>2015-02-16T18:13:36Z</time>
      </trkpt>
      <trkpt lat="46.44258" lon="-1.62513">
        <ele>7.01</ele>
        <time>2015-02-16T18:13:47Z</time>
      </trkpt>
      <trkpt lat="46.44255" lon="-1.62436">
        <ele>5.46</ele>
        <time>2015-02-16T18:14:02Z</time>
      </trkpt>
      <trkpt lat="46.44251" lon="-1.62414">
        <ele>4.97</ele>
        <time>2015-02-16T18:14:06Z</time>
      </trkpt>
      <trkpt lat="46.44237" lon="-1.62378">
        <ele>4.38</ele>
        <time>2015-02-16T18:14:13Z</time>
      </trkpt>
      <trkpt lat="46.44202" lon="-1.62316">
        <ele>3.33</ele>
        <time>2015-02-16T18:14:28Z</time>
      </trkpt>
      <trkpt lat="46.44161" lon="-1.62232">
        <ele>3.21</ele>
        <time>2015-02-16T18:14:47Z</time>
      </trkpt>
      <trkpt lat="46.44137" lon="-1.62173">
        <ele>3.92</ele>
        <time>2015-02-16T18:15:00Z</time>
      </trkpt>
      <trkpt lat="46.44091" lon="-1.62032">
        <ele>1.83</ele>
        <time>2015-02-16T18:15:28Z</time>
      </trkpt>
      <trkpt lat="46.44088" lon="-1.61988">
        <ele>1.2</ele>
        <time>2015-02-16T18:15:36Z</time>
      </trkpt>
      <trkpt lat="46.44098" lon="-1.61924">
        <ele>2.09</ele>
        <time>2015-02-16T18:15:48Z</time>
      </trkpt>
      <trkpt lat="46.44147" lon="-1.61665">
        <ele>5.52</ele>
        <time>2015-02-16T18:16:38Z</time>
      </trkpt>
      <trkpt lat="46.44164" lon="-1.61511">
        <ele>3.15</ele>
        <time>2015-02-16T18:17:07Z</time>
      </trkpt>
      <trkpt lat="46.44115" lon="-1.61345">
        <ele>3.08</ele>
        <time>2015-02-16T18:17:40Z</time>
      </trkpt>
      <trkpt lat="46.44143" lon="-1.61249">
        <ele>1.99</ele>
        <time>2015-02-16T18:17:59Z</time>
      </trkpt>
      <trkpt lat="46.44201" lon="-1.61139">
        <ele>2.35</ele>
        <time>2015-02-16T18:18:24Z</time>
      </trkpt>
      <trkpt lat="46.44169" lon="-1.61016">
        <ele>3.81</ele>
        <time>2015-02-16T18:18:48Z</time>
      </trkpt>
      <trkpt lat="46.44169" lon="-1.60868">
        <ele>4.46</ele>
        <time>2015-02-16T18:19:16Z</time>
      </trkpt>
      <trkpt lat="46.44186" lon="-1.60721">
        <ele>3.03</ele>
        <time>2015-02-16T18:19:43Z</time>
      </trkpt>
      <trkpt lat="46.44191" lon="-1.60678">
        <ele>2.46</ele>
        <time>2015-02-16T18:19:51Z</time>
      </trkpt>
      <trkpt lat="46.44176" lon="-1.60603">
        <ele>2.79</ele>
        <time>2015-02-16T18:20:06Z</time>
      </trkpt>
      <trkpt lat="46.44154" lon="-1.60523">
        <ele>2.96</ele>
        <time>2015-02-16T18:20:21Z</time>
      </trkpt>
      <trkpt lat="46.44111" lon="-1.60448">
        <ele>2.79</ele>
        <time>2015-02-16T18:20:39Z</time>
      </trkpt>
      <trkpt lat="46.44103" lon="-1.60417">
        <ele>2.47</ele>
        <time>2015-02-16T18:20:45Z</time>
      </trkpt>
      <trkpt lat="46.44097" lon="-1.60361">
        <ele>2.99</ele>
        <time>2015-02-16T18:20:56Z</time>
      </trkpt>
      <trkpt lat="46.44104" lon="-1.60251">
        <ele>3.26</ele>
        <time>2015-02-16T18:21:16Z</time>
      </trkpt>
      <trkpt lat="46.441" lon="-1.60229">
        <ele>2.9</ele>
        <time>2015-02-16T18:21:20Z</time>
      </trkpt>
      <trkpt lat="46.44091" lon="-1.60215">
        <ele>2.63</ele>
        <time>2015-02-16T18:21:24Z</time>
      </trkpt>
      <trkpt lat="46.4408" lon="-1.60209">
        <ele>2.49</ele>
        <time>2015-02-16T18:21:27Z</time>
      </trkpt>
      <trkpt lat="46.4392" lon="-1.60209">
        <ele>1.51</ele>
        <time>2015-02-16T18:22:10Z</time>
      </trkpt>
      <trkpt lat="46.43906" lon="-1.6022">
        <ele>1.36</ele>
        <time>2015-02-16T18:22:14Z</time>
      </trkpt>
      <trkpt lat="46.43864" lon="-1.60267">
        <ele>1.05</ele>
        <time>2015-02-16T18:22:28Z</time>
      </trkpt>
      <trkpt lat="46.43811" lon="-1.60335">
        <ele>2.26</ele>
        <time>2015-02-16T18:22:47Z</time>
      </trkpt>
      <trkpt lat="46.43778" lon="-1.60372">
        <ele>2.36</ele>
        <time>2015-02-16T18:22:58Z</time>
      </trkpt>
      <trkpt lat="46.43764" lon="-1.60381">
        <ele>2.36</ele>
        <time>2015-02-16T18:23:02Z</time>
      </trkpt>
      <trkpt lat="46.43747" lon="-1.60389">
        <ele>2.32</ele>
        <time>2015-02-16T18:23:07Z</time>
      </trkpt>
      <trkpt lat="46.43739" lon="-1.6039">
        <ele>2.28</ele>
        <time>2015-02-16T18:23:09Z</time>
      </trkpt>
      <trkpt lat="46.43732" lon="-1.60388">
        <ele>2.27</ele>
        <time>2015-02-16T18:23:11Z</time>
      </trkpt>
      <trkpt lat="46.43722" lon="-1.60373">
        <ele>2.35</ele>
        <time>2015-02-16T18:23:15Z</time>
      </trkpt>
      <trkpt lat="46.43719" lon="-1.60361">
        <ele>2.42</ele>
        <time>2015-02-16T18:23:17Z</time>
      </trkpt>
      <trkpt lat="46.43718" lon="-1.60347">
        <ele>2.52</ele>
        <time>2015-02-16T18:23:20Z</time>
      </trkpt>
      <trkpt lat="46.43722" lon="-1.60287">
        <ele>2.66</ele>
        <time>2015-02-16T18:23:31Z</time>
      </trkpt>
      <trkpt lat="46.43568" lon="-1.60302">
        <ele>0.81</ele>
        <time>2015-02-16T18:24:12Z</time>
      </trkpt>
      <trkpt lat="46.43563" lon="-1.60301">
        <ele>0.86</ele>
        <time>2015-02-16T18:24:13Z</time>
      </trkpt>
      <trkpt lat="46.43557" lon="-1.60293">
        <ele>0.84</ele>
        <time>2015-02-16T18:24:15Z</time>
      </trkpt>
      <trkpt lat="46.4355" lon="-1.60277">
        <ele>0.72</ele>
        <time>2015-02-16T18:24:19Z</time>
      </trkpt>
      <trkpt lat="46.4353" lon="-1.60238">
        <ele>0.84</ele>
        <time>2015-02-16T18:24:28Z</time>
      </trkpt>
      <trkpt lat="46.43514" lon="-1.60215">
        <ele>1.33</ele>
        <time>2015-02-16T18:24:34Z</time>
      </trkpt>
      <trkpt lat="46.43491" lon="-1.60174">
        <ele>1.91</ele>
        <time>2015-02-16T18:24:44Z</time>
      </trkpt>
      <trkpt lat="46.43479" lon="-1.60167">
        <ele>2</ele>
        <time>2015-02-16T18:24:47Z</time>
      </trkpt>
      <trkpt lat="46.43464" lon="-1.60162">
        <ele>1.97</ele>
        <time>2015-02-16T18:24:51Z</time>
      </trkpt>
      <trkpt lat="46.4346" lon="-1.60158">
        <ele>1.94</ele>
        <time>2015-02-16T18:24:53Z</time>
      </trkpt>
      <trkpt lat="46.43457" lon="-1.6015">
        <ele>1.9</ele>
        <time>2015-02-16T18:24:54Z</time>
      </trkpt>
      <trkpt lat="46.4345" lon="-1.6006">
        <ele>1.43</ele>
        <time>2015-02-16T18:25:11Z</time>
      </trkpt>
      <trkpt lat="46.43446" lon="-1.60039">
        <ele>1.3</ele>
        <time>2015-02-16T18:25:15Z</time>
      </trkpt>
      <trkpt lat="46.43435" lon="-1.6">
        <ele>1</ele>
        <time>2015-02-16T18:25:23Z</time>
      </trkpt>
      <trkpt lat="46.43414" lon="-1.5995">
        <ele>1.61</ele>
        <time>2015-02-16T18:25:33Z</time>
      </trkpt>
      <trkpt lat="46.43407" lon="-1.59926">
        <ele>1.9</ele>
        <time>2015-02-16T18:25:38Z</time>
      </trkpt>
      <trkpt lat="46.43402" lon="-1.59909">
        <ele>1.98</ele>
        <time>2015-02-16T18:25:42Z</time>
      </trkpt>
      <trkpt lat="46.43399" lon="-1.59869">
        <ele>1.88</ele>
        <time>2015-02-16T18:25:49Z</time>
      </trkpt>
      <trkpt lat="46.43397" lon="-1.59857">
        <ele>1.83</ele>
        <time>2015-02-16T18:25:51Z</time>
      </trkpt>
      <trkpt lat="46.43368" lon="-1.59767">
        <ele>1.08</ele>
        <time>2015-02-16T18:26:10Z</time>
      </trkpt>
      <trkpt lat="46.4336" lon="-1.59715">
        <ele>0.72</ele>
        <time>2015-02-16T18:26:19Z</time>
      </trkpt>
      <trkpt lat="46.43355" lon="-1.59699">
        <ele>0.55</ele>
        <time>2015-02-16T18:26:23Z</time>
      </trkpt>
      <trkpt lat="46.43328" lon="-1.59638">
        <ele>-0.04</ele>
        <time>2015-02-16T18:26:36Z</time>
      </trkpt>
      <trkpt lat="46.4328" lon="-1.59551">
        <ele>0.14</ele>
        <time>2015-02-16T18:26:56Z</time>
      </trkpt>
      <trkpt lat="46.4327" lon="-1.59538">
        <ele>0.13</ele>
        <time>2015-02-16T18:27:00Z</time>
      </trkpt>
      <trkpt lat="46.43253" lon="-1.59521">
        <ele>0.02</ele>
        <time>2015-02-16T18:27:06Z</time>
      </trkpt>
      <trkpt lat="46.43192" lon="-1.59439">
        <ele>1.24</ele>
        <time>2015-02-16T18:27:28Z</time>
      </trkpt>
      <trkpt lat="46.43171" lon="-1.59398">
        <ele>1.74</ele>
        <time>2015-02-16T18:27:37Z</time>
      </trkpt>
      <trkpt lat="46.43155" lon="-1.5936">
        <ele>1.09</ele>
        <time>2015-02-16T18:27:45Z</time>
      </trkpt>
      <trkpt lat="46.43135" lon="-1.59324">
        <ele>0.52</ele>
        <time>2015-02-16T18:27:54Z</time>
      </trkpt>
      <trkpt lat="46.43113" lon="-1.59294">
        <ele>0.33</ele>
        <time>2015-02-16T18:28:02Z</time>
      </trkpt>
      <trkpt lat="46.43083" lon="-1.59262">
        <ele>0.85</ele>
        <time>2015-02-16T18:28:12Z</time>
      </trkpt>
      <trkpt lat="46.43073" lon="-1.59253">
        <ele>0.97</ele>
        <time>2015-02-16T18:28:15Z</time>
      </trkpt>
      <trkpt lat="46.4305" lon="-1.59236">
        <ele>0.93</ele>
        <time>2015-02-16T18:28:22Z</time>
      </trkpt>
      <trkpt lat="46.43026" lon="-1.59205">
        <ele>0.63</ele>
        <time>2015-02-16T18:28:30Z</time>
      </trkpt>
      <trkpt lat="46.43013" lon="-1.59177">
        <ele>0.26</ele>
        <time>2015-02-16T18:28:37Z</time>
      </trkpt>
      <trkpt lat="46.43007" lon="-1.59135">
        <ele>0.4</ele>
        <time>2015-02-16T18:28:45Z</time>
      </trkpt>
      <trkpt lat="46.43003" lon="-1.59122">
        <ele>0.54</ele>
        <time>2015-02-16T18:28:47Z</time>
      </trkpt>
      <trkpt lat="46.42995" lon="-1.59104">
        <ele>0.81</ele>
        <time>2015-02-16T18:28:51Z</time>
      </trkpt>
      <trkpt lat="46.42986" lon="-1.59089">
        <ele>1.11</ele>
        <time>2015-02-16T18:28:55Z</time>
      </trkpt>
      <trkpt lat="46.42966" lon="-1.59066">
        <ele>1.57</ele>
        <time>2015-02-16T18:29:01Z</time>
      </trkpt>
      <trkpt lat="46.42961" lon="-1.59053">
        <ele>1.82</ele>
        <time>2015-02-16T18:29:04Z</time>
      </trkpt>
      <trkpt lat="46.42953" lon="-1.59011">
        <ele>2.55</ele>
        <time>2015-02-16T18:29:12Z</time>
      </trkpt>
      <trkpt lat="46.42948" lon="-1.58997">
        <ele>2.93</ele>
        <time>2015-02-16T18:29:15Z</time>
      </trkpt>
      <trkpt lat="46.42928" lon="-1.58966">
        <ele>4.29</ele>
        <time>2015-02-16T18:29:23Z</time>
      </trkpt>
      <trkpt lat="46.42915" lon="-1.58936">
        <ele>5.67</ele>
        <time>2015-02-16T18:29:30Z</time>
      </trkpt>
      <trkpt lat="46.42911" lon="-1.58932">
        <ele>6.04</ele>
        <time>2015-02-16T18:29:31Z</time>
      </trkpt>
      <trkpt lat="46.42901" lon="-1.58921">
        <ele>7.04</ele>
        <time>2015-02-16T18:29:34Z</time>
      </trkpt>
      <trkpt lat="46.42882" lon="-1.58906">
        <ele>8.58</ele>
        <time>2015-02-16T18:29:40Z</time>
      </trkpt>
      <trkpt lat="46.42852" lon="-1.58891">
        <ele>10.75</ele>
        <time>2015-02-16T18:29:48Z</time>
      </trkpt>
      <trkpt lat="46.42743" lon="-1.5885">
        <ele>13.84</ele>
        <time>2015-02-16T18:30:19Z</time>
      </trkpt>
      <trkpt lat="46.42669" lon="-1.59076">
        <ele>13.86</ele>
        <time>2015-02-16T18:31:05Z</time>
      </trkpt>
      <trkpt lat="46.42634" lon="-1.59168">
        <ele>11.99</ele>
        <time>2015-02-16T18:31:24Z</time>
      </trkpt>
      <trkpt lat="46.42625" lon="-1.59186">
        <ele>11.88</ele>
        <time>2015-02-16T18:31:28Z</time>
      </trkpt>
      <trkpt lat="46.42567" lon="-1.59275">
        <ele>12</ele>
        <time>2015-02-16T18:31:50Z</time>
      </trkpt>
      <trkpt lat="46.42479" lon="-1.59394">
        <ele>11.75</ele>
        <time>2015-02-16T18:32:22Z</time>
      </trkpt>
      <trkpt lat="46.42437" lon="-1.59444">
        <ele>11.17</ele>
        <time>2015-02-16T18:32:37Z</time>
      </trkpt>
      <trkpt lat="46.42346" lon="-1.59546">
        <ele>11.47</ele>
        <time>2015-02-16T18:33:08Z</time>
      </trkpt>
      <trkpt lat="46.42329" lon="-1.59574">
        <ele>11.83</ele>
        <time>2015-02-16T18:33:15Z</time>
      </trkpt>
      <trkpt lat="46.42311" lon="-1.59616">
        <ele>11.44</ele>
        <time>2015-02-16T18:33:24Z</time>
      </trkpt>
      <trkpt lat="46.4231" lon="-1.59625">
        <ele>11.36</ele>
        <time>2015-02-16T18:33:25Z</time>
      </trkpt>
      <trkpt lat="46.42313" lon="-1.5964">
        <ele>11.24</ele>
        <time>2015-02-16T18:33:28Z</time>
      </trkpt>
      <trkpt lat="46.42327" lon="-1.59661">
        <ele>11.06</ele>
        <time>2015-02-16T18:33:34Z</time>
      </trkpt>
      <trkpt lat="46.42331" lon="-1.59677">
        <ele>10.53</ele>
        <time>2015-02-16T18:33:37Z</time>
      </trkpt>
      <trkpt lat="46.42329" lon="-1.59698">
        <ele>9.57</ele>
        <time>2015-02-16T18:33:41Z</time>
      </trkpt>
      <trkpt lat="46.423" lon="-1.59757">
        <ele>8.48</ele>
        <time>2015-02-16T18:33:54Z</time>
      </trkpt>
      <trkpt lat="46.42278" lon="-1.59829">
        <ele>8.73</ele>
        <time>2015-02-16T18:34:09Z</time>
      </trkpt>
      <trkpt lat="46.42275" lon="-1.59842">
        <ele>8.71</ele>
        <time>2015-02-16T18:34:11Z</time>
      </trkpt>
      <trkpt lat="46.42272" lon="-1.59921">
        <ele>7.13</ele>
        <time>2015-02-16T18:34:26Z</time>
      </trkpt>
      <trkpt lat="46.42269" lon="-1.59945">
        <ele>7.16</ele>
        <time>2015-02-16T18:34:30Z</time>
      </trkpt>
      <trkpt lat="46.42256" lon="-1.59997">
        <ele>7.62</ele>
        <time>2015-02-16T18:34:40Z</time>
      </trkpt>
      <trkpt lat="46.4225" lon="-1.60041">
        <ele>7.5</ele>
        <time>2015-02-16T18:34:49Z</time>
      </trkpt>
      <trkpt lat="46.42243" lon="-1.60078">
        <ele>7.32</ele>
        <time>2015-02-16T18:34:56Z</time>
      </trkpt>
      <trkpt lat="46.42226" lon="-1.60142">
        <ele>6.14</ele>
        <time>2015-02-16T18:35:08Z</time>
      </trkpt>
      <trkpt lat="46.42188" lon="-1.60229">
        <ele>7</ele>
        <time>2015-02-16T18:35:27Z</time>
      </trkpt>
      <trkpt lat="46.42186" lon="-1.60234">
        <ele>7.01</ele>
        <time>2015-02-16T18:35:28Z</time>
      </trkpt>
      <trkpt lat="46.42188" lon="-1.6026">
        <ele>6.6</ele>
        <time>2015-02-16T18:35:33Z</time>
      </trkpt>
      <trkpt lat="46.42187" lon="-1.60272">
        <ele>6.53</ele>
        <time>2015-02-16T18:35:35Z</time>
      </trkpt>
      <trkpt lat="46.42179" lon="-1.60294">
        <ele>6.7</ele>
        <time>2015-02-16T18:35:40Z</time>
      </trkpt>
      <trkpt lat="46.42174" lon="-1.60301">
        <ele>6.96</ele>
        <time>2015-02-16T18:35:42Z</time>
      </trkpt>
      <trkpt lat="46.42165" lon="-1.60303">
        <ele>7.54</ele>
        <time>2015-02-16T18:35:44Z</time>
      </trkpt>
      <trkpt lat="46.42156" lon="-1.60302">
        <ele>8.49</ele>
        <time>2015-02-16T18:35:47Z</time>
      </trkpt>
      <trkpt lat="46.42143" lon="-1.60296">
        <ele>9.92</ele>
        <time>2015-02-16T18:35:50Z</time>
      </trkpt>
      <trkpt lat="46.42082" lon="-1.60241">
        <ele>14.82</ele>
        <time>2015-02-16T18:36:09Z</time>
      </trkpt>
      <trkpt lat="46.42042" lon="-1.60057">
        <ele>13.16</ele>
        <time>2015-02-16T18:36:45Z</time>
      </trkpt>
      <trkpt lat="46.42034" lon="-1.60037">
        <ele>13.41</ele>
        <time>2015-02-16T18:36:49Z</time>
      </trkpt>
      <trkpt lat="46.42024" lon="-1.6002">
        <ele>13.64</ele>
        <time>2015-02-16T18:36:53Z</time>
      </trkpt>
      <trkpt lat="46.42012" lon="-1.60005">
        <ele>13.85</ele>
        <time>2015-02-16T18:36:58Z</time>
      </trkpt>
      <trkpt lat="46.4198" lon="-1.59978">
        <ele>13.31</ele>
        <time>2015-02-16T18:37:07Z</time>
      </trkpt>
      <trkpt lat="46.41965" lon="-1.5996">
        <ele>13.21</ele>
        <time>2015-02-16T18:37:13Z</time>
      </trkpt>
      <trkpt lat="46.41951" lon="-1.59937">
        <ele>13.54</ele>
        <time>2015-02-16T18:37:18Z</time>
      </trkpt>
      <trkpt lat="46.41938" lon="-1.59911">
        <ele>14.23</ele>
        <time>2015-02-16T18:37:24Z</time>
      </trkpt>
      <trkpt lat="46.41924" lon="-1.59865">
        <ele>14.69</ele>
        <time>2015-02-16T18:37:33Z</time>
      </trkpt>
      <trkpt lat="46.41911" lon="-1.59791">
        <ele>13.64</ele>
        <time>2015-02-16T18:37:48Z</time>
      </trkpt>
      <trkpt lat="46.41908" lon="-1.59726">
        <ele>12.47</ele>
        <time>2015-02-16T18:38:00Z</time>
      </trkpt>
      <trkpt lat="46.41914" lon="-1.59647">
        <ele>12.4</ele>
        <time>2015-02-16T18:38:14Z</time>
      </trkpt>
      <trkpt lat="46.41926" lon="-1.59548">
        <ele>12.45</ele>
        <time>2015-02-16T18:38:33Z</time>
      </trkpt>
      <trkpt lat="46.41927" lon="-1.59525">
        <ele>12.23</ele>
        <time>2015-02-16T18:38:37Z</time>
      </trkpt>
      <trkpt lat="46.41927" lon="-1.59484">
        <ele>12</ele>
        <time>2015-02-16T18:38:44Z</time>
      </trkpt>
      <trkpt lat="46.41924" lon="-1.5943">
        <ele>12</ele>
        <time>2015-02-16T18:38:54Z</time>
      </trkpt>
      <trkpt lat="46.41916" lon="-1.59342">
        <ele>12.05</ele>
        <time>2015-02-16T18:39:11Z</time>
      </trkpt>
      <trkpt lat="46.41884" lon="-1.59177">
        <ele>13.38</ele>
        <time>2015-02-16T18:39:42Z</time>
      </trkpt>
      <trkpt lat="46.41872" lon="-1.59102">
        <ele>14.19</ele>
        <time>2015-02-16T18:39:56Z</time>
      </trkpt>
      <trkpt lat="46.41857" lon="-1.58983">
        <ele>15.29</ele>
        <time>2015-02-16T18:40:19Z</time>
      </trkpt>
      <trkpt lat="46.41854" lon="-1.58947">
        <ele>15.51</ele>
        <time>2015-02-16T18:40:25Z</time>
      </trkpt>
      <trkpt lat="46.41851" lon="-1.58861">
        <ele>16.22</ele>
        <time>2015-02-16T18:40:41Z</time>
      </trkpt>
      <trkpt lat="46.41853" lon="-1.58696">
        <ele>12.76</ele>
        <time>2015-02-16T18:41:12Z</time>
      </trkpt>
      <trkpt lat="46.41859" lon="-1.58672">
        <ele>11.86</ele>
        <time>2015-02-16T18:41:16Z</time>
      </trkpt>
      <trkpt lat="46.41875" lon="-1.58654">
        <ele>11.43</ele>
        <time>2015-02-16T18:41:22Z</time>
      </trkpt>
      <trkpt lat="46.41872" lon="-1.58648">
        <ele>11.42</ele>
        <time>2015-02-16T18:41:23Z</time>
      </trkpt>
      <trkpt lat="46.41873" lon="-1.58641">
        <ele>11.36</ele>
        <time>2015-02-16T18:41:24Z</time>
      </trkpt>
      <trkpt lat="46.41875" lon="-1.58638">
        <ele>11.33</ele>
        <time>2015-02-16T18:41:25Z</time>
      </trkpt>
      <trkpt lat="46.4188" lon="-1.58637">
        <ele>11.28</ele>
        <time>2015-02-16T18:41:26Z</time>
      </trkpt>
      <trkpt lat="46.41883" lon="-1.58502">
        <ele>10.02</ele>
        <time>2015-02-16T18:41:51Z</time>
      </trkpt>
      <trkpt lat="46.4188" lon="-1.58299">
        <ele>11.84</ele>
        <time>2015-02-16T18:42:29Z</time>
      </trkpt>
      <trkpt lat="46.41878" lon="-1.58297">
        <ele>11.9</ele>
        <time>2015-02-16T18:42:29Z</time>
      </trkpt>
      <trkpt lat="46.41876" lon="-1.58289">
        <ele>12.01</ele>
        <time>2015-02-16T18:42:31Z</time>
      </trkpt>
      <trkpt lat="46.41879" lon="-1.58283">
        <ele>12.06</ele>
        <time>2015-02-16T18:42:32Z</time>
      </trkpt>
      <trkpt lat="46.41867" lon="-1.58258">
        <ele>12.5</ele>
        <time>2015-02-16T18:42:38Z</time>
      </trkpt>
      <trkpt lat="46.41864" lon="-1.5826">
        <ele>12.52</ele>
        <time>2015-02-16T18:42:39Z</time>
      </trkpt>
      <trkpt lat="46.4186" lon="-1.58258">
        <ele>12.59</ele>
        <time>2015-02-16T18:42:40Z</time>
      </trkpt>
      <trkpt lat="46.41859" lon="-1.5825">
        <ele>12.69</ele>
        <time>2015-02-16T18:42:41Z</time>
      </trkpt>
      <trkpt lat="46.41859" lon="-1.58247">
        <ele>12.65</ele>
        <time>2015-02-16T18:42:42Z</time>
      </trkpt>
      <trkpt lat="46.41862" lon="-1.58245">
        <ele>12.58</ele>
        <time>2015-02-16T18:42:43Z</time>
      </trkpt>
      <trkpt lat="46.41865" lon="-1.58245">
        <ele>12.56</ele>
        <time>2015-02-16T18:42:43Z</time>
      </trkpt>
      <trkpt lat="46.41863" lon="-1.58233">
        <ele>12.43</ele>
        <time>2015-02-16T18:42:46Z</time>
      </trkpt>
      <trkpt lat="46.41824" lon="-1.58106">
        <ele>11.54</ele>
        <time>2015-02-16T18:43:11Z</time>
      </trkpt>
      <trkpt lat="46.41796" lon="-1.58025">
        <ele>13.05</ele>
        <time>2015-02-16T18:43:28Z</time>
      </trkpt>
      <trkpt lat="46.41761" lon="-1.57951">
        <ele>14.18</ele>
        <time>2015-02-16T18:43:44Z</time>
      </trkpt>
      <trkpt lat="46.41756" lon="-1.57939">
        <ele>14.15</ele>
        <time>2015-02-16T18:43:47Z</time>
      </trkpt>
      <trkpt lat="46.41742" lon="-1.57869">
        <ele>13.43</ele>
        <time>2015-02-16T18:44:00Z</time>
      </trkpt>
      <trkpt lat="46.41732" lon="-1.57809">
        <ele>13</ele>
        <time>2015-02-16T18:44:12Z</time>
      </trkpt>
      <trkpt lat="46.41731" lon="-1.57773">
        <ele>13</ele>
        <time>2015-02-16T18:44:18Z</time>
      </trkpt>
      <trkpt lat="46.41734" lon="-1.57738">
        <ele>12.88</ele>
        <time>2015-02-16T18:44:25Z</time>
      </trkpt>
      <trkpt lat="46.41747" lon="-1.57683">
        <ele>12.22</ele>
        <time>2015-02-16T18:44:36Z</time>
      </trkpt>
      <trkpt lat="46.41773" lon="-1.57601">
        <ele>11.1</ele>
        <time>2015-02-16T18:44:52Z</time>
      </trkpt>
      <trkpt lat="46.41777" lon="-1.57575">
        <ele>11.03</ele>
        <time>2015-02-16T18:44:57Z</time>
      </trkpt>
      <trkpt lat="46.41778" lon="-1.5756">
        <ele>11.09</ele>
        <time>2015-02-16T18:45:00Z</time>
      </trkpt>
      <trkpt lat="46.41776" lon="-1.57518">
        <ele>11.24</ele>
        <time>2015-02-16T18:45:08Z</time>
      </trkpt>
      <trkpt lat="46.4177" lon="-1.57486">
        <ele>11.24</ele>
        <time>2015-02-16T18:45:14Z</time>
      </trkpt>
      <trkpt lat="46.41765" lon="-1.57471">
        <ele>11.18</ele>
        <time>2015-02-16T18:45:17Z</time>
      </trkpt>
      <trkpt lat="46.41794" lon="-1.57435">
        <ele>11.53</ele>
        <time>2015-02-16T18:45:27Z</time>
      </trkpt>
      <trkpt lat="46.41814" lon="-1.57419">
        <ele>11.76</ele>
        <time>2015-02-16T18:45:33Z</time>
      </trkpt>
      <trkpt lat="46.41804" lon="-1.57384">
        <ele>11.51</ele>
        <time>2015-02-16T18:45:40Z</time>
      </trkpt>
      <trkpt lat="46.418" lon="-1.57375">
        <ele>11.4</ele>
        <time>2015-02-16T18:45:42Z</time>
      </trkpt>
      <trkpt lat="46.41713" lon="-1.57245">
        <ele>9.42</ele>
        <time>2015-02-16T18:46:15Z</time>
      </trkpt>
      <trkpt lat="46.41703" lon="-1.57216">
        <ele>9.39</ele>
        <time>2015-02-16T18:46:21Z</time>
      </trkpt>
      <trkpt lat="46.4169" lon="-1.57204">
        <ele>9.56</ele>
        <time>2015-02-16T18:46:25Z</time>
      </trkpt>
      <trkpt lat="46.41687" lon="-1.5721">
        <ele>9.64</ele>
        <time>2015-02-16T18:46:27Z</time>
      </trkpt>
      <trkpt lat="46.41681" lon="-1.57212">
        <ele>9.74</ele>
        <time>2015-02-16T18:46:28Z</time>
      </trkpt>
      <trkpt lat="46.41677" lon="-1.5721">
        <ele>9.81</ele>
        <time>2015-02-16T18:46:29Z</time>
      </trkpt>
      <trkpt lat="46.41674" lon="-1.57206">
        <ele>9.87</ele>
        <time>2015-02-16T18:46:30Z</time>
      </trkpt>
      <trkpt lat="46.41672" lon="-1.572">
        <ele>9.9</ele>
        <time>2015-02-16T18:46:32Z</time>
      </trkpt>
      <trkpt lat="46.41673" lon="-1.57192">
        <ele>9.87</ele>
        <time>2015-02-16T18:46:33Z</time>
      </trkpt>
      <trkpt lat="46.41678" lon="-1.57185">
        <ele>9.76</ele>
        <time>2015-02-16T18:46:35Z</time>
      </trkpt>
      <trkpt lat="46.41677" lon="-1.57165">
        <ele>9.74</ele>
        <time>2015-02-16T18:46:39Z</time>
      </trkpt>
      <trkpt lat="46.41671" lon="-1.57127">
        <ele>9.91</ele>
        <time>2015-02-16T18:46:46Z</time>
      </trkpt>
      <trkpt lat="46.41655" lon="-1.57071">
        <ele>10.14</ele>
        <time>2015-02-16T18:46:57Z</time>
      </trkpt>
      <trkpt lat="46.41634" lon="-1.57021">
        <ele>10.03</ele>
        <time>2015-02-16T18:47:08Z</time>
      </trkpt>
      <trkpt lat="46.41579" lon="-1.56921">
        <ele>10.23</ele>
        <time>2015-02-16T18:47:31Z</time>
      </trkpt>
      <trkpt lat="46.41566" lon="-1.56892">
        <ele>10.53</ele>
        <time>2015-02-16T18:47:38Z</time>
      </trkpt>
      <trkpt lat="46.41547" lon="-1.56834">
        <ele>10.77</ele>
        <time>2015-02-16T18:47:49Z</time>
      </trkpt>
      <trkpt lat="46.41537" lon="-1.56796">
        <ele>10.97</ele>
        <time>2015-02-16T18:47:57Z</time>
      </trkpt>
      <trkpt lat="46.4152" lon="-1.567">
        <ele>11.76</ele>
        <time>2015-02-16T18:48:15Z</time>
      </trkpt>
      <trkpt lat="46.41511" lon="-1.56593">
        <ele>14.25</ele>
        <time>2015-02-16T18:48:35Z</time>
      </trkpt>
      <trkpt lat="46.41497" lon="-1.56486">
        <ele>13.15</ele>
        <time>2015-02-16T18:48:55Z</time>
      </trkpt>
      <trkpt lat="46.41495" lon="-1.56445">
        <ele>13.31</ele>
        <time>2015-02-16T18:49:03Z</time>
      </trkpt>
      <trkpt lat="46.41494" lon="-1.56377">
        <ele>13.81</ele>
        <time>2015-02-16T18:49:15Z</time>
      </trkpt>
      <trkpt lat="46.41508" lon="-1.56223">
        <ele>15.68</ele>
        <time>2015-02-16T18:49:44Z</time>
      </trkpt>
      <trkpt lat="46.41535" lon="-1.55971">
        <ele>16.72</ele>
        <time>2015-02-16T18:50:31Z</time>
      </trkpt>
      <trkpt lat="46.41537" lon="-1.55923">
        <ele>16.54</ele>
        <time>2015-02-16T18:50:39Z</time>
      </trkpt>
      <trkpt lat="46.41536" lon="-1.55885">
        <ele>15.83</ele>
        <time>2015-02-16T18:50:46Z</time>
      </trkpt>
      <trkpt lat="46.41531" lon="-1.55823">
        <ele>14.91</ele>
        <time>2015-02-16T18:50:58Z</time>
      </trkpt>
      <trkpt lat="46.41505" lon="-1.5557">
        <ele>14.2</ele>
        <time>2015-02-16T18:51:45Z</time>
      </trkpt>
      <trkpt lat="46.41478" lon="-1.55383">
        <ele>12.71</ele>
        <time>2015-02-16T18:52:20Z</time>
      </trkpt>
      <trkpt lat="46.41456" lon="-1.55259">
        <ele>11.85</ele>
        <time>2015-02-16T18:52:44Z</time>
      </trkpt>
      <trkpt lat="46.4143" lon="-1.55076">
        <ele>9.84</ele>
        <time>2015-02-16T18:53:18Z</time>
      </trkpt>
      <trkpt lat="46.41418" lon="-1.54911">
        <ele>8.82</ele>
        <time>2015-02-16T18:53:49Z</time>
      </trkpt>
      <trkpt lat="46.41414" lon="-1.54876">
        <ele>7.5</ele>
        <time>2015-02-16T18:53:55Z</time>
      </trkpt>
      <trkpt lat="46.41386" lon="-1.54876">
        <ele>7</ele>
        <time>2015-02-16T18:54:03Z</time>
      </trkpt>
      <trkpt lat="46.41301" lon="-1.54904">
        <ele>5.97</ele>
        <time>2015-02-16T18:54:26Z</time>
      </trkpt>
      <trkpt lat="46.41194" lon="-1.54931">
        <ele>5.85</ele>
        <time>2015-02-16T18:54:55Z</time>
      </trkpt>
      <trkpt lat="46.41175" lon="-1.54934">
        <ele>6.1</ele>
        <time>2015-02-16T18:55:00Z</time>
      </trkpt>
      <trkpt lat="46.41152" lon="-1.54893">
        <ele>5.72</ele>
        <time>2015-02-16T18:55:10Z</time>
      </trkpt>
      <trkpt lat="46.41081" lon="-1.54741">
        <ele>4.75</ele>
        <time>2015-02-16T18:55:44Z</time>
      </trkpt>
      <trkpt lat="46.41041" lon="-1.54659">
        <ele>3.42</ele>
        <time>2015-02-16T18:56:02Z</time>
      </trkpt>
      <trkpt lat="46.41027" lon="-1.5464">
        <ele>3.36</ele>
        <time>2015-02-16T18:56:07Z</time>
      </trkpt>
      <trkpt lat="46.41024" lon="-1.54626">
        <ele>3.23</ele>
        <time>2015-02-16T18:56:10Z</time>
      </trkpt>
      <trkpt lat="46.41019" lon="-1.54616">
        <ele>3.17</ele>
        <time>2015-02-16T18:56:12Z</time>
      </trkpt>
      <trkpt lat="46.41011" lon="-1.54605">
        <ele>3.12</ele>
        <time>2015-02-16T18:56:15Z</time>
      </trkpt>
      <trkpt lat="46.40965" lon="-1.54549">
        <ele>3.44</ele>
        <time>2015-02-16T18:56:31Z</time>
      </trkpt>
      <trkpt lat="46.4095" lon="-1.54529">
        <ele>3.55</ele>
        <time>2015-02-16T18:56:37Z</time>
      </trkpt>
      <trkpt lat="46.4094" lon="-1.54509">
        <ele>3.53</ele>
        <time>2015-02-16T18:56:41Z</time>
      </trkpt>
      <trkpt lat="46.40931" lon="-1.54467">
        <ele>3.72</ele>
        <time>2015-02-16T18:56:49Z</time>
      </trkpt>
      <trkpt lat="46.40929" lon="-1.54407">
        <ele>3.75</ele>
        <time>2015-02-16T18:57:00Z</time>
      </trkpt>
      <trkpt lat="46.40936" lon="-1.54364">
        <ele>3.28</ele>
        <time>2015-02-16T18:57:08Z</time>
      </trkpt>
      <trkpt lat="46.40977" lon="-1.54262">
        <ele>2.76</ele>
        <time>2015-02-16T18:57:30Z</time>
      </trkpt>
      <trkpt lat="46.40986" lon="-1.54235">
        <ele>2.95</ele>
        <time>2015-02-16T18:57:36Z</time>
      </trkpt>
      <trkpt lat="46.41018" lon="-1.54101">
        <ele>3.74</ele>
        <time>2015-02-16T18:58:02Z</time>
      </trkpt>
      <trkpt lat="46.41034" lon="-1.54048">
        <ele>4.28</ele>
        <time>2015-02-16T18:58:12Z</time>
      </trkpt>
      <trkpt lat="46.41055" lon="-1.53953">
        <ele>6.02</ele>
        <time>2015-02-16T18:58:31Z</time>
      </trkpt>
      <trkpt lat="46.41092" lon="-1.53738">
        <ele>8.59</ele>
        <time>2015-02-16T18:59:11Z</time>
      </trkpt>
      <trkpt lat="46.41099" lon="-1.53674">
        <ele>7.87</ele>
        <time>2015-02-16T18:59:23Z</time>
      </trkpt>
      <trkpt lat="46.41137" lon="-1.53455">
        <ele>8.8</ele>
        <time>2015-02-16T19:00:05Z</time>
      </trkpt>
      <trkpt lat="46.41147" lon="-1.53419">
        <ele>9.4</ele>
        <time>2015-02-16T19:00:12Z</time>
      </trkpt>
      <trkpt lat="46.41159" lon="-1.53391">
        <ele>10.74</ele>
        <time>2015-02-16T19:00:18Z</time>
      </trkpt>
      <trkpt lat="46.41191" lon="-1.53335">
        <ele>12.77</ele>
        <time>2015-02-16T19:00:31Z</time>
      </trkpt>
      <trkpt lat="46.41217" lon="-1.53277">
        <ele>12.5</ele>
        <time>2015-02-16T19:00:44Z</time>
      </trkpt>
      <trkpt lat="46.41227" lon="-1.53249">
        <ele>12.38</ele>
        <time>2015-02-16T19:00:50Z</time>
      </trkpt>
      <trkpt lat="46.41233" lon="-1.53223">
        <ele>12.02</ele>
        <time>2015-02-16T19:00:55Z</time>
      </trkpt>
      <trkpt lat="46.41237" lon="-1.53196">
        <ele>11.76</ele>
        <time>2015-02-16T19:01:00Z</time>
      </trkpt>
      <trkpt lat="46.41251" lon="-1.53017">
        <ele>12</ele>
        <time>2015-02-16T19:01:33Z</time>
      </trkpt>
      <trkpt lat="46.41251" lon="-1.52957">
        <ele>12.51</ele>
        <time>2015-02-16T19:01:44Z</time>
      </trkpt>
      <trkpt lat="46.41257" lon="-1.52739">
        <ele>15.55</ele>
        <time>2015-02-16T19:02:25Z</time>
      </trkpt>
      <trkpt lat="46.41259" lon="-1.52719">
        <ele>15.22</ele>
        <time>2015-02-16T19:02:28Z</time>
      </trkpt>
      <trkpt lat="46.41274" lon="-1.52671">
        <ele>14.16</ele>
        <time>2015-02-16T19:02:38Z</time>
      </trkpt>
      <trkpt lat="46.41301" lon="-1.52595">
        <ele>13.83</ele>
        <time>2015-02-16T19:02:54Z</time>
      </trkpt>
      <trkpt lat="46.41302" lon="-1.52581">
        <ele>13.87</ele>
        <time>2015-02-16T19:02:56Z</time>
      </trkpt>
      <trkpt lat="46.41305" lon="-1.52429">
        <ele>13.28</ele>
        <time>2015-02-16T19:03:24Z</time>
      </trkpt>
      <trkpt lat="46.41307" lon="-1.52406">
        <ele>12.84</ele>
        <time>2015-02-16T19:03:28Z</time>
      </trkpt>
      <trkpt lat="46.4132" lon="-1.52329">
        <ele>11.52</ele>
        <time>2015-02-16T19:03:43Z</time>
      </trkpt>
      <trkpt lat="46.41328" lon="-1.52268">
        <ele>14.41</ele>
        <time>2015-02-16T19:03:54Z</time>
      </trkpt>
      <trkpt lat="46.41343" lon="-1.52096">
        <ele>15.54</ele>
        <time>2015-02-16T19:04:26Z</time>
      </trkpt>
      <trkpt lat="46.4137" lon="-1.51868">
        <ele>14.61</ele>
        <time>2015-02-16T19:05:09Z</time>
      </trkpt>
      <trkpt lat="46.41373" lon="-1.51832">
        <ele>15.12</ele>
        <time>2015-02-16T19:05:16Z</time>
      </trkpt>
      <trkpt lat="46.41374" lon="-1.51802">
        <ele>15.24</ele>
        <time>2015-02-16T19:05:21Z</time>
      </trkpt>
      <trkpt lat="46.41368" lon="-1.51735">
        <ele>15.72</ele>
        <time>2015-02-16T19:05:34Z</time>
      </trkpt>
      <trkpt lat="46.41328" lon="-1.51364">
        <ele>17.92</ele>
        <time>2015-02-16T19:06:43Z</time>
      </trkpt>
      <trkpt lat="46.41323" lon="-1.51289">
        <ele>16.95</ele>
        <time>2015-02-16T19:06:57Z</time>
      </trkpt>
      <trkpt lat="46.4132" lon="-1.51275">
        <ele>16.78</ele>
        <time>2015-02-16T19:06:59Z</time>
      </trkpt>
      <trkpt lat="46.41316" lon="-1.51262">
        <ele>16.8</ele>
        <time>2015-02-16T19:07:02Z</time>
      </trkpt>
      <trkpt lat="46.41311" lon="-1.51252">
        <ele>16.98</ele>
        <time>2015-02-16T19:07:04Z</time>
      </trkpt>
      <trkpt lat="46.41195" lon="-1.51088">
        <ele>18.8</ele>
        <time>2015-02-16T19:07:47Z</time>
      </trkpt>
      <trkpt lat="46.41187" lon="-1.51073">
        <ele>19.37</ele>
        <time>2015-02-16T19:07:51Z</time>
      </trkpt>
      <trkpt lat="46.41184" lon="-1.51057">
        <ele>19.49</ele>
        <time>2015-02-16T19:07:54Z</time>
      </trkpt>
      <trkpt lat="46.41174" lon="-1.50909">
        <ele>16.83</ele>
        <time>2015-02-16T19:08:21Z</time>
      </trkpt>
      <trkpt lat="46.4116" lon="-1.5062">
        <ele>16.44</ele>
        <time>2015-02-16T19:09:15Z</time>
      </trkpt>
      <trkpt lat="46.41151" lon="-1.5052">
        <ele>16.59</ele>
        <time>2015-02-16T19:09:33Z</time>
      </trkpt>
      <trkpt lat="46.4115" lon="-1.50328">
        <ele>13.97</ele>
        <time>2015-02-16T19:10:09Z</time>
      </trkpt>
      <trkpt lat="46.41151" lon="-1.5022">
        <ele>14.22</ele>
        <time>2015-02-16T19:10:28Z</time>
      </trkpt>
      <trkpt lat="46.41137" lon="-1.50226">
        <ele>14.93</ele>
        <time>2015-02-16T19:10:32Z</time>
      </trkpt>
      <trkpt lat="46.41127" lon="-1.50233">
        <ele>15.27</ele>
        <time>2015-02-16T19:10:35Z</time>
      </trkpt>
      <trkpt lat="46.41089" lon="-1.50286">
        <ele>17.14</ele>
        <time>2015-02-16T19:10:49Z</time>
      </trkpt>
      <trkpt lat="46.4108" lon="-1.50291">
        <ele>17.62</ele>
        <time>2015-02-16T19:10:52Z</time>
      </trkpt>
      <trkpt lat="46.41064" lon="-1.50293">
        <ele>18.21</ele>
        <time>2015-02-16T19:10:56Z</time>
      </trkpt>
      <trkpt lat="46.41057" lon="-1.50291">
        <ele>18.44</ele>
        <time>2015-02-16T19:10:58Z</time>
      </trkpt>
      <trkpt lat="46.41053" lon="-1.50283">
        <ele>18.47</ele>
        <time>2015-02-16T19:11:00Z</time>
      </trkpt>
      <trkpt lat="46.41043" lon="-1.50223">
        <ele>18.64</ele>
        <time>2015-02-16T19:11:11Z</time>
      </trkpt>
      <trkpt lat="46.4104" lon="-1.50219">
        <ele>18.71</ele>
        <time>2015-02-16T19:11:12Z</time>
      </trkpt>
      <trkpt lat="46.41034" lon="-1.50217">
        <ele>18.79</ele>
        <time>2015-02-16T19:11:14Z</time>
      </trkpt>
      <trkpt lat="46.41028" lon="-1.50217">
        <ele>18.87</ele>
        <time>2015-02-16T19:11:16Z</time>
      </trkpt>
      <trkpt lat="46.40836" lon="-1.50322">
        <ele>17.26</ele>
        <time>2015-02-16T19:12:10Z</time>
      </trkpt>
      <trkpt lat="46.40694" lon="-1.50401">
        <ele>17.18</ele>
        <time>2015-02-16T19:12:51Z</time>
      </trkpt>
      <trkpt lat="46.40685" lon="-1.50403">
        <ele>17.5</ele>
        <time>2015-02-16T19:12:53Z</time>
      </trkpt>
      <trkpt lat="46.40676" lon="-1.50401">
        <ele>17.84</ele>
        <time>2015-02-16T19:12:56Z</time>
      </trkpt>
      <trkpt lat="46.40654" lon="-1.50379">
        <ele>19</ele>
        <time>2015-02-16T19:13:03Z</time>
      </trkpt>
      <trkpt lat="46.40608" lon="-1.50315">
        <ele>21.73</ele>
        <time>2015-02-16T19:13:20Z</time>
      </trkpt>
      <trkpt lat="46.40518" lon="-1.5023">
        <ele>19.33</ele>
        <time>2015-02-16T19:13:49Z</time>
      </trkpt>
      <trkpt lat="46.40442" lon="-1.50152">
        <ele>19.6</ele>
        <time>2015-02-16T19:14:14Z</time>
      </trkpt>
      <trkpt lat="46.40332" lon="-1.50054">
        <ele>18.66</ele>
        <time>2015-02-16T19:14:48Z</time>
      </trkpt>
      <trkpt lat="46.40391" lon="-1.4989">
        <ele>14.29</ele>
        <time>2015-02-16T19:15:22Z</time>
      </trkpt>
      <trkpt lat="46.40427" lon="-1.49812">
        <ele>13.35</ele>
        <time>2015-02-16T19:15:39Z</time>
      </trkpt>
      <trkpt lat="46.40471" lon="-1.49733">
        <ele>14.38</ele>
        <time>2015-02-16T19:15:58Z</time>
      </trkpt>
      <trkpt lat="46.40556" lon="-1.49589">
        <ele>15.67</ele>
        <time>2015-02-16T19:16:33Z</time>
      </trkpt>
      <trkpt lat="46.40646" lon="-1.49459">
        <ele>16.74</ele>
        <time>2015-02-16T19:17:07Z</time>
      </trkpt>
      <trkpt lat="46.40693" lon="-1.49406">
        <ele>16.17</ele>
        <time>2015-02-16T19:17:23Z</time>
      </trkpt>
      <trkpt lat="46.40753" lon="-1.49349">
        <ele>16.32</ele>
        <time>2015-02-16T19:17:42Z</time>
      </trkpt>
      <trkpt lat="46.40755" lon="-1.49341">
        <ele>16.51</ele>
        <time>2015-02-16T19:17:44Z</time>
      </trkpt>
      <trkpt lat="46.40756" lon="-1.49325">
        <ele>16.61</ele>
        <time>2015-02-16T19:17:47Z</time>
      </trkpt>
      <trkpt lat="46.40755" lon="-1.4929">
        <ele>16.23</ele>
        <time>2015-02-16T19:17:53Z</time>
      </trkpt>
      <trkpt lat="46.40759" lon="-1.49268">
        <ele>15.81</ele>
        <time>2015-02-16T19:17:57Z</time>
      </trkpt>
      <trkpt lat="46.40759" lon="-1.49253">
        <ele>15.6</ele>
        <time>2015-02-16T19:18:00Z</time>
      </trkpt>
      <trkpt lat="46.40757" lon="-1.49241">
        <ele>14.9</ele>
        <time>2015-02-16T19:18:02Z</time>
      </trkpt>
      <trkpt lat="46.40747" lon="-1.49218">
        <ele>13.34</ele>
        <time>2015-02-16T19:18:07Z</time>
      </trkpt>
      <trkpt lat="46.4074" lon="-1.49209">
        <ele>12.69</ele>
        <time>2015-02-16T19:18:10Z</time>
      </trkpt>
      <trkpt lat="46.40718" lon="-1.49214">
        <ele>13.22</ele>
        <time>2015-02-16T19:18:15Z</time>
      </trkpt>
      <trkpt lat="46.40714" lon="-1.49211">
        <ele>13.11</ele>
        <time>2015-02-16T19:18:17Z</time>
      </trkpt>
      <trkpt lat="46.40686" lon="-1.49176">
        <ele>11.72</ele>
        <time>2015-02-16T19:18:27Z</time>
      </trkpt>
      <trkpt lat="46.40664" lon="-1.49149">
        <ele>11.19</ele>
        <time>2015-02-16T19:18:34Z</time>
      </trkpt>
      <trkpt lat="46.40568" lon="-1.49051">
        <ele>10.61</ele>
        <time>2015-02-16T19:19:06Z</time>
      </trkpt>
      <trkpt lat="46.40522" lon="-1.49021">
        <ele>11.04</ele>
        <time>2015-02-16T19:19:19Z</time>
      </trkpt>
      <trkpt lat="46.40506" lon="-1.49007">
        <ele>11.64</ele>
        <time>2015-02-16T19:19:24Z</time>
      </trkpt>
      <trkpt lat="46.40489" lon="-1.48985">
        <ele>11.37</ele>
        <time>2015-02-16T19:19:30Z</time>
      </trkpt>
      <trkpt lat="46.40463" lon="-1.48942">
        <ele>9.73</ele>
        <time>2015-02-16T19:19:41Z</time>
      </trkpt>
      <trkpt lat="46.40457" lon="-1.48935">
        <ele>9.41</ele>
        <time>2015-02-16T19:19:43Z</time>
      </trkpt>
      <trkpt lat="46.40436" lon="-1.48996">
        <ele>10.35</ele>
        <time>2015-02-16T19:19:55Z</time>
      </trkpt>
      <trkpt lat="46.40426" lon="-1.49019">
        <ele>10.6</ele>
        <time>2015-02-16T19:20:00Z</time>
      </trkpt>
      <trkpt lat="46.40403" lon="-1.49056">
        <ele>11.03</ele>
        <time>2015-02-16T19:20:09Z</time>
      </trkpt>
      <trkpt lat="46.40398" lon="-1.49063">
        <ele>11.06</ele>
        <time>2015-02-16T19:20:11Z</time>
      </trkpt>
      <trkpt lat="46.40393" lon="-1.49066">
        <ele>11.02</ele>
        <time>2015-02-16T19:20:13Z</time>
      </trkpt>
      <trkpt lat="46.40387" lon="-1.49067">
        <ele>10.9</ele>
        <time>2015-02-16T19:20:14Z</time>
      </trkpt>
      <trkpt lat="46.4038" lon="-1.49065">
        <ele>10.68</ele>
        <time>2015-02-16T19:20:16Z</time>
      </trkpt>
      <trkpt lat="46.40371" lon="-1.49058">
        <ele>10.3</ele>
        <time>2015-02-16T19:20:19Z</time>
      </trkpt>
      <trkpt lat="46.40363" lon="-1.4905">
        <ele>9.9</ele>
        <time>2015-02-16T19:20:22Z</time>
      </trkpt>
      <trkpt lat="46.40342" lon="-1.49005">
        <ele>8.33</ele>
        <time>2015-02-16T19:20:32Z</time>
      </trkpt>
      <trkpt lat="46.40326" lon="-1.48966">
        <ele>8.1</ele>
        <time>2015-02-16T19:20:40Z</time>
      </trkpt>
      <trkpt lat="46.40318" lon="-1.48955">
        <ele>8.17</ele>
        <time>2015-02-16T19:20:43Z</time>
      </trkpt>
      <trkpt lat="46.40305" lon="-1.48944">
        <ele>8.22</ele>
        <time>2015-02-16T19:20:47Z</time>
      </trkpt>
      <trkpt lat="46.40297" lon="-1.48934">
        <ele>8.18</ele>
        <time>2015-02-16T19:20:50Z</time>
      </trkpt>
      <trkpt lat="46.40291" lon="-1.48922">
        <ele>8.07</ele>
        <time>2015-02-16T19:20:52Z</time>
      </trkpt>
      <trkpt lat="46.40286" lon="-1.48906">
        <ele>7.93</ele>
        <time>2015-02-16T19:20:56Z</time>
      </trkpt>
      <trkpt lat="46.4027" lon="-1.48838">
        <ele>7.28</ele>
        <time>2015-02-16T19:21:09Z</time>
      </trkpt>
      <trkpt lat="46.40266" lon="-1.48825">
        <ele>7.23</ele>
        <time>2015-02-16T19:21:12Z</time>
      </trkpt>
      <trkpt lat="46.40243" lon="-1.48783">
        <ele>7.72</ele>
        <time>2015-02-16T19:21:21Z</time>
      </trkpt>
      <trkpt lat="46.40227" lon="-1.48765">
        <ele>8.15</ele>
        <time>2015-02-16T19:21:27Z</time>
      </trkpt>
      <trkpt lat="46.40216" lon="-1.48757">
        <ele>8.36</ele>
        <time>2015-02-16T19:21:30Z</time>
      </trkpt>
      <trkpt lat="46.40176" lon="-1.48743">
        <ele>8.79</ele>
        <time>2015-02-16T19:21:41Z</time>
      </trkpt>
      <trkpt lat="46.40173" lon="-1.4874">
        <ele>8.8</ele>
        <time>2015-02-16T19:21:42Z</time>
      </trkpt>
      <trkpt lat="46.40168" lon="-1.4873">
        <ele>8.74</ele>
        <time>2015-02-16T19:21:45Z</time>
      </trkpt>
      <trkpt lat="46.40165" lon="-1.48705">
        <ele>8.49</ele>
        <time>2015-02-16T19:21:49Z</time>
      </trkpt>
      <trkpt lat="46.40153" lon="-1.48658">
        <ele>7.99</ele>
        <time>2015-02-16T19:21:58Z</time>
      </trkpt>
      <trkpt lat="46.40148" lon="-1.48653">
        <ele>7.92</ele>
        <time>2015-02-16T19:22:00Z</time>
      </trkpt>
      <trkpt lat="46.40139" lon="-1.48648">
        <ele>8.08</ele>
        <time>2015-02-16T19:22:03Z</time>
      </trkpt>
      <trkpt lat="46.40126" lon="-1.48639">
        <ele>8.28</ele>
        <time>2015-02-16T19:22:06Z</time>
      </trkpt>
      <trkpt lat="46.40142" lon="-1.48597">
        <ele>6.22</ele>
        <time>2015-02-16T19:22:15Z</time>
      </trkpt>
      <trkpt lat="46.40126" lon="-1.48584">
        <ele>6.92</ele>
        <time>2015-02-16T19:22:20Z</time>
      </trkpt>
      <trkpt lat="46.40142" lon="-1.48597">
        <ele>6.22</ele>
        <time>2015-02-16T19:22:25Z</time>
      </trkpt>
      <trkpt lat="46.40126" lon="-1.48639">
        <ele>8.28</ele>
        <time>2015-02-16T19:22:33Z</time>
      </trkpt>
      <trkpt lat="46.40112" lon="-1.48621">
        <ele>8.58</ele>
        <time>2015-02-16T19:22:39Z</time>
      </trkpt>
      <trkpt lat="46.40098" lon="-1.48599">
        <ele>9.07</ele>
        <time>2015-02-16T19:22:44Z</time>
      </trkpt>
      <trkpt lat="46.40091" lon="-1.48592">
        <ele>9.49</ele>
        <time>2015-02-16T19:22:46Z</time>
      </trkpt>
      <trkpt lat="46.40086" lon="-1.4859">
        <ele>9.82</ele>
        <time>2015-02-16T19:22:48Z</time>
      </trkpt>
      <trkpt lat="46.40078" lon="-1.4859">
        <ele>10.29</ele>
        <time>2015-02-16T19:22:50Z</time>
      </trkpt>
      <trkpt lat="46.40056" lon="-1.48596">
        <ele>11.5</ele>
        <time>2015-02-16T19:22:56Z</time>
      </trkpt>
      <trkpt lat="46.40033" lon="-1.48608">
        <ele>12.51</ele>
        <time>2015-02-16T19:23:02Z</time>
      </trkpt>
      <trkpt lat="46.39986" lon="-1.48612">
        <ele>13.74</ele>
        <time>2015-02-16T19:23:15Z</time>
      </trkpt>
      <trkpt lat="46.39979" lon="-1.48616">
        <ele>13.52</ele>
        <time>2015-02-16T19:23:17Z</time>
      </trkpt>
      <trkpt lat="46.39972" lon="-1.48624">
        <ele>13.21</ele>
        <time>2015-02-16T19:23:19Z</time>
      </trkpt>
      <trkpt lat="46.39937" lon="-1.48678">
        <ele>11.66</ele>
        <time>2015-02-16T19:23:33Z</time>
      </trkpt>
      <trkpt lat="46.39927" lon="-1.48688">
        <ele>11.29</ele>
        <time>2015-02-16T19:23:36Z</time>
      </trkpt>
      <trkpt lat="46.39919" lon="-1.48693">
        <ele>11.06</ele>
        <time>2015-02-16T19:23:39Z</time>
      </trkpt>
      <trkpt lat="46.39906" lon="-1.48699">
        <ele>11.28</ele>
        <time>2015-02-16T19:23:42Z</time>
      </trkpt>
      <trkpt lat="46.39898" lon="-1.48706">
        <ele>11.45</ele>
        <time>2015-02-16T19:23:45Z</time>
      </trkpt>
      <trkpt lat="46.39893" lon="-1.48716">
        <ele>11.55</ele>
        <time>2015-02-16T19:23:47Z</time>
      </trkpt>
      <trkpt lat="46.39879" lon="-1.48755">
        <ele>12.12</ele>
        <time>2015-02-16T19:23:55Z</time>
      </trkpt>
      <trkpt lat="46.39873" lon="-1.48782">
        <ele>12.44</ele>
        <time>2015-02-16T19:24:00Z</time>
      </trkpt>
      <trkpt lat="46.3987" lon="-1.4879">
        <ele>12.61</ele>
        <time>2015-02-16T19:24:02Z</time>
      </trkpt>
      <trkpt lat="46.39841" lon="-1.48834">
        <ele>13.62</ele>
        <time>2015-02-16T19:24:13Z</time>
      </trkpt>
      <trkpt lat="46.39827" lon="-1.48844">
        <ele>13.56</ele>
        <time>2015-02-16T19:24:17Z</time>
      </trkpt>
      <trkpt lat="46.39818" lon="-1.48847">
        <ele>13.39</ele>
        <time>2015-02-16T19:24:20Z</time>
      </trkpt>
      <trkpt lat="46.39792" lon="-1.48848">
        <ele>13.15</ele>
        <time>2015-02-16T19:24:27Z</time>
      </trkpt>
      <trkpt lat="46.39783" lon="-1.48843">
        <ele>13.2</ele>
        <time>2015-02-16T19:24:29Z</time>
      </trkpt>
      <trkpt lat="46.39766" lon="-1.48843">
        <ele>13.04</ele>
        <time>2015-02-16T19:24:34Z</time>
      </trkpt>
      <trkpt lat="46.39739" lon="-1.48844">
        <ele>12.62</ele>
        <time>2015-02-16T19:24:41Z</time>
      </trkpt>
      <trkpt lat="46.39727" lon="-1.4885">
        <ele>12.25</ele>
        <time>2015-02-16T19:24:44Z</time>
      </trkpt>
      <trkpt lat="46.39718" lon="-1.48866">
        <ele>11.83</ele>
        <time>2015-02-16T19:24:48Z</time>
      </trkpt>
      <trkpt lat="46.39703" lon="-1.489">
        <ele>11.07</ele>
        <time>2015-02-16T19:24:56Z</time>
      </trkpt>
      <trkpt lat="46.39683" lon="-1.48925">
        <ele>10.38</ele>
        <time>2015-02-16T19:25:03Z</time>
      </trkpt>
      <trkpt lat="46.39644" lon="-1.48946">
        <ele>10.36</ele>
        <time>2015-02-16T19:25:14Z</time>
      </trkpt>
      <trkpt lat="46.39624" lon="-1.48966">
        <ele>10.82</ele>
        <time>2015-02-16T19:25:20Z</time>
      </trkpt>
      <trkpt lat="46.39586" lon="-1.48983">
        <ele>11.74</ele>
        <time>2015-02-16T19:25:31Z</time>
      </trkpt>
      <trkpt lat="46.39553" lon="-1.4896">
        <ele>12.78</ele>
        <time>2015-02-16T19:25:41Z</time>
      </trkpt>
      <trkpt lat="46.39528" lon="-1.48932">
        <ele>13.32</ele>
        <time>2015-02-16T19:25:49Z</time>
      </trkpt>
      <trkpt lat="46.39519" lon="-1.4889">
        <ele>12.45</ele>
        <time>2015-02-16T19:25:57Z</time>
      </trkpt>
      <trkpt lat="46.39502" lon="-1.48869">
        <ele>12.22</ele>
        <time>2015-02-16T19:26:03Z</time>
      </trkpt>
      <trkpt lat="46.39468" lon="-1.48859">
        <ele>12.61</ele>
        <time>2015-02-16T19:26:13Z</time>
      </trkpt>
      <trkpt lat="46.39441" lon="-1.48861">
        <ele>13.18</ele>
        <time>2015-02-16T19:26:20Z</time>
      </trkpt>
      <trkpt lat="46.39417" lon="-1.48868">
        <ele>13.57</ele>
        <time>2015-02-16T19:26:26Z</time>
      </trkpt>
      <trkpt lat="46.39408" lon="-1.48868">
        <ele>13.52</ele>
        <time>2015-02-16T19:26:29Z</time>
      </trkpt>
      <trkpt lat="46.39384" lon="-1.48845">
        <ele>13.52</ele>
        <time>2015-02-16T19:26:36Z</time>
      </trkpt>
      <trkpt lat="46.39368" lon="-1.48825">
        <ele>13.93</ele>
        <time>2015-02-16T19:26:42Z</time>
      </trkpt>
      <trkpt lat="46.39359" lon="-1.48818">
        <ele>14.21</ele>
        <time>2015-02-16T19:26:45Z</time>
      </trkpt>
      <trkpt lat="46.39331" lon="-1.48814">
        <ele>14.22</ele>
        <time>2015-02-16T19:26:52Z</time>
      </trkpt>
      <trkpt lat="46.39318" lon="-1.48814">
        <ele>14.54</ele>
        <time>2015-02-16T19:26:56Z</time>
      </trkpt>
      <trkpt lat="46.39306" lon="-1.48805">
        <ele>15.21</ele>
        <time>2015-02-16T19:26:59Z</time>
      </trkpt>
      <trkpt lat="46.39295" lon="-1.48786">
        <ele>16.17</ele>
        <time>2015-02-16T19:27:04Z</time>
      </trkpt>
      <trkpt lat="46.39274" lon="-1.48739">
        <ele>17.31</ele>
        <time>2015-02-16T19:27:14Z</time>
      </trkpt>
      <trkpt lat="46.39272" lon="-1.48723">
        <ele>17.33</ele>
        <time>2015-02-16T19:27:17Z</time>
      </trkpt>
      <trkpt lat="46.3928" lon="-1.48664">
        <ele>17.08</ele>
        <time>2015-02-16T19:27:28Z</time>
      </trkpt>
      <trkpt lat="46.39278" lon="-1.48634">
        <ele>15.34</ele>
        <time>2015-02-16T19:27:34Z</time>
      </trkpt>
      <trkpt lat="46.39266" lon="-1.48577">
        <ele>12.98</ele>
        <time>2015-02-16T19:27:45Z</time>
      </trkpt>
      <trkpt lat="46.39258" lon="-1.48559">
        <ele>12.29</ele>
        <time>2015-02-16T19:27:49Z</time>
      </trkpt>
      <trkpt lat="46.39247" lon="-1.48545">
        <ele>11.87</ele>
        <time>2015-02-16T19:27:53Z</time>
      </trkpt>
      <trkpt lat="46.39195" lon="-1.4855">
        <ele>13.48</ele>
        <time>2015-02-16T19:28:07Z</time>
      </trkpt>
      <trkpt lat="46.39168" lon="-1.48557">
        <ele>14.72</ele>
        <time>2015-02-16T19:28:14Z</time>
      </trkpt>
      <trkpt lat="46.39155" lon="-1.48565">
        <ele>14.6</ele>
        <time>2015-02-16T19:28:18Z</time>
      </trkpt>
      <trkpt lat="46.3909" lon="-1.48679">
        <ele>14.41</ele>
        <time>2015-02-16T19:28:45Z</time>
      </trkpt>
      <trkpt lat="46.39071" lon="-1.48715">
        <ele>15.05</ele>
        <time>2015-02-16T19:28:53Z</time>
      </trkpt>
      <trkpt lat="46.38958" lon="-1.49028">
        <ele>14.67</ele>
        <time>2015-02-16T19:29:58Z</time>
      </trkpt>
      <trkpt lat="46.38915" lon="-1.49137">
        <ele>11.71</ele>
        <time>2015-02-16T19:30:21Z</time>
      </trkpt>
      <trkpt lat="46.38889" lon="-1.49079">
        <ele>12.93</ele>
        <time>2015-02-16T19:30:34Z</time>
      </trkpt>
      <trkpt lat="46.38853" lon="-1.48974">
        <ele>11.16</ele>
        <time>2015-02-16T19:30:56Z</time>
      </trkpt>
      <trkpt lat="46.38851" lon="-1.48959">
        <ele>11.11</ele>
        <time>2015-02-16T19:30:59Z</time>
      </trkpt>
      <trkpt lat="46.38851" lon="-1.48875">
        <ele>11.39</ele>
        <time>2015-02-16T19:31:14Z</time>
      </trkpt>
      <trkpt lat="46.38849" lon="-1.48842">
        <ele>11.72</ele>
        <time>2015-02-16T19:31:20Z</time>
      </trkpt>
      <trkpt lat="46.3884" lon="-1.48716">
        <ele>16.06</ele>
        <time>2015-02-16T19:31:43Z</time>
      </trkpt>
      <trkpt lat="46.38825" lon="-1.48571">
        <ele>19.21</ele>
        <time>2015-02-16T19:32:11Z</time>
      </trkpt>
      <trkpt lat="46.38824" lon="-1.4855">
        <ele>18.58</ele>
        <time>2015-02-16T19:32:14Z</time>
      </trkpt>
      <trkpt lat="46.38752" lon="-1.4846">
        <ele>16.48</ele>
        <time>2015-02-16T19:32:40Z</time>
      </trkpt>
      <trkpt lat="46.38742" lon="-1.48444">
        <ele>16.41</ele>
        <time>2015-02-16T19:32:44Z</time>
      </trkpt>
      <trkpt lat="46.38736" lon="-1.48423">
        <ele>16.21</ele>
        <time>2015-02-16T19:32:48Z</time>
      </trkpt>
      <trkpt lat="46.38725" lon="-1.4837">
        <ele>14.78</ele>
        <time>2015-02-16T19:32:58Z</time>
      </trkpt>
      <trkpt lat="46.38714" lon="-1.48341">
        <ele>14.1</ele>
        <time>2015-02-16T19:33:04Z</time>
      </trkpt>
      <trkpt lat="46.38699" lon="-1.48318">
        <ele>14.46</ele>
        <time>2015-02-16T19:33:10Z</time>
      </trkpt>
      <trkpt lat="46.38686" lon="-1.48303">
        <ele>14.96</ele>
        <time>2015-02-16T19:33:14Z</time>
      </trkpt>
      <trkpt lat="46.38543" lon="-1.48179">
        <ele>14.8</ele>
        <time>2015-02-16T19:33:59Z</time>
      </trkpt>
      <trkpt lat="46.38525" lon="-1.48167">
        <ele>15.12</ele>
        <time>2015-02-16T19:34:04Z</time>
      </trkpt>
      <trkpt lat="46.38449" lon="-1.48135">
        <ele>16.37</ele>
        <time>2015-02-16T19:34:25Z</time>
      </trkpt>
      <trkpt lat="46.38453" lon="-1.47774">
        <ele>12.93</ele>
        <time>2015-02-16T19:35:32Z</time>
      </trkpt>
      <trkpt lat="46.38458" lon="-1.47731">
        <ele>13.5</ele>
        <time>2015-02-16T19:35:40Z</time>
      </trkpt>
      <trkpt lat="46.38489" lon="-1.47602">
        <ele>14.39</ele>
        <time>2015-02-16T19:36:05Z</time>
      </trkpt>
      <trkpt lat="46.38495" lon="-1.47561">
        <ele>14.77</ele>
        <time>2015-02-16T19:36:13Z</time>
      </trkpt>
      <trkpt lat="46.385" lon="-1.47519">
        <ele>15.57</ele>
        <time>2015-02-16T19:36:21Z</time>
      </trkpt>
      <trkpt lat="46.38506" lon="-1.47463">
        <ele>17.43</ele>
        <time>2015-02-16T19:36:31Z</time>
      </trkpt>
      <trkpt lat="46.38509" lon="-1.47401">
        <ele>19.37</ele>
        <time>2015-02-16T19:36:42Z</time>
      </trkpt>
      <trkpt lat="46.38513" lon="-1.47189">
        <ele>8.98</ele>
        <time>2015-02-16T19:37:21Z</time>
      </trkpt>
      <trkpt lat="46.38511" lon="-1.4718">
        <ele>8.56</ele>
        <time>2015-02-16T19:37:23Z</time>
      </trkpt>
      <trkpt lat="46.38502" lon="-1.47172">
        <ele>8.25</ele>
        <time>2015-02-16T19:37:26Z</time>
      </trkpt>
      <trkpt lat="46.38499" lon="-1.47173">
        <ele>8.31</ele>
        <time>2015-02-16T19:37:27Z</time>
      </trkpt>
      <trkpt lat="46.38495" lon="-1.4717">
        <ele>8.29</ele>
        <time>2015-02-16T19:37:28Z</time>
      </trkpt>
      <trkpt lat="46.38492" lon="-1.47164">
        <ele>8.2</ele>
        <time>2015-02-16T19:37:29Z</time>
      </trkpt>
      <trkpt lat="46.38494" lon="-1.47151">
        <ele>8.15</ele>
        <time>2015-02-16T19:37:32Z</time>
      </trkpt>
      <trkpt lat="46.38495" lon="-1.47127">
        <ele>8.14</ele>
        <time>2015-02-16T19:37:36Z</time>
      </trkpt>
      <trkpt lat="46.38494" lon="-1.4707">
        <ele>8.08</ele>
        <time>2015-02-16T19:37:47Z</time>
      </trkpt>
      <trkpt lat="46.38492" lon="-1.47055">
        <ele>8.05</ele>
        <time>2015-02-16T19:37:50Z</time>
      </trkpt>
      <trkpt lat="46.38483" lon="-1.47053">
        <ele>8.48</ele>
        <time>2015-02-16T19:37:52Z</time>
      </trkpt>
      <trkpt lat="46.38469" lon="-1.47042">
        <ele>9.18</ele>
        <time>2015-02-16T19:37:56Z</time>
      </trkpt>
      <trkpt lat="46.38377" lon="-1.47007">
        <ele>12</ele>
        <time>2015-02-16T19:38:22Z</time>
      </trkpt>
      <trkpt lat="46.38374" lon="-1.46947">
        <ele>12.28</ele>
        <time>2015-02-16T19:38:33Z</time>
      </trkpt>
      <trkpt lat="46.38364" lon="-1.4687">
        <ele>10.78</ele>
        <time>2015-02-16T19:38:47Z</time>
      </trkpt>
      <trkpt lat="46.38348" lon="-1.46834">
        <ele>9.37</ele>
        <time>2015-02-16T19:38:55Z</time>
      </trkpt>
      <trkpt lat="46.38318" lon="-1.46775">
        <ele>9.6</ele>
        <time>2015-02-16T19:39:08Z</time>
      </trkpt>
      <trkpt lat="46.38273" lon="-1.46678">
        <ele>12.98</ele>
        <time>2015-02-16T19:39:30Z</time>
      </trkpt>
      <trkpt lat="46.38268" lon="-1.46661">
        <ele>12.89</ele>
        <time>2015-02-16T19:39:33Z</time>
      </trkpt>
      <trkpt lat="46.3826" lon="-1.46655">
        <ele>12.44</ele>
        <time>2015-02-16T19:39:36Z</time>
      </trkpt>
      <trkpt lat="46.38249" lon="-1.46627">
        <ele>10.62</ele>
        <time>2015-02-16T19:39:42Z</time>
      </trkpt>
      <trkpt lat="46.38244" lon="-1.46621">
        <ele>10.23</ele>
        <time>2015-02-16T19:39:43Z</time>
      </trkpt>
      <trkpt lat="46.38237" lon="-1.46618">
        <ele>10.01</ele>
        <time>2015-02-16T19:39:45Z</time>
      </trkpt>
      <trkpt lat="46.38198" lon="-1.46612">
        <ele>9.31</ele>
        <time>2015-02-16T19:39:56Z</time>
      </trkpt>
      <trkpt lat="46.38066" lon="-1.46608">
        <ele>10.59</ele>
        <time>2015-02-16T19:40:31Z</time>
      </trkpt>
      <trkpt lat="46.38055" lon="-1.46605">
        <ele>10.43</ele>
        <time>2015-02-16T19:40:34Z</time>
      </trkpt>
      <trkpt lat="46.38029" lon="-1.46591">
        <ele>9.02</ele>
        <time>2015-02-16T19:40:41Z</time>
      </trkpt>
      <trkpt lat="46.38012" lon="-1.46585">
        <ele>8.26</ele>
        <time>2015-02-16T19:40:46Z</time>
      </trkpt>
      <trkpt lat="46.38005" lon="-1.46586">
        <ele>8.4</ele>
        <time>2015-02-16T19:40:48Z</time>
      </trkpt>
      <trkpt lat="46.37999" lon="-1.46592">
        <ele>9.29</ele>
        <time>2015-02-16T19:40:50Z</time>
      </trkpt>
      <trkpt lat="46.37985" lon="-1.4661">
        <ele>12.53</ele>
        <time>2015-02-16T19:40:55Z</time>
      </trkpt>
      <trkpt lat="46.37968" lon="-1.46626">
        <ele>15.24</ele>
        <time>2015-02-16T19:41:00Z</time>
      </trkpt>
      <trkpt lat="46.37931" lon="-1.46613">
        <ele>15.25</ele>
        <time>2015-02-16T19:41:11Z</time>
      </trkpt>
      <trkpt lat="46.37904" lon="-1.46608">
        <ele>15.72</ele>
        <time>2015-02-16T19:41:18Z</time>
      </trkpt>
      <trkpt lat="46.37894" lon="-1.46608">
        <ele>16.05</ele>
        <time>2015-02-16T19:41:20Z</time>
      </trkpt>
      <trkpt lat="46.37886" lon="-1.46611">
        <ele>16.55</ele>
        <time>2015-02-16T19:41:23Z</time>
      </trkpt>
      <trkpt lat="46.37878" lon="-1.46613">
        <ele>16.85</ele>
        <time>2015-02-16T19:41:25Z</time>
      </trkpt>
      <trkpt lat="46.37868" lon="-1.4661">
        <ele>16.98</ele>
        <time>2015-02-16T19:41:27Z</time>
      </trkpt>
      <trkpt lat="46.37856" lon="-1.46605">
        <ele>17.03</ele>
        <time>2015-02-16T19:41:31Z</time>
      </trkpt>
      <trkpt lat="46.37839" lon="-1.46587">
        <ele>16.85</ele>
        <time>2015-02-16T19:41:36Z</time>
      </trkpt>
      <trkpt lat="46.37803" lon="-1.46542">
        <ele>14.13</ele>
        <time>2015-02-16T19:41:49Z</time>
      </trkpt>
      <trkpt lat="46.37775" lon="-1.4652">
        <ele>14.14</ele>
        <time>2015-02-16T19:41:58Z</time>
      </trkpt>
      <trkpt lat="46.37764" lon="-1.46514">
        <ele>14.54</ele>
        <time>2015-02-16T19:42:01Z</time>
      </trkpt>
      <trkpt lat="46.37733" lon="-1.46512">
        <ele>14.14</ele>
        <time>2015-02-16T19:42:09Z</time>
      </trkpt>
      <trkpt lat="46.37717" lon="-1.46513">
        <ele>13.09</ele>
        <time>2015-02-16T19:42:13Z</time>
      </trkpt>
      <trkpt lat="46.37698" lon="-1.46528">
        <ele>12.33</ele>
        <time>2015-02-16T19:42:19Z</time>
      </trkpt>
      <trkpt lat="46.3768" lon="-1.46547">
        <ele>12.04</ele>
        <time>2015-02-16T19:42:25Z</time>
      </trkpt>
      <trkpt lat="46.37668" lon="-1.46552">
        <ele>11.56</ele>
        <time>2015-02-16T19:42:28Z</time>
      </trkpt>
      <trkpt lat="46.37582" lon="-1.46572">
        <ele>8.87</ele>
        <time>2015-02-16T19:42:51Z</time>
      </trkpt>
      <trkpt lat="46.37541" lon="-1.4658">
        <ele>9.44</ele>
        <time>2015-02-16T19:43:03Z</time>
      </trkpt>
      <trkpt lat="46.37532" lon="-1.46593">
        <ele>9.84</ele>
        <time>2015-02-16T19:43:06Z</time>
      </trkpt>
      <trkpt lat="46.37524" lon="-1.4662">
        <ele>10.59</ele>
        <time>2015-02-16T19:43:11Z</time>
      </trkpt>
      <trkpt lat="46.37515" lon="-1.46635">
        <ele>11.05</ele>
        <time>2015-02-16T19:43:15Z</time>
      </trkpt>
      <trkpt lat="46.37504" lon="-1.46645">
        <ele>11.42</ele>
        <time>2015-02-16T19:43:19Z</time>
      </trkpt>
      <trkpt lat="46.37483" lon="-1.46652">
        <ele>11.88</ele>
        <time>2015-02-16T19:43:24Z</time>
      </trkpt>
      <trkpt lat="46.3745" lon="-1.46658">
        <ele>12.46</ele>
        <time>2015-02-16T19:43:33Z</time>
      </trkpt>
      <trkpt lat="46.37415" lon="-1.46678">
        <ele>13.02</ele>
        <time>2015-02-16T19:43:43Z</time>
      </trkpt>
      <trkpt lat="46.37404" lon="-1.4668">
        <ele>13.11</ele>
        <time>2015-02-16T19:43:46Z</time>
      </trkpt>
      <trkpt lat="46.37382" lon="-1.46673">
        <ele>13.35</ele>
        <time>2015-02-16T19:43:52Z</time>
      </trkpt>
      <trkpt lat="46.37387" lon="-1.46578">
        <ele>13.27</ele>
        <time>2015-02-16T19:44:10Z</time>
      </trkpt>
      <trkpt lat="46.37384" lon="-1.4656">
        <ele>12.99</ele>
        <time>2015-02-16T19:44:13Z</time>
      </trkpt>
      <trkpt lat="46.37376" lon="-1.46539">
        <ele>12.88</ele>
        <time>2015-02-16T19:44:18Z</time>
      </trkpt>
      <trkpt lat="46.37373" lon="-1.46522">
        <ele>12.65</ele>
        <time>2015-02-16T19:44:21Z</time>
      </trkpt>
      <trkpt lat="46.37368" lon="-1.46421">
        <ele>11.62</ele>
        <time>2015-02-16T19:44:40Z</time>
      </trkpt>
      <trkpt lat="46.37358" lon="-1.46385">
        <ele>10.49</ele>
        <time>2015-02-16T19:44:47Z</time>
      </trkpt>
      <trkpt lat="46.37348" lon="-1.46329">
        <ele>7.95</ele>
        <time>2015-02-16T19:44:58Z</time>
      </trkpt>
      <trkpt lat="46.37341" lon="-1.46258">
        <ele>8.84</ele>
        <time>2015-02-16T19:45:11Z</time>
      </trkpt>
      <trkpt lat="46.37337" lon="-1.46241">
        <ele>8.88</ele>
        <time>2015-02-16T19:45:14Z</time>
      </trkpt>
      <trkpt lat="46.37326" lon="-1.46236">
        <ele>9.03</ele>
        <time>2015-02-16T19:45:17Z</time>
      </trkpt>
      <trkpt lat="46.37296" lon="-1.46227">
        <ele>9.68</ele>
        <time>2015-02-16T19:45:25Z</time>
      </trkpt>
      <trkpt lat="46.37239" lon="-1.46192">
        <ele>9.95</ele>
        <time>2015-02-16T19:45:42Z</time>
      </trkpt>
      <trkpt lat="46.37124" lon="-1.46077">
        <ele>10.75</ele>
        <time>2015-02-16T19:46:19Z</time>
      </trkpt>
      <trkpt lat="46.36988" lon="-1.45994">
        <ele>12.67</ele>
        <time>2015-02-16T19:46:59Z</time>
      </trkpt>
      <trkpt lat="46.36941" lon="-1.45981">
        <ele>9.14</ele>
        <time>2015-02-16T19:47:11Z</time>
      </trkpt>
      <trkpt lat="46.36907" lon="-1.45962">
        <ele>7.23</ele>
        <time>2015-02-16T19:47:21Z</time>
      </trkpt>
      <trkpt lat="46.36888" lon="-1.45943">
        <ele>6.64</ele>
        <time>2015-02-16T19:47:27Z</time>
      </trkpt>
      <trkpt lat="46.36871" lon="-1.4592">
        <ele>6.42</ele>
        <time>2015-02-16T19:47:33Z</time>
      </trkpt>
      <trkpt lat="46.3685" lon="-1.45902">
        <ele>6.09</ele>
        <time>2015-02-16T19:47:40Z</time>
      </trkpt>
      <trkpt lat="46.36676" lon="-1.4579">
        <ele>4.06</ele>
        <time>2015-02-16T19:48:31Z</time>
      </trkpt>
      <trkpt lat="46.36589" lon="-1.45728">
        <ele>3.92</ele>
        <time>2015-02-16T19:48:57Z</time>
      </trkpt>
      <trkpt lat="46.36547" lon="-1.45689">
        <ele>3.25</ele>
        <time>2015-02-16T19:49:10Z</time>
      </trkpt>
      <trkpt lat="46.36507" lon="-1.45649">
        <ele>2.33</ele>
        <time>2015-02-16T19:49:23Z</time>
      </trkpt>
      <trkpt lat="46.36414" lon="-1.45521">
        <ele>1.04</ele>
        <time>2015-02-16T19:49:57Z</time>
      </trkpt>
      <trkpt lat="46.36355" lon="-1.45419">
        <ele>1.99</ele>
        <time>2015-02-16T19:50:21Z</time>
      </trkpt>
      <trkpt lat="46.36205" lon="-1.4518">
        <ele>1.56</ele>
        <time>2015-02-16T19:51:21Z</time>
      </trkpt>
      <trkpt lat="46.36195" lon="-1.4517">
        <ele>1.68</ele>
        <time>2015-02-16T19:51:24Z</time>
      </trkpt>
      <trkpt lat="46.3618" lon="-1.45166">
        <ele>1.83</ele>
        <time>2015-02-16T19:51:28Z</time>
      </trkpt>
      <trkpt lat="46.3615" lon="-1.45168">
        <ele>2.02</ele>
        <time>2015-02-16T19:51:36Z</time>
      </trkpt>
      <trkpt lat="46.36148" lon="-1.45155">
        <ele>1.92</ele>
        <time>2015-02-16T19:51:39Z</time>
      </trkpt>
      <trkpt lat="46.36155" lon="-1.45153">
        <ele>1.89</ele>
        <time>2015-02-16T19:51:41Z</time>
      </trkpt>
      <trkpt lat="46.36162" lon="-1.45142">
        <ele>1.74</ele>
        <time>2015-02-16T19:51:43Z</time>
      </trkpt>
      <trkpt lat="46.36165" lon="-1.45128">
        <ele>1.55</ele>
        <time>2015-02-16T19:51:46Z</time>
      </trkpt>
      <trkpt lat="46.36163" lon="-1.45113">
        <ele>1.41</ele>
        <time>2015-02-16T19:51:49Z</time>
      </trkpt>
      <trkpt lat="46.36159" lon="-1.45105">
        <ele>1.4</ele>
        <time>2015-02-16T19:51:51Z</time>
      </trkpt>
      <trkpt lat="46.35989" lon="-1.44817">
        <ele>0.97</ele>
        <time>2015-02-16T19:53:01Z</time>
      </trkpt>
      <trkpt lat="46.35774" lon="-1.44448">
        <ele>1.66</ele>
        <time>2015-02-16T19:54:30Z</time>
      </trkpt>
      <trkpt lat="46.3573" lon="-1.44362">
        <ele>1.74</ele>
        <time>2015-02-16T19:54:49Z</time>
      </trkpt>
      <trkpt lat="46.3571" lon="-1.44318">
        <ele>1.78</ele>
        <time>2015-02-16T19:54:59Z</time>
      </trkpt>
      <trkpt lat="46.3569" lon="-1.44272">
        <ele>1.38</ele>
        <time>2015-02-16T19:55:09Z</time>
      </trkpt>
      <trkpt lat="46.35658" lon="-1.44184">
        <ele>1.11</ele>
        <time>2015-02-16T19:55:27Z</time>
      </trkpt>
      <trkpt lat="46.35437" lon="-1.43547">
        <ele>-0.76</ele>
        <time>2015-02-16T19:57:39Z</time>
      </trkpt>
      <trkpt lat="46.35405" lon="-1.43463">
        <ele>-0.5</ele>
        <time>2015-02-16T19:57:56Z</time>
      </trkpt>
      <trkpt lat="46.35345" lon="-1.43317">
        <ele>1.49</ele>
        <time>2015-02-16T19:58:28Z</time>
      </trkpt>
      <trkpt lat="46.35312" lon="-1.4325">
        <ele>0.53</ele>
        <time>2015-02-16T19:58:43Z</time>
      </trkpt>
      <trkpt lat="46.35272" lon="-1.4316">
        <ele>1</ele>
        <time>2015-02-16T19:59:03Z</time>
      </trkpt>
      <trkpt lat="46.35265" lon="-1.43151">
        <ele>1</ele>
        <time>2015-02-16T19:59:05Z</time>
      </trkpt>
      <trkpt lat="46.3526" lon="-1.4313">
        <ele>1</ele>
        <time>2015-02-16T19:59:09Z</time>
      </trkpt>
      <trkpt lat="46.35196" lon="-1.42977">
        <ele>1.57</ele>
        <time>2015-02-16T19:59:42Z</time>
      </trkpt>
      <trkpt lat="46.35194" lon="-1.4295">
        <ele>1.47</ele>
        <time>2015-02-16T19:59:47Z</time>
      </trkpt>
      <trkpt lat="46.3518" lon="-1.4295">
        <ele>1.43</ele>
        <time>2015-02-16T19:59:51Z</time>
      </trkpt>
      <trkpt lat="46.3517" lon="-1.42944">
        <ele>1.33</ele>
        <time>2015-02-16T19:59:54Z</time>
      </trkpt>
      <trkpt lat="46.35161" lon="-1.42933">
        <ele>1.25</ele>
        <time>2015-02-16T19:59:57Z</time>
      </trkpt>
      <trkpt lat="46.35157" lon="-1.42924">
        <ele>1.19</ele>
        <time>2015-02-16T19:59:59Z</time>
      </trkpt>
      <trkpt lat="46.35153" lon="-1.42906">
        <ele>1.16</ele>
        <time>2015-02-16T20:00:02Z</time>
      </trkpt>
      <trkpt lat="46.35154" lon="-1.42886">
        <ele>1.15</ele>
        <time>2015-02-16T20:00:06Z</time>
      </trkpt>
      <trkpt lat="46.35162" lon="-1.42866">
        <ele>1.05</ele>
        <time>2015-02-16T20:00:10Z</time>
      </trkpt>
      <trkpt lat="46.3517" lon="-1.42857">
        <ele>1.01</ele>
        <time>2015-02-16T20:00:13Z</time>
      </trkpt>
      <trkpt lat="46.35178" lon="-1.42852">
        <ele>1.03</ele>
        <time>2015-02-16T20:00:15Z</time>
      </trkpt>
      <trkpt lat="46.35187" lon="-1.4285">
        <ele>1.05</ele>
        <time>2015-02-16T20:00:18Z</time>
      </trkpt>
      <trkpt lat="46.352" lon="-1.42853">
        <ele>1.09</ele>
        <time>2015-02-16T20:00:21Z</time>
      </trkpt>
      <trkpt lat="46.35226" lon="-1.42825">
        <ele>0.93</ele>
        <time>2015-02-16T20:00:30Z</time>
      </trkpt>
      <trkpt lat="46.35241" lon="-1.42806">
        <ele>0.71</ele>
        <time>2015-02-16T20:00:35Z</time>
      </trkpt>
      <trkpt lat="46.35263" lon="-1.42769">
        <ele>0.39</ele>
        <time>2015-02-16T20:00:44Z</time>
      </trkpt>
      <trkpt lat="46.35344" lon="-1.42598">
        <ele>1.69</ele>
        <time>2015-02-16T20:01:22Z</time>
      </trkpt>
      <trkpt lat="46.35378" lon="-1.42525">
        <ele>1.84</ele>
        <time>2015-02-16T20:01:39Z</time>
      </trkpt>
      <trkpt lat="46.35388" lon="-1.42497">
        <ele>2</ele>
        <time>2015-02-16T20:01:44Z</time>
      </trkpt>
      <trkpt lat="46.35389" lon="-1.4248">
        <ele>2</ele>
        <time>2015-02-16T20:01:47Z</time>
      </trkpt>
      <trkpt lat="46.35383" lon="-1.42472">
        <ele>2</ele>
        <time>2015-02-16T20:01:50Z</time>
      </trkpt>
      <trkpt lat="46.35372" lon="-1.42466">
        <ele>2</ele>
        <time>2015-02-16T20:01:53Z</time>
      </trkpt>
      <trkpt lat="46.35366" lon="-1.42461">
        <ele>2</ele>
        <time>2015-02-16T20:01:54Z</time>
      </trkpt>
      <trkpt lat="46.35363" lon="-1.42454">
        <ele>2</ele>
        <time>2015-02-16T20:01:56Z</time>
      </trkpt>
      <trkpt lat="46.35362" lon="-1.42444">
        <ele>2</ele>
        <time>2015-02-16T20:01:58Z</time>
      </trkpt>
      <trkpt lat="46.35362" lon="-1.42434">
        <ele>2</ele>
        <time>2015-02-16T20:02:00Z</time>
      </trkpt>
      <trkpt lat="46.35365" lon="-1.42423">
        <ele>2</ele>
        <time>2015-02-16T20:02:02Z</time>
      </trkpt>
      <trkpt lat="46.35378" lon="-1.42407">
        <ele>1.94</ele>
        <time>2015-02-16T20:02:06Z</time>
      </trkpt>
      <trkpt lat="46.35389" lon="-1.42387">
        <ele>1.77</ele>
        <time>2015-02-16T20:02:11Z</time>
      </trkpt>
      <trkpt lat="46.35392" lon="-1.42369">
        <ele>1.6</ele>
        <time>2015-02-16T20:02:14Z</time>
      </trkpt>
      <trkpt lat="46.35387" lon="-1.42332">
        <ele>1.37</ele>
        <time>2015-02-16T20:02:21Z</time>
      </trkpt>
      <trkpt lat="46.35376" lon="-1.42197">
        <ele>1.68</ele>
        <time>2015-02-16T20:02:47Z</time>
      </trkpt>
      <trkpt lat="46.3535" lon="-1.40813">
        <ele>1.55</ele>
        <time>2015-02-16T20:07:02Z</time>
      </trkpt>
      <trkpt lat="46.35344" lon="-1.40593">
        <ele>1.1</ele>
        <time>2015-02-16T20:07:42Z</time>
      </trkpt>
      <trkpt lat="46.35338" lon="-1.4049">
        <ele>0.95</ele>
        <time>2015-02-16T20:08:01Z</time>
      </trkpt>
      <trkpt lat="46.35328" lon="-1.40385">
        <ele>1</ele>
        <time>2015-02-16T20:08:21Z</time>
      </trkpt>
      <trkpt lat="46.35328" lon="-1.40364">
        <ele>1</ele>
        <time>2015-02-16T20:08:25Z</time>
      </trkpt>
      <trkpt lat="46.35336" lon="-1.40335">
        <ele>1.03</ele>
        <time>2015-02-16T20:08:30Z</time>
      </trkpt>
      <trkpt lat="46.35336" lon="-1.40293">
        <ele>0.56</ele>
        <time>2015-02-16T20:08:38Z</time>
      </trkpt>
      <trkpt lat="46.35328" lon="-1.40049">
        <ele>0.87</ele>
        <time>2015-02-16T20:09:23Z</time>
      </trkpt>
      <trkpt lat="46.35322" lon="-1.39993">
        <ele>2</ele>
        <time>2015-02-16T20:09:33Z</time>
      </trkpt>
      <trkpt lat="46.35318" lon="-1.39907">
        <ele>1.98</ele>
        <time>2015-02-16T20:09:49Z</time>
      </trkpt>
      <trkpt lat="46.35312" lon="-1.39826">
        <ele>1.7</ele>
        <time>2015-02-16T20:10:04Z</time>
      </trkpt>
      <trkpt lat="46.35311" lon="-1.39731">
        <ele>1.1</ele>
        <time>2015-02-16T20:10:22Z</time>
      </trkpt>
      <trkpt lat="46.35319" lon="-1.3949">
        <ele>0.98</ele>
        <time>2015-02-16T20:11:06Z</time>
      </trkpt>
      <trkpt lat="46.35335" lon="-1.39327">
        <ele>1.06</ele>
        <time>2015-02-16T20:11:37Z</time>
      </trkpt>
      <trkpt lat="46.35349" lon="-1.39273">
        <ele>1.54</ele>
        <time>2015-02-16T20:11:47Z</time>
      </trkpt>
      <trkpt lat="46.3535" lon="-1.39254">
        <ele>1.76</ele>
        <time>2015-02-16T20:11:51Z</time>
      </trkpt>
      <trkpt lat="46.35425" lon="-1.38734">
        <ele>0.28</ele>
        <time>2015-02-16T20:13:29Z</time>
      </trkpt>
      <trkpt lat="46.35436" lon="-1.38565">
        <ele>0.77</ele>
        <time>2015-02-16T20:14:00Z</time>
      </trkpt>
      <trkpt lat="46.35438" lon="-1.38443">
        <ele>1.43</ele>
        <time>2015-02-16T20:14:22Z</time>
      </trkpt>
      <trkpt lat="46.35436" lon="-1.38367">
        <ele>1.77</ele>
        <time>2015-02-16T20:14:36Z</time>
      </trkpt>
      <trkpt lat="46.35428" lon="-1.38229">
        <ele>1.97</ele>
        <time>2015-02-16T20:15:02Z</time>
      </trkpt>
      <trkpt lat="46.35423" lon="-1.38181">
        <ele>1.94</ele>
        <time>2015-02-16T20:15:11Z</time>
      </trkpt>
      <trkpt lat="46.35406" lon="-1.38071">
        <ele>0.87</ele>
        <time>2015-02-16T20:15:32Z</time>
      </trkpt>
      <trkpt lat="46.35226" lon="-1.36972">
        <ele>1.09</ele>
        <time>2015-02-16T20:19:00Z</time>
      </trkpt>
      <trkpt lat="46.35212" lon="-1.36856">
        <ele>1.05</ele>
        <time>2015-02-16T20:19:22Z</time>
      </trkpt>
      <trkpt lat="46.35209" lon="-1.36844">
        <ele>1.05</ele>
        <time>2015-02-16T20:19:24Z</time>
      </trkpt>
      <trkpt lat="46.35195" lon="-1.36827">
        <ele>1.3</ele>
        <time>2015-02-16T20:19:29Z</time>
      </trkpt>
      <trkpt lat="46.35184" lon="-1.36803">
        <ele>1.37</ele>
        <time>2015-02-16T20:19:34Z</time>
      </trkpt>
      <trkpt lat="46.35178" lon="-1.36795">
        <ele>1.4</ele>
        <time>2015-02-16T20:19:36Z</time>
      </trkpt>
      <trkpt lat="46.35039" lon="-1.36722">
        <ele>2.88</ele>
        <time>2015-02-16T20:20:16Z</time>
      </trkpt>
      <trkpt lat="46.35003" lon="-1.36704">
        <ele>3.41</ele>
        <time>2015-02-16T20:20:26Z</time>
      </trkpt>
      <trkpt lat="46.34977" lon="-1.36702">
        <ele>3.19</ele>
        <time>2015-02-16T20:20:33Z</time>
      </trkpt>
      <trkpt lat="46.34974" lon="-1.36689">
        <ele>3.1</ele>
        <time>2015-02-16T20:20:35Z</time>
      </trkpt>
      <trkpt lat="46.34961" lon="-1.36694">
        <ele>3.02</ele>
        <time>2015-02-16T20:20:39Z</time>
      </trkpt>
      <trkpt lat="46.34961" lon="-1.36707">
        <ele>3.03</ele>
        <time>2015-02-16T20:20:41Z</time>
      </trkpt>
      <trkpt lat="46.34957" lon="-1.36716">
        <ele>2.98</ele>
        <time>2015-02-16T20:20:43Z</time>
      </trkpt>
      <trkpt lat="46.3495" lon="-1.36721">
        <ele>2.87</ele>
        <time>2015-02-16T20:20:45Z</time>
      </trkpt>
      <trkpt lat="46.34942" lon="-1.3672">
        <ele>2.76</ele>
        <time>2015-02-16T20:20:47Z</time>
      </trkpt>
      <trkpt lat="46.34936" lon="-1.36713">
        <ele>2.7</ele>
        <time>2015-02-16T20:20:49Z</time>
      </trkpt>
      <trkpt lat="46.34933" lon="-1.36703">
        <ele>2.73</ele>
        <time>2015-02-16T20:20:51Z</time>
      </trkpt>
      <trkpt lat="46.34933" lon="-1.36698">
        <ele>2.77</ele>
        <time>2015-02-16T20:20:52Z</time>
      </trkpt>
      <trkpt lat="46.34927" lon="-1.36678">
        <ele>2.89</ele>
        <time>2015-02-16T20:20:56Z</time>
      </trkpt>
      <trkpt lat="46.34913" lon="-1.3665">
        <ele>2.84</ele>
        <time>2015-02-16T20:21:03Z</time>
      </trkpt>
      <trkpt lat="46.34905" lon="-1.36619">
        <ele>2.6</ele>
        <time>2015-02-16T20:21:09Z</time>
      </trkpt>
      <trkpt lat="46.34901" lon="-1.36582">
        <ele>2.64</ele>
        <time>2015-02-16T20:21:16Z</time>
      </trkpt>
      <trkpt lat="46.34889" lon="-1.36134">
        <ele>4.72</ele>
        <time>2015-02-16T20:22:38Z</time>
      </trkpt>
      <trkpt lat="46.34886" lon="-1.36065">
        <ele>5.48</ele>
        <time>2015-02-16T20:22:51Z</time>
      </trkpt>
      <trkpt lat="46.34874" lon="-1.35915">
        <ele>5.52</ele>
        <time>2015-02-16T20:23:19Z</time>
      </trkpt>
      <trkpt lat="46.34868" lon="-1.35882">
        <ele>5.34</ele>
        <time>2015-02-16T20:23:25Z</time>
      </trkpt>
      <trkpt lat="46.34702" lon="-1.35273">
        <ele>6.2</ele>
        <time>2015-02-16T20:25:26Z</time>
      </trkpt>
      <trkpt lat="46.34681" lon="-1.35225">
        <ele>4.93</ele>
        <time>2015-02-16T20:25:36Z</time>
      </trkpt>
      <trkpt lat="46.34611" lon="-1.35096">
        <ele>4.79</ele>
        <time>2015-02-16T20:26:07Z</time>
      </trkpt>
      <trkpt lat="46.34532" lon="-1.34945">
        <ele>5.19</ele>
        <time>2015-02-16T20:26:41Z</time>
      </trkpt>
      <trkpt lat="46.345" lon="-1.3489">
        <ele>5.36</ele>
        <time>2015-02-16T20:26:55Z</time>
      </trkpt>
      <trkpt lat="46.34439" lon="-1.34772">
        <ele>3.99</ele>
        <time>2015-02-16T20:27:22Z</time>
      </trkpt>
      <trkpt lat="46.34427" lon="-1.34743">
        <ele>3.96</ele>
        <time>2015-02-16T20:27:28Z</time>
      </trkpt>
      <trkpt lat="46.34417" lon="-1.34714">
        <ele>4.43</ele>
        <time>2015-02-16T20:27:34Z</time>
      </trkpt>
      <trkpt lat="46.34408" lon="-1.34685">
        <ele>4.86</ele>
        <time>2015-02-16T20:27:40Z</time>
      </trkpt>
      <trkpt lat="46.34357" lon="-1.34448">
        <ele>3.27</ele>
        <time>2015-02-16T20:28:26Z</time>
      </trkpt>
      <trkpt lat="46.34341" lon="-1.34394">
        <ele>3.52</ele>
        <time>2015-02-16T20:28:37Z</time>
      </trkpt>
      <trkpt lat="46.34324" lon="-1.34355">
        <ele>3.37</ele>
        <time>2015-02-16T20:28:45Z</time>
      </trkpt>
      <trkpt lat="46.34237" lon="-1.34214">
        <ele>0.71</ele>
        <time>2015-02-16T20:29:20Z</time>
      </trkpt>
      <trkpt lat="46.341" lon="-1.33984">
        <ele>-0.69</ele>
        <time>2015-02-16T20:30:16Z</time>
      </trkpt>
      <trkpt lat="46.34082" lon="-1.33958">
        <ele>-0.45</ele>
        <time>2015-02-16T20:30:23Z</time>
      </trkpt>
      <trkpt lat="46.34019" lon="-1.33885">
        <ele>1.25</ele>
        <time>2015-02-16T20:30:44Z</time>
      </trkpt>
      <trkpt lat="46.33925" lon="-1.33767">
        <ele>1.08</ele>
        <time>2015-02-16T20:31:17Z</time>
      </trkpt>
      <trkpt lat="46.33779" lon="-1.33595">
        <ele>2.3</ele>
        <time>2015-02-16T20:32:08Z</time>
      </trkpt>
      <trkpt lat="46.3362" lon="-1.33377">
        <ele>2.41</ele>
        <time>2015-02-16T20:33:06Z</time>
      </trkpt>
      <trkpt lat="46.33598" lon="-1.33338">
        <ele>2.69</ele>
        <time>2015-02-16T20:33:15Z</time>
      </trkpt>
      <trkpt lat="46.33594" lon="-1.33341">
        <ele>2.82</ele>
        <time>2015-02-16T20:33:16Z</time>
      </trkpt>
      <trkpt lat="46.33589" lon="-1.33338">
        <ele>2.93</ele>
        <time>2015-02-16T20:33:18Z</time>
      </trkpt>
      <trkpt lat="46.33586" lon="-1.33334">
        <ele>2.94</ele>
        <time>2015-02-16T20:33:19Z</time>
      </trkpt>
      <trkpt lat="46.33585" lon="-1.33329">
        <ele>2.95</ele>
        <time>2015-02-16T20:33:20Z</time>
      </trkpt>
      <trkpt lat="46.33588" lon="-1.3332">
        <ele>2.91</ele>
        <time>2015-02-16T20:33:22Z</time>
      </trkpt>
      <trkpt lat="46.33593" lon="-1.33317">
        <ele>2.81</ele>
        <time>2015-02-16T20:33:23Z</time>
      </trkpt>
      <trkpt lat="46.33598" lon="-1.33253">
        <ele>2.99</ele>
        <time>2015-02-16T20:33:35Z</time>
      </trkpt>
      <trkpt lat="46.33627" lon="-1.3305">
        <ele>3.29</ele>
        <time>2015-02-16T20:34:13Z</time>
      </trkpt>
      <trkpt lat="46.33627" lon="-1.3301">
        <ele>3.06</ele>
        <time>2015-02-16T20:34:21Z</time>
      </trkpt>
      <trkpt lat="46.33618" lon="-1.32964">
        <ele>3.07</ele>
        <time>2015-02-16T20:34:29Z</time>
      </trkpt>
      <trkpt lat="46.33479" lon="-1.32654">
        <ele>2.37</ele>
        <time>2015-02-16T20:35:38Z</time>
      </trkpt>
      <trkpt lat="46.33308" lon="-1.32281">
        <ele>3.56</ele>
        <time>2015-02-16T20:37:00Z</time>
      </trkpt>
      <trkpt lat="46.33293" lon="-1.32248">
        <ele>3.48</ele>
        <time>2015-02-16T20:37:07Z</time>
      </trkpt>
      <trkpt lat="46.33287" lon="-1.32225">
        <ele>3.56</ele>
        <time>2015-02-16T20:37:12Z</time>
      </trkpt>
      <trkpt lat="46.33279" lon="-1.32208">
        <ele>3.65</ele>
        <time>2015-02-16T20:37:16Z</time>
      </trkpt>
      <trkpt lat="46.33272" lon="-1.32202">
        <ele>3.73</ele>
        <time>2015-02-16T20:37:18Z</time>
      </trkpt>
      <trkpt lat="46.33269" lon="-1.32193">
        <ele>3.78</ele>
        <time>2015-02-16T20:37:20Z</time>
      </trkpt>
      <trkpt lat="46.33268" lon="-1.32184">
        <ele>3.78</ele>
        <time>2015-02-16T20:37:21Z</time>
      </trkpt>
      <trkpt lat="46.3327" lon="-1.32177">
        <ele>3.76</ele>
        <time>2015-02-16T20:37:23Z</time>
      </trkpt>
      <trkpt lat="46.3328" lon="-1.32163">
        <ele>3.64</ele>
        <time>2015-02-16T20:37:26Z</time>
      </trkpt>
      <trkpt lat="46.3329" lon="-1.32121">
        <ele>3.51</ele>
        <time>2015-02-16T20:37:35Z</time>
      </trkpt>
      <trkpt lat="46.33329" lon="-1.32015">
        <ele>2.29</ele>
        <time>2015-02-16T20:37:57Z</time>
      </trkpt>
      <trkpt lat="46.33334" lon="-1.31977">
        <ele>2</ele>
        <time>2015-02-16T20:38:04Z</time>
      </trkpt>
      <trkpt lat="46.33334" lon="-1.3196">
        <ele>2</ele>
        <time>2015-02-16T20:38:07Z</time>
      </trkpt>
      <trkpt lat="46.3333" lon="-1.3195">
        <ele>2.06</ele>
        <time>2015-02-16T20:38:09Z</time>
      </trkpt>
      <trkpt lat="46.33332" lon="-1.31938">
        <ele>2.02</ele>
        <time>2015-02-16T20:38:11Z</time>
      </trkpt>
      <trkpt lat="46.33334" lon="-1.31934">
        <ele>1.99</ele>
        <time>2015-02-16T20:38:12Z</time>
      </trkpt>
      <trkpt lat="46.3334" lon="-1.3193">
        <ele>1.94</ele>
        <time>2015-02-16T20:38:14Z</time>
      </trkpt>
      <trkpt lat="46.33346" lon="-1.31931">
        <ele>1.88</ele>
        <time>2015-02-16T20:38:16Z</time>
      </trkpt>
      <trkpt lat="46.33358" lon="-1.31923">
        <ele>1.73</ele>
        <time>2015-02-16T20:38:19Z</time>
      </trkpt>
      <trkpt lat="46.3338" lon="-1.31893">
        <ele>1.63</ele>
        <time>2015-02-16T20:38:27Z</time>
      </trkpt>
      <trkpt lat="46.33541" lon="-1.31551">
        <ele>2.07</ele>
        <time>2015-02-16T20:39:44Z</time>
      </trkpt>
      <trkpt lat="46.33562" lon="-1.315">
        <ele>3.49</ele>
        <time>2015-02-16T20:39:55Z</time>
      </trkpt>
      <trkpt lat="46.3357" lon="-1.31461">
        <ele>4.68</ele>
        <time>2015-02-16T20:40:02Z</time>
      </trkpt>
      <trkpt lat="46.3357" lon="-1.31449">
        <ele>5</ele>
        <time>2015-02-16T20:40:04Z</time>
      </trkpt>
      <trkpt lat="46.33565" lon="-1.31398">
        <ele>5.6</ele>
        <time>2015-02-16T20:40:14Z</time>
      </trkpt>
      <trkpt lat="46.33507" lon="-1.31283">
        <ele>4.95</ele>
        <time>2015-02-16T20:40:40Z</time>
      </trkpt>
      <trkpt lat="46.33496" lon="-1.31257">
        <ele>4.95</ele>
        <time>2015-02-16T20:40:46Z</time>
      </trkpt>
      <trkpt lat="46.33463" lon="-1.31134">
        <ele>3.48</ele>
        <time>2015-02-16T20:41:10Z</time>
      </trkpt>
      <trkpt lat="46.33448" lon="-1.31095">
        <ele>2.4</ele>
        <time>2015-02-16T20:41:18Z</time>
      </trkpt>
      <trkpt lat="46.33435" lon="-1.31063">
        <ele>1.89</ele>
        <time>2015-02-16T20:41:25Z</time>
      </trkpt>
      <trkpt lat="46.33391" lon="-1.30977">
        <ele>2.2</ele>
        <time>2015-02-16T20:41:45Z</time>
      </trkpt>
      <trkpt lat="46.33348" lon="-1.30898">
        <ele>3.16</ele>
        <time>2015-02-16T20:42:03Z</time>
      </trkpt>
      <trkpt lat="46.33345" lon="-1.30899">
        <ele>3.1</ele>
        <time>2015-02-16T20:42:04Z</time>
      </trkpt>
      <trkpt lat="46.33341" lon="-1.30896">
        <ele>2.96</ele>
        <time>2015-02-16T20:42:05Z</time>
      </trkpt>
      <trkpt lat="46.3334" lon="-1.30893">
        <ele>2.89</ele>
        <time>2015-02-16T20:42:06Z</time>
      </trkpt>
      <trkpt lat="46.33342" lon="-1.30885">
        <ele>2.86</ele>
        <time>2015-02-16T20:42:08Z</time>
      </trkpt>
      <trkpt lat="46.33326" lon="-1.30846">
        <ele>1.95</ele>
        <time>2015-02-16T20:42:16Z</time>
      </trkpt>
      <trkpt lat="46.33281" lon="-1.30752">
        <ele>2.7</ele>
        <time>2015-02-16T20:42:37Z</time>
      </trkpt>
      <trkpt lat="46.33171" lon="-1.3057">
        <ele>3.9</ele>
        <time>2015-02-16T20:43:21Z</time>
      </trkpt>
      <trkpt lat="46.33135" lon="-1.30507">
        <ele>2.96</ele>
        <time>2015-02-16T20:43:37Z</time>
      </trkpt>
      <trkpt lat="46.32987" lon="-1.30317">
        <ele>3.34</ele>
        <time>2015-02-16T20:44:29Z</time>
      </trkpt>
      <trkpt lat="46.32933" lon="-1.30205">
        <ele>3.83</ele>
        <time>2015-02-16T20:44:55Z</time>
      </trkpt>
      <trkpt lat="46.32927" lon="-1.30198">
        <ele>3.79</ele>
        <time>2015-02-16T20:44:57Z</time>
      </trkpt>
      <trkpt lat="46.32919" lon="-1.30184">
        <ele>3.82</ele>
        <time>2015-02-16T20:45:00Z</time>
      </trkpt>
      <trkpt lat="46.32907" lon="-1.30159">
        <ele>4</ele>
        <time>2015-02-16T20:45:06Z</time>
      </trkpt>
      <trkpt lat="46.32904" lon="-1.30148">
        <ele>4</ele>
        <time>2015-02-16T20:45:08Z</time>
      </trkpt>
      <trkpt lat="46.32893" lon="-1.30127">
        <ele>4</ele>
        <time>2015-02-16T20:45:13Z</time>
      </trkpt>
      <trkpt lat="46.32807" lon="-1.3">
        <ele>3</ele>
        <time>2015-02-16T20:45:46Z</time>
      </trkpt>
      <trkpt lat="46.32804" lon="-1.30003">
        <ele>3.03</ele>
        <time>2015-02-16T20:45:46Z</time>
      </trkpt>
      <trkpt lat="46.328" lon="-1.30003">
        <ele>3.04</ele>
        <time>2015-02-16T20:45:48Z</time>
      </trkpt>
      <trkpt lat="46.32796" lon="-1.3">
        <ele>3</ele>
        <time>2015-02-16T20:45:49Z</time>
      </trkpt>
      <trkpt lat="46.32795" lon="-1.2999">
        <ele>3</ele>
        <time>2015-02-16T20:45:51Z</time>
      </trkpt>
      <trkpt lat="46.32796" lon="-1.29985">
        <ele>3</ele>
        <time>2015-02-16T20:45:52Z</time>
      </trkpt>
      <trkpt lat="46.3275" lon="-1.29914">
        <ele>3.03</ele>
        <time>2015-02-16T20:46:10Z</time>
      </trkpt>
      <trkpt lat="46.32663" lon="-1.29814">
        <ele>3.96</ele>
        <time>2015-02-16T20:46:39Z</time>
      </trkpt>
      <trkpt lat="46.32584" lon="-1.29736">
        <ele>2.84</ele>
        <time>2015-02-16T20:47:05Z</time>
      </trkpt>
      <trkpt lat="46.32463" lon="-1.29626">
        <ele>2.97</ele>
        <time>2015-02-16T20:47:43Z</time>
      </trkpt>
      <trkpt lat="46.32271" lon="-1.29394">
        <ele>2.9</ele>
        <time>2015-02-16T20:48:50Z</time>
      </trkpt>
      <trkpt lat="46.3225" lon="-1.29374">
        <ele>3.02</ele>
        <time>2015-02-16T20:48:56Z</time>
      </trkpt>
      <trkpt lat="46.3221" lon="-1.29345">
        <ele>3.3</ele>
        <time>2015-02-16T20:49:08Z</time>
      </trkpt>
      <trkpt lat="46.32072" lon="-1.29263">
        <ele>2.98</ele>
        <time>2015-02-16T20:49:48Z</time>
      </trkpt>
      <trkpt lat="46.32029" lon="-1.29234">
        <ele>3.92</ele>
        <time>2015-02-16T20:50:01Z</time>
      </trkpt>
      <trkpt lat="46.32017" lon="-1.29223">
        <ele>4.19</ele>
        <time>2015-02-16T20:50:05Z</time>
      </trkpt>
      <trkpt lat="46.32005" lon="-1.29206">
        <ele>4.5</ele>
        <time>2015-02-16T20:50:09Z</time>
      </trkpt>
      <trkpt lat="46.31998" lon="-1.29209">
        <ele>4.46</ele>
        <time>2015-02-16T20:50:11Z</time>
      </trkpt>
      <trkpt lat="46.31989" lon="-1.29208">
        <ele>4.31</ele>
        <time>2015-02-16T20:50:13Z</time>
      </trkpt>
      <trkpt lat="46.31906" lon="-1.29134">
        <ele>3.68</ele>
        <time>2015-02-16T20:50:39Z</time>
      </trkpt>
      <trkpt lat="46.31872" lon="-1.2908">
        <ele>3.94</ele>
        <time>2015-02-16T20:50:53Z</time>
      </trkpt>
      <trkpt lat="46.31781" lon="-1.2896">
        <ele>4</ele>
        <time>2015-02-16T20:51:26Z</time>
      </trkpt>
      <trkpt lat="46.31747" lon="-1.2891">
        <ele>3.86</ele>
        <time>2015-02-16T20:51:39Z</time>
      </trkpt>
      <trkpt lat="46.31671" lon="-1.28815">
        <ele>2.26</ele>
        <time>2015-02-16T20:52:06Z</time>
      </trkpt>
      <trkpt lat="46.31526" lon="-1.28621">
        <ele>2.68</ele>
        <time>2015-02-16T20:52:58Z</time>
      </trkpt>
      <trkpt lat="46.31501" lon="-1.28583">
        <ele>3.01</ele>
        <time>2015-02-16T20:53:08Z</time>
      </trkpt>
      <trkpt lat="46.31485" lon="-1.28563">
        <ele>2.87</ele>
        <time>2015-02-16T20:53:13Z</time>
      </trkpt>
      <trkpt lat="46.31474" lon="-1.28552">
        <ele>2.8</ele>
        <time>2015-02-16T20:53:17Z</time>
      </trkpt>
      <trkpt lat="46.31453" lon="-1.28528">
        <ele>2.81</ele>
        <time>2015-02-16T20:53:24Z</time>
      </trkpt>
      <trkpt lat="46.3145" lon="-1.28524">
        <ele>2.83</ele>
        <time>2015-02-16T20:53:25Z</time>
      </trkpt>
      <trkpt lat="46.31451" lon="-1.28515">
        <ele>2.89</ele>
        <time>2015-02-16T20:53:27Z</time>
      </trkpt>
      <trkpt lat="46.31495" lon="-1.28448">
        <ele>1.76</ele>
        <time>2015-02-16T20:53:44Z</time>
      </trkpt>
      <trkpt lat="46.31501" lon="-1.28442">
        <ele>1.62</ele>
        <time>2015-02-16T20:53:46Z</time>
      </trkpt>
      <trkpt lat="46.31384" lon="-1.28275">
        <ele>2.78</ele>
        <time>2015-02-16T20:54:30Z</time>
      </trkpt>
      <trkpt lat="46.31363" lon="-1.28251">
        <ele>2.36</ele>
        <time>2015-02-16T20:54:37Z</time>
      </trkpt>
      <trkpt lat="46.31342" lon="-1.28229">
        <ele>2.05</ele>
        <time>2015-02-16T20:54:44Z</time>
      </trkpt>
      <trkpt lat="46.31275" lon="-1.28168">
        <ele>2</ele>
        <time>2015-02-16T20:55:05Z</time>
      </trkpt>
      <trkpt lat="46.31228" lon="-1.28131">
        <ele>2.68</ele>
        <time>2015-02-16T20:55:19Z</time>
      </trkpt>
      <trkpt lat="46.31187" lon="-1.28105">
        <ele>3.7</ele>
        <time>2015-02-16T20:55:31Z</time>
      </trkpt>
      <trkpt lat="46.31154" lon="-1.28087">
        <ele>3.9</ele>
        <time>2015-02-16T20:55:41Z</time>
      </trkpt>
      <trkpt lat="46.31095" lon="-1.28068">
        <ele>2.8</ele>
        <time>2015-02-16T20:55:57Z</time>
      </trkpt>
      <trkpt lat="46.31012" lon="-1.28047">
        <ele>2.39</ele>
        <time>2015-02-16T20:56:19Z</time>
      </trkpt>
      <trkpt lat="46.31001" lon="-1.28042">
        <ele>2.49</ele>
        <time>2015-02-16T20:56:22Z</time>
      </trkpt>
      <trkpt lat="46.30983" lon="-1.28026">
        <ele>2.14</ele>
        <time>2015-02-16T20:56:28Z</time>
      </trkpt>
      <trkpt lat="46.30961" lon="-1.27996">
        <ele>1.63</ele>
        <time>2015-02-16T20:56:36Z</time>
      </trkpt>
      <trkpt lat="46.30938" lon="-1.27954">
        <ele>1.19</ele>
        <time>2015-02-16T20:56:46Z</time>
      </trkpt>
      <trkpt lat="46.30861" lon="-1.27757">
        <ele>0.33</ele>
        <time>2015-02-16T20:57:28Z</time>
      </trkpt>
      <trkpt lat="46.30827" lon="-1.27675">
        <ele>1.8</ele>
        <time>2015-02-16T20:57:45Z</time>
      </trkpt>
      <trkpt lat="46.30809" lon="-1.27637">
        <ele>1.85</ele>
        <time>2015-02-16T20:57:54Z</time>
      </trkpt>
      <trkpt lat="46.30788" lon="-1.27608">
        <ele>2.07</ele>
        <time>2015-02-16T20:58:02Z</time>
      </trkpt>
      <trkpt lat="46.30775" lon="-1.27596">
        <ele>2.34</ele>
        <time>2015-02-16T20:58:06Z</time>
      </trkpt>
      <trkpt lat="46.30637" lon="-1.27505">
        <ele>0.94</ele>
        <time>2015-02-16T20:58:46Z</time>
      </trkpt>
      <trkpt lat="46.30627" lon="-1.27497">
        <ele>0.98</ele>
        <time>2015-02-16T20:58:49Z</time>
      </trkpt>
      <trkpt lat="46.30604" lon="-1.27452">
        <ele>0.86</ele>
        <time>2015-02-16T20:59:00Z</time>
      </trkpt>
      <trkpt lat="46.3047" lon="-1.27237">
        <ele>1.79</ele>
        <time>2015-02-16T20:59:53Z</time>
      </trkpt>
      <trkpt lat="46.30393" lon="-1.27108">
        <ele>0.93</ele>
        <time>2015-02-16T21:00:24Z</time>
      </trkpt>
      <trkpt lat="46.30338" lon="-1.2702">
        <ele>0.01</ele>
        <time>2015-02-16T21:00:46Z</time>
      </trkpt>
      <trkpt lat="46.29946" lon="-1.2638">
        <ele>0.09</ele>
        <time>2015-02-16T21:03:24Z</time>
      </trkpt>
      <trkpt lat="46.29901" lon="-1.26305">
        <ele>0.27</ele>
        <time>2015-02-16T21:03:42Z</time>
      </trkpt>
      <trkpt lat="46.29825" lon="-1.26171">
        <ele>3.4</ele>
        <time>2015-02-16T21:04:14Z</time>
      </trkpt>
      <trkpt lat="46.29816" lon="-1.26148">
        <ele>-0.13</ele>
        <time>2015-02-16T21:04:19Z</time>
      </trkpt>
      <trkpt lat="46.29778" lon="-1.26079">
        <ele>0.31</ele>
        <time>2015-02-16T21:04:36Z</time>
      </trkpt>
      <trkpt lat="46.29767" lon="-1.26047">
        <ele>0.25</ele>
        <time>2015-02-16T21:04:42Z</time>
      </trkpt>
      <trkpt lat="46.29761" lon="-1.26041">
        <ele>0.29</ele>
        <time>2015-02-16T21:04:44Z</time>
      </trkpt>
      <trkpt lat="46.29762" lon="-1.25843">
        <ele>0.11</ele>
        <time>2015-02-16T21:05:21Z</time>
      </trkpt>
      <trkpt lat="46.29766" lon="-1.25823">
        <ele>0.2</ele>
        <time>2015-02-16T21:05:24Z</time>
      </trkpt>
      <trkpt lat="46.29773" lon="-1.25811">
        <ele>0.28</ele>
        <time>2015-02-16T21:05:27Z</time>
      </trkpt>
      <trkpt lat="46.29742" lon="-1.25808">
        <ele>0.18</ele>
        <time>2015-02-16T21:05:35Z</time>
      </trkpt>
    </trkseg>
  </trk>
</gpx>